     2              OBSERVATION DATA    G (GPS)             RINEX VERSION / TYPE
ASRINEXO V2.4.4 UX USGS 20-AUG-96 14:42                     PGM / RUN BY / DATE
Crustal Strain Project                                      COMMENT
U.S. Geological Survey, Menlo Park, California 94025        COMMENT
345 Middlefield Road, MS/977                                COMMENT
Contact: kwendt@isdmnl.wr.usgs.gov (Ph: 415-329-4866)       COMMENT
HI's are vertical to base of antenna                        COMMENT
earn                                                        MARKER NAME
CHS USGS                                                    OBSERVER / AGENCY
*LP00141 ASHTECH Z-XII3 1F00                                REC # / TYPE / VERS
11401 ASH700718B NONE                                       ANT # / TYPE
 -2424170.0000 -4287759.0000  4040650.0000                  APPROX POSITION XYZ
        1.1378        0.0000        0.0000                  ANTENNA: DELTA H/E/N
     1     1                                                WAVELENGTH FACT L1/2
     5    C1    L1    L2    P1    P2                        # / TYPES OF OBSERV
    30                                                      INTERVAL
  1996     7    11     0     0    0.000000                  TIME OF FIRST OBS
                                                            END OF HEADER
 96  7 11  0  0  0.0000000  0  9 23  3 21 17  1  9 31 28 26
  21136267.284      404692.74949    264693.04949  21136267.4724   21136271.9604
  21706186.353     -997152.28049   -764633.91849  21706187.5714   21706192.8524
  21265531.714     -948501.55949   -729476.52049  21265532.1114   21265537.4304
  21480423.518      778228.88049    599538.82949  21480424.5464   21480429.5614
  23152578.447    -2218479.04449  -1709954.74849  23152580.7344   23152587.2504
  24621107.137    -1277249.08449   -983654.78449  24621106.9434   24621113.5534
  23970492.286    -1869136.63049  -1438881.39249  23970491.9704   23970497.4974
  21008512.502      437568.698 9    338251.730 9  21008513.037    21008517.317
  24472548.603     1618803.63949   1251155.67549  24472548.9954   24472554.4054
 96  7 11  0  0 30.0000000  0  9 23  3 21 17  1  9 31 28 26
  21140557.112      427241.77349    282263.72049  21140558.3124   21140563.1204
  21697395.688    -1043347.68749   -800630.33549  21697396.5884   21697402.3634
  21256544.907     -995724.68449   -766273.73849  21256545.9164   21256550.9734
  21488535.646      820860.75349    632758.45349  21488537.1384   21488542.3124
  23130889.618    -2332462.65949  -1798773.07949  23130890.1854   23130896.0674
  24608773.198    -1342039.62049  -1034140.85449  24608777.1814   24608784.1724
  23951883.117    -1966921.16049  -1515077.07549  23951884.1544   23951889.4174
  21013789.720      465298.867 9    359859.643 9  21013789.959    21013794.345
  24488880.478     1704623.35349   1318028.15249  24488880.1564   24488885.5444
 96  7 11  0  1  0.0000000  0  9 23  3 21 17  1  9 31 28 26
  21144871.087      449910.24949    299927.46649  21144871.8904   21144876.8474
  21688693.415    -1089079.51849   -836265.52649  21688694.3264   21688699.3924
  21247590.359    -1042781.22149   -802941.15249  21247590.9734   21247596.4244
  21496691.958      863720.14449    666155.36349  21496692.8424   21496697.9314
  23109219.194    -2446337.76949  -1887506.86449  23109220.6144   23109227.0544
  24596483.890    -1406621.53949  -1084464.38349  24596487.5944   24596493.4104
  23933321.129    -2064476.09249  -1591093.87049  23933321.3644   23933324.4854
  21019157.340      493506.478 9    381839.579 9  21019157.678    21019162.245
  24505238.890     1790598.39749   1385021.65449  24505241.0634   24505246.2524
 96  7 11  0  1 30.0000000  0  9 23  3 21 17  1  9 31 28 26
  21149210.325      472710.68949    317694.04049  21149210.8464   21149215.4164
  21680085.221    -1134318.44349   -871516.63249  21680085.6594   21680090.8284
  21238670.384    -1089657.19549   -839467.87249  21238671.2354   21238676.3544
  21504894.578      906819.41349    699739.19849  21504894.4854   21504899.4884
  23087568.669    -2560109.96749  -1976160.46349  23087569.7744   23087576.4454
  24584240.319    -1470976.71749  -1134611.22449  24584242.2634   24584247.8374
  23914802.452    -2161790.45349  -1666923.20849  23914802.0344   23914807.7504
  21024616.896      522194.171 9    404193.608 9  21024616.732    21024621.198
  24521630.337     1876730.60449   1452137.63649  24521630.5794   24521636.6974
 96  7 11  0  2  0.0000000  0  9 23  3 21 17  1  9 31 28 26
  21153573.814      495640.85049    335561.69849  21153574.3344   21153578.8214
  21671570.292    -1179058.57649   -906379.06849  21671572.0804   21671577.1254
  21229783.821    -1136356.92249   -875857.25049  21229784.2684   21229789.6924
  21513136.712      950139.46449    733495.07249  21513137.7754   21513143.2314
  23065934.653    -2673793.29949  -2064744.80949  23065936.8214   23065943.2934
  24572035.222    -1535119.76449  -1184592.77249  24572035.8654   24572042.1194
  23896324.875    -2258875.36849  -1742573.73849  23896325.9884   23896332.4884
  21030164.432      551350.946 9    426913.161 9  21030165.173    21030169.709
  24538044.469     1962996.99549   1519358.16049  24538047.4914   24538052.2164
 96  7 11  0  2 30.0000000  0  9 23  3 21 17  1  9 31 28 26
  21157968.154      518732.06849    353554.85049  21157968.3154   21157973.3104
  21663154.672    -1223288.18749   -940843.70149  21663155.2524   21663160.9184
  21220932.571    -1182868.05849   -912099.67649  21220933.6684   21220938.7824
  21521425.461      993694.78449    767434.26349  21521426.4304   21521431.8354
  23044322.651    -2787369.21449  -2153245.47049  23044324.0894   23044330.0354
  24559869.457    -1599037.52249  -1234398.76949  24559871.7124   24559879.4594
  23877899.878    -2355707.46949  -1818027.29749  23877901.5494   23877906.4204
  21035804.502      580988.049 9    450006.990 9  21035804.859    21035809.685
  24554494.477     2049420.40049   1586701.03549  24554493.2774   24554497.5254
 96  7 11  0  3  0.0000000  0  9 23  3 21 17  1  9 31 28 26
  21162391.694      541981.59149    371671.36649  21162392.2734   21162397.5764
  21654834.043    -1267014.94749   -974916.49349  21654834.7494   21654839.9914
  21212116.842    -1229198.06249   -948200.95949  21212117.2294   21212122.4034
  21529754.240     1037461.69049    801538.33349  21529755.0024   21529760.1994
  23022731.111    -2900837.96149  -2241662.60349  23022731.4754   23022738.0114
  24547754.720    -1662715.83949  -1284018.18149  24547754.7934   24547760.5534
  23859519.723    -2452290.54449  -1893286.78949  23859520.9584   23859525.9174
  21041533.976      611096.806 9    473468.343 9  21041534.399    21041539.148
  24570963.403     2135981.86949   1654151.50849  24570964.9694   24570970.0084
 96  7 11  0  3 30.0000000  0  9 23  3 21 17  1  9 31 28 26
  21166843.898      565376.36549    389901.05749  21166844.3244   21166849.5574
  21646605.330    -1310252.95749  -1008608.44949  21646606.7744   21646612.1694
  21203334.392    -1275347.96549   -984161.90449  21203335.0324   21203340.7284
  21538119.962     1081420.71849    835792.11049  21538120.0594   21538125.4664
  23001160.620    -3014199.82349  -2329996.46749  23001159.6674   23001165.8904
  24535677.637    -1726160.01649  -1333455.14749  24535682.2034   24535687.6274
  23841189.092    -2548621.27049  -1968349.64549  23841190.0544   23841195.1204
  21047352.097      641669.629 9    497291.300 9  21047352.242    21047357.023
  24587457.661     2222651.31249   1721686.10149  24587457.7634   24587463.1024
 96  7 11  0  4  0.0000000  0  9 23  3 21 17  1  9 31 28 26
  21171321.751      588908.66149    408237.91449  21171322.2144   21171327.5054
  21638468.408    -1353016.80149  -1041930.92649  21638468.8934   21638474.2154
  21194584.651    -1321327.37049  -1019989.99549  21194585.8034   21194590.7704
  21546521.186     1125572.78649    870196.30249  21546522.0584   21546527.6974
  22979610.304    -3127435.56249  -2418232.04549  22979611.2064   22979617.8164
  24523651.153    -1789379.09549  -1382716.71549  24523651.4184   24523657.5394
  23822907.647    -2644692.72749  -2043210.47249  23822907.7744   23822913.4494
  21053257.232      672703.858 9    521473.796 9  21053257.762    21053262.485
  24603970.004     2309421.24649   1789299.00449  24603969.7854   24603975.4274
 96  7 11  0  4 30.0000000  0  9 23  3 21 17  1  9 31 28 26
  21175822.544      612562.32449    426669.34349  21175823.4584   21175828.8784
  21630418.224    -1395320.82349  -1074895.09449  21630418.6354   21630424.1804
  21185867.215    -1367141.48049  -1055689.28449  21185867.5394   21185872.4884
  21554960.083     1169923.12249    904754.98649  21554961.4734   21554967.0444
  22958086.593    -3240540.51649  -2506365.70049  22958087.9194   22958094.6564
  24511665.962    -1852362.18249  -1431794.40949  24511665.8014   24511671.5444
  23804677.155    -2740498.03449  -2117863.92549  23804676.9904   23804682.5994
  21059251.723      704202.426 9    546018.118 9  21059251.775    21059256.547
  24620498.628     2396289.89449   1856988.82949  24620499.4414   24620505.1884
 96  7 11  0  5  0.0000000  0  9 23  3 21 17  1  9 31 28 26
  21180342.068      636310.70149    445174.56849  21180342.5674   21180347.5874
  21622452.341    -1437181.04049  -1107513.44749  21622453.3804   21622458.3224
  21177178.547    -1412798.81949  -1091266.40749  21177179.5664   21177184.3324
  21563435.917     1214463.40449    939461.68849  21563437.3854   21563443.2414
  22936588.915    -3353516.10649  -2594398.55849  22936589.9114   22936596.3054
  24499725.681    -1915107.39849  -1480686.73749  24499725.7574   24499731.6274
  23786493.938    -2836050.29449  -2192320.17949  23786494.4964   23786498.7474
  21065333.552      736163.550 9    570922.869 9  21065333.901    21065338.560
  24637045.864     2483243.70349   1924745.00749  24637046.8444   24637052.5324
 96  7 11  0  5 30.0000000  0  9 23  3 21 17  1  9 31 28 26
  21184877.822      660143.17149    463745.32549  21184877.8594   21184882.7994
  21614568.840    -1478606.72749  -1139793.20149  21614569.7584   21614575.2544
  21168518.340    -1458312.63749  -1126731.69949  21168518.4354   21168523.5674
  21571951.175     1259205.76149    974325.84349  21571951.0874   21571956.8724
  22915116.061    -3466359.10649  -2682328.09249  22915116.0564   22915123.1674
  24487832.270    -1977626.76049  -1529403.06849  24487828.5474   24487835.3614
  23768355.536    -2931363.10149  -2266589.86249  23768356.1304   23768362.1974
  21071502.209      768579.423 9    596181.971 9  21071502.419    21071507.095
  24653611.600     2570292.37649   1992575.11349  24653611.4564   24653616.2114
 96  7 11  0  6  0.0000000  0  9 23  3 21 17  1  9 31 28 26
  21189428.049      684054.60349    482377.61149  21189428.4274   21189433.0574
  21606768.972    -1519593.44849  -1171730.90549  21606770.3994   21606775.5514
  21159883.958    -1503683.19349  -1162085.36049  21159884.4494   21159889.6804
  21580506.218     1304167.55849   1009360.99349  21580507.5924   21580513.1174
  22893666.397    -3579072.13449  -2770156.35749  22893667.2534   22893674.3954
  24475975.981    -2039910.56149  -1577935.87549  24475977.1944   24475983.2424
  23750261.640    -3026442.45749  -2340677.64149  23750263.0644   23750268.8964
  21077756.454      801447.069 9    621793.106 9  21077756.959    21077761.617
  24670193.523     2657442.68149   2060484.41849  24670196.3784   24670202.7444
 96  7 11  0  6 30.0000000  0  9 23  3 21 17  1  9 31 28 26
  21193997.558      708067.02349    501088.58949  21193997.5514   21194002.2574
  21599055.712    -1560126.45149  -1203315.05949  21599057.2884   21599062.8424
  21151280.856    -1548894.55849  -1197314.97649  21151281.1114   21151286.5554
  21589105.787     1349353.70949   1044570.96249  21589106.1934   21589111.6834
  22872245.103    -3691650.90949  -2857880.00749  22872244.5084   22872251.3404
  24464167.967    -2101941.94749  -1626271.97049  24464172.9074   24464178.9844
  23732215.079    -3121280.60549  -2414577.43849  23732216.7094   23732222.2204
  21084097.896      834770.829 9    647759.654 9  21084098.250    21084102.975
  24686801.357     2744702.95449   2128479.40649  24686801.7114   24686806.2134
 96  7 11  0  7  0.0000000  0  9 23  3 21 17  1  9 31 28 26
  21198594.207      732223.34349    519911.69749  21198594.2864   21198598.9134
  21591436.070    -1600171.19749  -1234518.75649  21591437.1474   21591442.4834
  21142712.880    -1593914.74449  -1232395.61949  21142714.1774   21142719.2764
  21597751.072     1394788.98149   1079975.05349  21597752.4284   21597757.8124
  22850852.741    -3804061.22649  -2945472.39949  22850852.8144   22850859.8954
  24452421.639    -2163700.18149  -1674395.23549  24452420.2564   24452425.6654
  23714217.778    -3215854.05549  -2488271.01449  23714219.3714   23714224.8984
  21090528.679      868565.210 9    674092.914 9  21090529.103    21090533.889
  24703430.637     2832094.18949   2196576.43049  24703431.1284   24703439.2604
 96  7 11  0  7 30.0000000  0  9 23  3 21 17  1  9 31 28 26
  21203218.881      756529.11749    538851.26049  21203219.6944   21203224.4324
  21583912.204    -1639708.76149  -1265327.24749  21583913.4284   21583918.7524
  21134181.887    -1638746.79549  -1267329.66649  21134183.0344   21134188.2554
  21606445.646     1440476.72849   1115575.87649  21606446.7054   21606452.3144
  22829491.192    -3916313.77249  -3032941.84649  22829492.2254   22829499.0814
  24440714.877    -2225200.06349  -1722317.18849  24440718.0824   24440723.3784
  23696271.080    -3310170.62149  -2561764.41549  23696272.7534   23696277.8214
  21097045.822      902812.583 9    700779.155 9  21097046.326    21097050.954
  24720078.397     2919594.17849   2264758.19949  24720080.8304   24720086.4184
 96  7 11  0  8  0.0000000  0  9 23  3 21 17  1  9 31 28 26
  21207876.938      781003.70649    557922.36549  21207876.9614   21207881.4334
  21576489.767    -1678716.25849  -1295722.70049  21576490.7904   21576495.7094
  21125689.150    -1683379.94649  -1302108.72849  21125689.3404   21125694.6504
  21615185.497     1486406.75249   1151365.48449  21615187.0214   21615192.4164
  22808161.262    -4028408.99849  -3120288.72049  22808161.5734   22808167.7934
  24429068.037    -2286435.07449  -1770032.73849  24429065.3794   24429070.1184
  23678378.641    -3404201.06549  -2635034.86249  23678377.9644   23678383.3234
  21103650.982      937521.074 9    727824.708 9  21103651.198    21103655.783
  24736750.844     3007195.28449   2333018.76649  24736751.4844   24736757.1564
 96  7 11  0  8 30.0000000  0  9 23  3 21 17  1  9 31 28 26
  21212566.731      805650.88349    577127.95649  21212567.0014   21212571.7934
  21569167.969    -1717194.75349  -1325705.94149  21569168.5314   21569173.5864
  21117229.320    -1727832.04149  -1336746.70549  21117230.2994   21117235.6344
  21623966.278     1532552.09049   1187322.87549  21623967.7394   21623973.8134
  22786859.682    -4140346.29649  -3207512.52749  22786860.5434   22786866.6614
  24417460.080    -2347413.35049  -1817548.25749  24417460.6874   24417467.1514
  23660538.121    -3497946.44549  -2708083.18949  23660539.0204   23660544.8794
  21110342.784      972687.130 9    755226.807 9  21110342.988    21110347.573
  24753436.334     3094887.76649   2401350.54349  24753439.0434   24753444.4004
 96  7 11  0  9  0.0000000  0  9 23  3 21 17  1  9 31 28 26
  21217285.567      830448.52949    596450.79449  21217286.1964   21217290.8344
  21561945.278    -1755146.18149  -1355278.48949  21561946.5164   21561951.7624
  21108801.667    -1772120.53549  -1371257.20249  21108802.5554   21108807.8144
  21632789.286     1578913.46749   1223448.60249  21632790.2444   21632796.2174
  22765586.997    -4252138.02349  -3294622.90549  22765587.0814   22765593.2674
  24405903.410    -2408138.50949  -1864866.52649  24405904.7494   24405912.2564
  23642752.506    -3591408.72549  -2780910.91449  23642754.2044   23642758.7394
  21117121.446     1008308.614 9    782983.784 9  21117121.616    21117126.051
  24770143.300     3182664.40449   2469747.89649  24770142.6054   24770147.6074
 96  7 11  0  9 30.0000000  0  9 23  3 21 17  1  9 31 28 26
  21222028.178      855370.36849    615870.41049  21222028.5684   21222033.2804
  21554822.490    -1792579.66149  -1384447.43549  21554823.1324   21554828.3134
  21100403.912    -1816250.66349  -1405644.29049  21100404.5524   21100410.1254
  21641651.691     1625487.25049   1259739.84349  21641653.0374   21641658.8394
  22744337.773    -4363797.31749  -3381630.07449  22744338.2564   22744345.5144
  24394400.230    -2468613.97849  -1911990.23649  24394397.2514   24394403.7314
  23625021.443    -3684587.26349  -2853517.54549  23625022.0744   23625027.3314
  21123985.849     1044383.277 9    811093.894 9  21123986.419    21123990.763
  24786857.490     3270518.61449   2538205.67949  24786860.7424   24786865.8944
 96  7 11  0 10  0.0000000  0  9 23  3 21 17  1  9 31 28 26
  21226794.140      880414.51249    635385.31749  21226794.2054   21226798.8744
  21547795.305    -1829506.05949  -1413221.26249  21547796.4634   21547801.0804
  21092038.211    -1860215.52549  -1439902.61349  21092038.5334   21092044.1004
  21650556.660     1672278.89149   1296200.83649  21650557.2184   21650563.1814
  22723117.693    -4475314.66049  -3468526.63549  22723117.8274   22723124.3354
  24382935.394    -2528815.94149  -1958900.80849  24382941.9084   24382946.7204
  23607348.451    -3777467.11249  -2925891.42349  23607347.0514   23607352.2434
  21130939.574     1080923.492 9    839566.763 9  21130939.776    21130944.380
  24803596.460     3358461.00449   2606732.18649  24803595.1254   24803601.0634
 96  7 11  0 10 30.0000000  0  9 23  3 21 17  1  9 31 28 26
  21231578.904      905558.94349    654978.37549  21231579.3034   21231583.8574
  21540863.462    -1865933.87749  -1441606.57349  21540864.6864   21540869.4764
  21083702.539    -1904018.35449  -1474034.67349  21083702.9764   21083708.4004
  21659504.178     1719297.84649   1332838.96549  21659504.2684   21659510.0774
  22701925.203    -4586683.75449  -3555307.68649  22701925.2834   22701930.9054
  24371541.118    -2588737.74649  -2005593.08749  24371538.6144   24371545.1244
  23589728.394    -3870061.20049  -2998042.64649  23589728.8794   23589732.5364
  21137980.153     1117924.197 9    868398.456 9  21137980.652    21137985.430
  24820345.719     3446487.84349   2675324.47349  24820347.0164   24820351.9184
 96  7 11  0 11  0.0000000  0  9 23  3 21 17  1  9 31 28 26
  21236380.376      930790.77049    674639.53549  21236380.5884   21236385.3654
  21534025.766    -1901867.55449  -1469606.83749  21534026.6604   21534031.5314
  21075400.829    -1947642.81649  -1508027.74249  21075401.4964   21075406.8604
  21668494.790     1766550.51149   1369659.20449  21668496.2494   21668501.9984
  22680758.179    -4697908.28449  -3641976.08349  22680759.3144   22680765.9804
  24360189.860    -2648386.89049  -2052072.89749  24360187.7384   24360193.3674
  23572162.864    -3962364.50549  -3069967.26349  23572163.0404   23572168.9554
  21145107.418     1155378.522 9    897583.622 9  21145108.058    21145112.605
  24837112.969     3534606.65049   2743988.46349  24837114.0384   24837119.9124
 96  7 11  0 11 30.0000000  0  9 23  3 21 17  1  9 31 28 26
  21241201.576      956126.47949    694381.63949  21241201.6764   21241206.4624
  21527282.171    -1937303.42049  -1497219.20849  21527283.2654   21527288.4264
  21067135.944    -1991076.28549  -1541871.98949  21067136.6884   21067141.7404
  21677530.648     1814033.39949   1406658.83549  21677532.0144   21677537.9904
  22659625.349    -4808969.93649  -3728517.56849  22659625.2724   22659631.3924
  24348890.982    -2707747.49149  -2098327.86849  24348891.5474   24348896.9514
  23554653.518    -4054376.82249  -3141665.16949  23554654.1474   23554659.4134
  21152321.141     1193285.639 9    927121.610 9  21152321.550    21152326.150
  24853901.544     3622828.19049   2812732.46949  24853903.6994   24853908.0694
 96  7 11  0 12  0.0000000  0  9 23  3 21 17  1  9 31 28 26
  21246048.761      981598.07949    714229.63249  21246048.9734   21246053.6014
  21520636.478    -1972224.62249  -1524430.53749  21520638.0574   21520643.0204
  21058907.321    -2034317.24049  -1575566.22249  21058908.2784   21058913.2344
  21686610.910     1861747.98949   1443839.00849  21686611.9984   21686617.4744
  22638526.964    -4919842.49349  -3814911.69949  22638526.5694   22638533.0984
  24337654.160    -2766790.51549  -2144335.36549  24337656.2694   24337661.8184
  23537202.721    -4146083.45349  -3213124.86849  23537202.9504   23537207.8384
  21159623.842     1231658.131 9    957022.230 9  21159623.749    21159628.248
  24870715.126     3711170.00249   2881570.21549  24870714.6324   24870719.8064
 96  7 11  0 12 30.0000000  0  9 23  3 21 17  1  9 31 28 26
  21250920.311     1007200.34149    734179.44149  21250920.8584   21250925.4124
  21514089.757    -2006632.74749  -1551242.05949  21514090.3384   21514095.3634
  21050713.848    -2077375.59849  -1609118.17149  21050714.4404   21050719.5974
  21695730.348     1909670.95149   1481181.55849  21695730.9914   21695736.7154
  22617462.619    -5030530.21149  -3901161.79949  22617463.6524   22617470.1864
  24326480.120    -2825537.53549  -2190112.23349  24326476.9824   24326482.8204
  23519807.370    -4237492.63049  -3284352.79149  23519808.5334   23519813.3224
  21167011.299     1270482.232 9    987274.755 9  21167011.709    21167016.262
  24887545.088     3799632.09449   2950501.65849  24887548.0704   24887555.0244
 96  7 11  0 13  0.0000000  0  9 23  3 21 17  1  9 31 28 26
  21255820.753     1032952.52949    754246.07549  21255821.0104   21255825.9734
  21507641.674    -2040514.94549  -1577643.77149  21507642.7934   21507647.7264
  21042557.112    -2120237.07649  -1642516.71149  21042558.2714   21042563.2064
  21704891.158     1957818.04649   1518698.75449  21704893.0264   21704899.1144
  22596436.521    -5141025.40049  -3987261.86449  22596437.0804   22596443.5514
  24315357.443    -2883972.37049  -2235645.80349  24315357.2234   24315362.8634
  23502474.480    -4328584.37849  -3355333.35849  23502474.8144   23502479.2544
  21174486.919     1309768.302 9   1017887.253 9  21174487.618    21174492.297
  24904404.648     3888218.58749   3019530.06449  24904404.4644   24904410.5174
 96  7 11  0 13 30.0000000  0  9 23  3 21 17  1  9 31 28 26
  21260749.985     1058855.85749    774430.47649  21260750.7544   21260755.1864
  21501293.070    -2073877.87049  -1603640.85949  21501293.9244   21501299.2164
  21034435.688    -2162916.98149  -1675773.76249  21034436.5124   21034441.4464
  21714095.760     2006182.39349   1556385.23749  21714096.8754   21714102.8624
  22575445.511    -5251332.49449  -4073215.37649  22575446.2954   22575452.5404
  24304294.520    -2942086.35549  -2280929.38249  24304298.5424   24304303.8684
  23485198.199    -4419365.34049  -3426071.76249  23485198.9364   23485204.0064
  21182050.471     1349509.453 9   1048854.360 9  21182050.354    21182054.826
  24921278.706     3976894.33249   3088628.00549  24921280.1964   24921285.5554
 96  7 11  0 14  0.0000000  0  9 23  3 21 17  1  9 31 28 26
  21265705.026     1084894.48149    794720.30849  21265705.5644   21265710.4254
  21495042.039    -2106726.59249  -1629237.26749  21495042.9774   21495048.2974
  21026349.471    -2205411.41149  -1708886.28849  21026349.9084   21026355.2274
  21723340.194     2054760.17449   1594238.03249  21723341.0114   21723346.7184
  22554490.147    -5361458.66149  -4159027.90749  22554490.1314   22554496.3434
  24293299.103    -2999904.35849  -2325982.34749  24293296.4614   24293301.2974
  23467984.311    -4509826.11749  -3496560.66649  23467984.9984   23467990.0734
  21189697.881     1389700.569 9   1080172.092 9  21189698.286    21189702.897
  24938163.591     4065636.08149   3157777.38449  24938167.0724   24938173.1534
 96  7 11  0 14 30.0000000  0  9 23  3 21 17  1  9 31 28 26
  21270685.857     1111070.08849    815116.88349  21270686.6374   21270691.1174
  21488891.771    -2139046.83949  -1654421.87349  21488892.8174   21488897.9584
  21018302.834    -2247693.93149  -1741833.68549  21018304.0824   21018308.9624
  21732629.096     2103572.28149   1632273.41849  21732629.5744   21732635.6664
  22533567.417    -5471401.05049  -4244697.23249  22533568.4204   22533574.6664
  24282343.121    -3057432.32449  -2370809.29149  24282349.2294   24282353.0064
  23450835.913    -4599940.40249  -3566779.58149  23450836.9594   23450840.7324
  21197433.846     1430349.778 9   1111846.783 9  21197433.638    21197438.370
  24955063.254     4154436.81049   3226972.70149  24955064.4344   24955070.4004
 96  7 11  0 15  0.0000000  0  9 23  3 21 17  1  9 31 28 26
  21275694.009     1137386.89049    835623.48049  21275694.6194   21275699.3494
  21482840.770    -2170842.77749  -1679197.93449  21482842.2644   21482847.4474
  21010299.969    -2289753.33349  -1774607.22649  21010300.2754   21010305.3314
  21741965.743     2152635.82549   1670504.72849  21741966.2604   21741972.0434
  22512684.091    -5581143.41149  -4330210.69649  22512685.0144   22512691.6874
  24271451.430    -3114653.29349  -2415397.02949  24271460.4814   24271464.9104
  23433755.269    -4689694.94149  -3636718.16649  23433756.6544   23433762.8374
  21205257.109     1471463.731 9   1143883.612 9  21205257.341    21205262.116
  24971968.670     4243280.73149   3296201.69749  24971971.9654   24971977.2244
 96  7 11  0 15 30.0000000  0  9 23  3 21 17  1  9 31 28 26
  21280730.278     1163852.22049    856245.80949  21280730.8934   21280735.4274
  21476891.061    -2202113.93649  -1703565.07949  21476891.9224   21476896.8364
  21002340.622    -2331576.34549  -1807196.57049  21002341.6004   21002346.5464
  21751347.239     2201941.55949   1708924.75449  21751348.7054   21751354.4954
  22491843.041    -5690668.67149  -4415554.99749  22491843.2944   22491849.2754
  24260630.430    -3171569.80049  -2459747.51949  24260629.6354   24260633.9064
  23416746.192    -4779088.68549  -3706375.60349  23416745.8464   23416751.4554
  21213170.266     1513046.395 9   1176285.665 9  21213170.147    21213174.980
  24988890.342     4332184.42849   3365477.25449  24988888.9344   24988894.1954
 96  7 11  0 16  0.0000000  0  9 23  3 21 17  1  9 31 28 26
  21285791.922     1190448.73249    876970.36049  21285792.0204   21285796.8574
  21471040.011    -2232861.70449  -1727524.38049  21471040.4794   21471045.5944
  20994425.697    -2373170.89149  -1839607.88549  20994426.3854   20994431.5994
  21760776.236     2251488.35349   1747532.62549  21760777.5364   21760783.2674
  22471042.578    -5799972.59449  -4500726.82749  22471043.3444   22471049.4864
  24249855.993    -3228188.51649  -2503865.97949  24249854.6424   24249860.4784
  23399801.159    -4868129.58849  -3775758.11049  23399802.8464   23399806.9474
  21221170.157     1555089.261 9   1209046.316 9  21221170.735    21221175.525
  25005818.753     4421160.85849   3434809.50449  25005821.3284   25005826.3184
 96  7 11  0 16 30.0000000  0  9 23  3 21 17  1  9 31 28 26
  21290876.346     1217169.88649    897792.03449  21290877.0184   21290881.3864
  21465289.093    -2263080.77349  -1751071.71449  21465290.1724   21465294.9524
  20986551.522    -2414552.80049  -1871853.51349  20986551.8904   20986556.8144
  21770252.230     2301278.49749   1786330.11649  21770251.9554   21770257.4624
  22450286.721    -5909046.73449  -4585719.60549  22450287.1504   22450293.1224
  24239141.093    -3284479.02449  -2547728.69849  24239143.7014   24239148.0324
  23382922.647    -4956830.46149  -3844875.65749  23382923.0304   23382927.5834
  21229258.710     1597590.961 9   1242164.507 9  21229258.618    21229263.208
  25022766.572     4510218.00349   3504204.63249  25022768.6114   25022774.8264
 96  7 11  0 17  0.0000000  0  9 23  3 21 17  1  9 31 28 26
  21295986.236     1244020.03749    918714.23049  21295986.4114   21295990.8274
  21459643.418    -2292751.97649  -1774192.13649  21459643.9494   21459648.9644
  20978718.191    -2455715.75449  -1903928.53349  20978718.6594   20978723.6314
  21779774.968     2351328.22849   1825329.88049  21779775.9584   21779781.4604
  22429579.546    -6017861.88749  -4670510.57849  22429580.0364   22429586.5004
  24228499.064    -3340406.34849  -2591308.39349  24228501.0964   24228504.7494
  23366106.553    -5045196.81549  -3913732.51849  23366106.7804   23366112.6534
  21237436.072     1640565.338 9   1275651.009 9  21237436.317    21237440.943
  25039737.003     4599396.31249   3573694.18449  25039737.9804   25039744.2654
 96  7 11  0 17 30.0000000  0  9 23  3 21 17  1  9 31 28 26
  21301118.750     1270992.81049    939731.97249  21301118.8784   21301123.6074
  21454102.655    -2321867.05949  -1796879.21849  21454103.3444   21454108.5114
  20970923.132    -2496679.02749  -1935847.95149  20970923.4994   20970928.5384
  21789349.029     2401636.60449   1864531.19149  21789349.6334   21789355.3014
  22408917.491    -6126435.90049  -4755113.64749  22408919.3304   22408925.7114
  24217928.229    -3395981.21149  -2634613.44949  24217924.5534   24217930.3584
  23349352.692    -5133236.99449  -3982335.23349  23349353.7924   23349358.5474
  21245701.388     1683999.365 9   1309495.682 9  21245701.490    21245706.191
  25056732.343     4688701.33149   3643282.46449  25056733.5324   25056738.4114
 96  7 11  0 18  0.0000000  0  8 23  3 21 17  1  9 31 28
  21306275.907     1298092.91949    960848.93249  21306276.2014   21306280.7494
  21448671.050    -2350410.19549  -1819120.62749  21448671.7374   21448677.0794
  20963163.387    -2537456.77149  -1967622.80249  20963163.6004   20963169.0744
  21798974.951     2452221.32649   1903947.83949  21798975.8494   21798981.3224
  22388304.425    -6234767.79249  -4839528.05949  22388304.3814   22388310.2784
  24207420.964    -3451190.12549  -2677633.32849  24207418.8514   24207424.0924
  23332664.912    -5220934.76049  -4050671.14249  23332665.4874   23332670.3624
  21254054.665     1727894.909 9   1343699.979 9  21254054.735    21254059.210
 96  7 11  0 18 30.0000000  0  8 23  3 21 17  1  9 31 28
  21311459.291     1325333.74549    982075.55149  21311459.9974   21311464.5194
  21443346.834    -2378387.44749  -1840921.08349  21443347.9274   21443353.3924
  20955439.724    -2578044.09349  -1999249.27649  20955440.3334   20955445.3324
  21808654.006     2503083.44849   1943580.64649  21808654.3264   21808659.8634
  22367736.457    -6342855.07449  -4923751.86149  22367736.0184   22367742.1904
  24196981.384    -3506032.29249  -2720367.45349  24196982.4674   24196987.8714
  23316044.702    -5308276.01049  -4118729.24049  23316044.7074   23316050.3354
  21262495.829     1772253.150 9   1378264.822 9  21262495.813    21262500.433
 96  7 11  0 19  0.0000000  0  8 23  3 21 17  1  9 31 28
  21316674.014     1352736.00849   1003427.95649  21316674.5364   21316679.1904
  21438130.456    -2405800.06449  -1862281.57149  21438131.4564   21438136.8784
  20947754.486    -2618430.98249  -2030719.57249  20947754.6524   20947760.0414
  21818386.556     2554226.61749   1983432.44049  21818386.5334   21818392.4394
  22347214.686    -6450693.41249  -5007781.68949  22347214.8954   22347221.2824
  24186612.206    -3560528.70949  -2762832.14649  24186612.9204   24186618.1464
  23299496.041    -5395241.70049  -4186494.69549  23299495.9884   23299500.6004
  21271025.472     1817075.777 9   1413191.518 9  21271025.235    21271029.886
 96  7 11  0 19 30.0000000  0  8 23  3 21 17  1  9 31 28
  21321923.324     1380318.97449   1024921.16949  21321923.3334   21321928.0964
  21433021.085    -2432652.60249  -1883205.63049  21433021.6424   21433026.8244
  20940109.168    -2658607.84249  -2062026.20449  20940109.2784   20940114.4664
  21828172.234     2605652.03349   2023504.17449  21828173.0254   21828178.1464
  22326742.487    -6558279.18249  -5091614.71149  22326742.1434   22326748.2184
  24176310.408    -3614675.78549  -2805024.64549  24176308.5134   24176313.3484
  23283020.252    -5481816.22549  -4253955.34749  23283021.5054   23283027.7044
  21279643.612     1862367.096 9   1448483.431 9  21279643.927    21279648.592
 96  7 11  0 20  0.0000000  0  8 23  3 21 17  1  9 31 28
  21327203.849     1408066.61349   1046542.69949  21327203.6814   21327208.0034
  21428014.073    -2458962.24549  -1903706.65949  21428015.0064   21428020.4704
  20932505.042    -2698570.22849  -2093165.71149  20932505.1514   20932509.7754
  21838008.139     2657341.91949   2063781.98749  21838008.8564   21838014.6834
  22306319.298    -6665602.77649  -5175243.41649  22306319.0594   22306324.9694
  24166073.525    -3668466.39949  -2846939.36849  24166072.2504   24166076.3094
  23266618.895    -5568004.05749  -4321114.66049  23266619.6394   23266626.2204
  21288351.146     1908122.672 9   1484137.106 9  21288351.066    21288355.490
 96  7 11  0 20 30.0000000  0  8 23  3 21 17  1  9 31 28
  21332515.886     1435982.52949   1068295.35449  21332515.7364   21332520.1054
  21423112.482    -2484721.56049  -1923778.86249  21423113.2384   21423118.2594
  20924946.793    -2738286.37149  -2124113.34549  20924947.2514   20924951.8964
  21847895.798     2709301.12949   2104269.66249  21847896.7444   21847901.9524
  22285950.610    -6772640.73449  -5258649.56349  22285950.7804   22285955.8604
  24155905.871    -3721876.64949  -2888557.71749  24155907.8164   24155913.5744
  23250294.038    -5653794.37349  -4387964.24049  23250295.1914   23250300.0604
  21297149.302     1954359.965 9   1520166.141 9  21297149.703    21297154.163
 96  7 11  0 21  0.0000000  0  8 23  3 21 17  1  9 31 28
  21337859.737     1464067.07749   1090179.41249  21337859.9284   21337864.6984
  21418319.456    -2509909.84149  -1943406.09849  21418320.2084   21418324.9854
  20917438.898    -2777741.88849  -2154857.89649  20917438.9004   20917443.8304
  21857836.579     2761545.68349   2144979.68149  21857838.2684   21857843.6914
  22265637.735    -6879382.13249  -5341824.61949  22265638.0594   22265644.2644
  24145827.894    -3774881.52049  -2929860.15749  24145822.1574   24145827.4254
  23234045.732    -5739184.01549  -4454501.60949  23234046.8454   23234049.8874
  21306041.729     2001091.063 9   1556579.962 9  21306042.309    21306046.805
 96  7 11  0 21 30.0000000  0  8 23  3 21 17  1  9 31 28
  21343237.871     1492328.80949   1112201.53349  21343238.2584   21343242.6684
  21413639.949    -2534501.81049  -1962568.67549  21413640.4984   21413645.4884
  20909983.210    -2816920.31049  -2185386.52149  20909983.7754   20909988.3684
  21867839.272     2814099.24349   2185930.48249  21867839.1784   21867844.2054
  22245384.489    -6985811.86249  -5424756.81049  22245385.3434   22245391.2234
  24135820.460    -3827441.52749  -2970815.97049  24135819.0854   24135824.5444
  23217876.945    -5824153.04049  -4520711.20649  23217876.8204   23217882.4324
  21315031.828     2048333.077 9   1593391.899 9  21315032.152    21315036.731
 96  7 11  0 22  0.0000000  0  8 23  3 21 17  1  9 31 28
  21348651.437     1520778.58849   1134370.18649  21348652.0034   21348656.4814
  21409079.199    -2558463.07949  -1981239.80249  21409080.5864   21409085.6924
  20902582.235    -2855812.74949  -2215692.30649  20902582.7204   20902587.2874
  21877899.964     2866975.82149   2227132.98049  21877900.9504   21877906.3904
  22225194.699    -7091914.28649  -5507433.96449  22225194.6714   22225200.7294
  24125904.640    -3879534.16849  -3011407.59849  24125907.7754   24125913.1914
  23201790.625    -5908679.09249  -4586575.64049  23201791.5744   23201797.3164
  21324121.700     2096098.058 9   1630611.341 9  21324121.567    21324126.104
 96  7 11  0 22 30.0000000  0  8 23  3 21 17  1  9 31 28
  21354106.174     1549439.97649   1156703.72549  21354106.1394   21354110.6274
  21404643.994    -2581773.77849  -1999403.99049  21404644.8714   21404650.0884
  20895236.596    -2894416.82149  -2245773.40049  20895236.4844   20895241.1444
  21888024.602     2920178.24049   2268589.37649  21888025.2684   21888030.3964
  22205063.740    -7197698.48449  -5589863.15749  22205064.5174   22205070.4154
  24116079.159    -3931153.02149  -3051630.03749  24116084.7124   24116090.0104
  23185793.011    -5992749.57249  -4652085.08649  23185794.1254   23185800.4464
  21333310.790     2144388.729 9   1668240.407 9  21333311.080    21333315.702
 96  7 11  0 23  0.0000000  0  8 23  3 21 17  1  9 31 28
  21359607.601     1578351.86349   1179232.46549  21359607.6964   21359612.0654
  21400338.907    -2604396.00149  -2017031.70049  21400339.8014   21400345.1394
  20887950.032    -2932707.89049  -2275610.58649  20887950.0014   20887954.5934
  21898215.736     2973736.41449   2310322.99049  21898216.8254   21898222.1684
  22184997.937    -7303143.93649  -5672028.39749  22184998.8984   22185004.6004
  24106353.926    -3982278.19149  -3091467.82049  24106355.5284   24106360.6434
  23169889.592    -6076326.61149  -4717210.03149  23169889.2684   23169895.3944
  21342604.135     2193225.029 9   1706294.647 9  21342604.266    21342608.657
 96  7 11  0 23 30.0000000  0  8 23  3 21 17  1  9 31 28
  21365157.887     1607519.17249   1201960.22849  21365157.8114   21365162.5414
  21396166.444    -2626319.80249  -2034115.19649  21396167.5894   21396172.9154
  20880722.363    -2970685.58449  -2305203.58949  20880723.0164   20880727.9414
  21908474.755     3027640.87749   2352326.44449  21908474.6174   21908480.0134
  22164997.049    -7408250.32549  -5753929.42849  22164997.8034   22165003.6684
  24096720.211    -4032908.51849  -3130919.96849  24096720.7264   24096726.5754
  23154080.700    -6159396.56849  -4781939.84249  23154082.4884   23154086.9994
  21352000.448     2242604.373 9   1744772.029 9  21352000.730    21352005.199
 96  7 11  0 24  0.0000000  0  8 23  3 21 17  1  9 31 28
  21370759.691     1636954.48149   1224896.82849  21370759.7484   21370764.1044
  21392130.126    -2647531.76349  -2050644.00649  21392131.4064   21392136.2864
  20873559.014    -3008328.20149  -2334535.48749  20873559.9164   20873564.9004
  21918797.098     3081892.98549   2394600.78249  21918797.9084   21918804.1524
  22145065.016    -7512996.07949  -5835549.44049  22145065.0344   22145070.8944
  24087183.631    -4083036.92149  -3169981.04249  24087182.8884   24087186.6444
  23138373.491    -6241940.43249  -4846259.71449  23138374.5084   23138379.2614
  21361502.460     2292537.294 9   1783680.781 9  21361502.851    21361507.249
 96  7 11  0 24 30.0000000  0  8 23  3 21 17  1  9 31 28
  21376414.147     1666676.30749   1248056.68349  21376415.2154   21376419.7794
  21388230.437    -2668025.55949  -2066613.20749  21388231.4764   21388236.8474
  20866465.830    -3045603.35449  -2363581.04149  20866466.5714   20866471.6914
  21929194.558     3136528.85749   2437174.16049  21929195.0604   21929201.3314
  22125206.445    -7617351.72649  -5916865.47849  22125206.7444   22125212.7064
  24077739.870    -4132656.18749  -3208645.38049  24077739.3484   24077744.6874
  23122773.139    -6323922.55149  -4910141.87449  23122773.3654   23122779.2784
  21371114.199     2343046.009 9   1823038.190 9  21371114.293    21371119.004
 96  7 11  0 25  0.0000000  0  8 23  3 21 17  1  9 31 28
  21382121.914     1696669.27249   1271427.81649  21382122.8114   21382127.2554
  21384466.859    -2687805.95749  -2082026.51249  21384467.5594   21384472.5004
  20859443.866    -3082503.25249  -2392334.19149  20859444.6284   20859449.7854
  21939667.312     3191564.13349   2480058.76749  21939668.1124   21939674.2424
  22105428.354    -7721286.09049  -5997853.24349  22105428.9974   22105434.6844
  24068390.954    -4181768.32649  -3246914.56549  24068394.2954   24068399.7434
  23107279.706    -6405340.32249  -4973584.29149  23107280.5704   23107284.9244
  21380836.756     2394136.850 9   1862849.204 9  21380836.649    21380841.085
 96  7 11  0 25 30.0000000  0  8 23  3 21 17  1  9 31 28
  21387878.952     1726919.08949   1294999.08949  21387878.8144   21387883.4794
  21380833.978    -2706893.74149  -2096900.11749  21380835.1944   21380840.5014
  20852488.849    -3119053.02249  -2420814.51849  20852489.5234   20852494.4224
  21950215.014     3246988.59049   2523246.63549  21950214.8024   21950220.7354
  22085728.446    -7824805.78849  -6078517.89349  22085729.5244   22085735.6724
  24059142.267    -4230379.43649  -3284793.30049  24059144.0694   24059148.6094
  23091891.024    -6486210.63249  -5036600.11149  23091891.1824   23091897.1474
  21390667.057     2445799.241 9   1903105.584 9  21390667.682    21390672.243
 96  7 11  0 26  0.0000000  0  8 23  3 21 17  1  9 31 28
  21393689.660     1757458.64749   1318796.13949  21393690.5774   21393694.9474
  21377335.943    -2725276.42849  -2111224.29449  21377337.3544   21377342.3454
  20845605.536    -3155226.73149  -2449001.81149  20845605.6694   20845610.7764
  21960841.723     3302836.15249   2566764.18849  21960842.4394   21960848.6324
  22066117.386    -7927868.76549  -6158826.65649  22066117.3784   22066123.2744
  24049987.513    -4278463.62349  -3322261.44349  24049992.0644   24049998.6034
  23076611.982    -6566505.38949  -5099167.44249  23076611.8264   23076614.9814
  21400612.186     2498061.892 9   1943829.698 9  21400612.989    21400617.699
 96  7 11  0 26 30.0000000  0  8 23  3 21 17  1  9 31 28
  21399555.036     1788282.32949   1342814.58949  21399555.8864   21399560.3624
  21373970.927    -2742960.87949  -2125004.39649  21373971.8194   21373976.9674
  20838788.888    -3191044.50149  -2476911.74549  20838789.8534   20838794.8464
  21971550.530     3359110.64449   2610614.41249  21971551.1204   21971556.9514
  22046592.717    -8030468.83849  -6238774.72249  22046593.2424   22046599.0984
  24040939.679    -4326018.00649  -3359316.76549  24040944.0014   24040949.7084
  23061435.761    -6646245.00449  -5161302.20049  23061437.5554   23061441.8224
  21410671.625     2550922.269 9   1985019.569 9  21410671.897    21410676.594
 96  7 11  0 27  0.0000000  0  8 23  3 21 17  1  9 31 28
  21405472.568     1819378.45849   1367045.32849  21405473.2824   21405478.0414
  21370737.099    -2759954.27949  -2138246.01049  21370738.1384   21370743.2074
  20832036.873    -3226528.78949  -2504561.82749  20832037.4724   20832042.4844
  21982335.848     3415789.05849   2654779.39049  21982336.8014   21982342.9164
  22027153.184    -8132622.70249  -6318375.09249  22027153.7834   22027159.7534
  24031991.633    -4373039.90549  -3395957.18349  24031996.0944   24032001.1074
  23046362.730    -6725458.70349  -5223027.14449  23046363.7914   23046368.8054
  21420840.845     2604366.564 9   2026664.445 9  21420841.928    21420846.673
 96  7 11  0 27 30.0000000  0  8 23  3 21 17  1  9 31 28
  21411444.493     1850754.47449   1391494.16749  21411444.0474   21411448.8434
  21367633.425    -2776263.42849  -2150954.44549  21367634.4704   21367639.8414
  20825346.906    -3261686.09649  -2531957.12649  20825347.2884   20825352.3144
  21993196.449     3472864.61349   2699253.81449  21993198.0394   21993203.5154
  22007795.047    -8234353.72549  -6397645.96749  22007795.1584   22007801.1364
  24023146.336    -4419530.41349  -3432183.51649  24023149.3564   24023154.2774
  23031389.462    -6804143.35649  -5284339.84949  23031390.7404   23031395.6524
  21431120.648     2658383.840 9   2068755.798 9  21431121.110    21431125.887
 96  7 11  0 28  0.0000000  0  8 23  3 21 17  1  9 31 28
  21417462.434     1882384.93449   1416141.27249  21417463.1204   21417468.0164
  21364654.651    -2791918.44849  -2163153.16849  21364655.7324   21364660.7424
  20818716.615    -3296526.09849  -2559105.17149  20818717.4744   20818722.2024
  22004132.063     3530321.17249   2744025.13349  22004131.6124   22004137.2964
  21988514.812    -8335670.42149  -6476593.99349  21988515.3244   21988521.4324
  24014388.818    -4465509.52249  -3468011.34049  24014399.1594   24014405.2854
  23016515.301    -6882312.50649  -5345250.86649  23016515.6134   23016520.0064
  21441503.940     2712947.922 9   2111273.230 9  21441504.315    21441509.144
 96  7 11  0 28 30.0000000  0  8 23  3 21 17  1  9 31 28
  21423531.843     1914279.48149   1440994.15749  21423532.4324   21423537.1554
  21361804.904    -2806892.48149  -2174821.25449  21361806.3764   21361811.2574
  20812151.445    -3331026.11449  -2585988.29149  20812152.3244   20812157.2514
  22015141.878     3588183.63649   2789112.74349  22015142.4644   22015148.4124
  21969315.357    -8436564.65649  -6555212.83249  21969315.6984   21969321.8114
  24005746.133    -4510955.26049  -3503423.59349  24005750.7994   24005757.2414
  23001743.318    -6959937.36449  -5405737.75849  23001743.9794   23001749.0554
  21451994.223     2768072.047 9   2154227.059 9  21451994.181    21451998.805
 96  7 11  0 29  0.0000000  0  8 23  3 21 17  1  9 31 28
  21429651.734     1946434.62349   1466050.11249  21429651.6114   21429655.8644
  21359083.100    -2821196.37249  -2185967.14649  21359084.5344   21359089.3294
  20805653.842    -3365175.32249  -2612598.04549  20805653.6704   20805659.1164
  22026226.774     3646436.98749   2834504.94249  22026227.3674   22026233.0434
  21950190.197    -8537064.38949  -6633524.26749  21950191.0524   21950197.0894
  23997204.428    -4555871.77449  -3538423.43949  23997204.1684   23997209.6454
  22987077.680    -7037006.79649  -5465791.84949  22987078.3074   22987083.7634
  21462586.615     2823737.657 9   2197602.829 9  21462586.928    21462591.815
 96  7 11  0 29 30.0000000  0  8 23  3 21 17  1  9 31 28
  21435820.705     1978855.01549   1491312.74549  21435821.2514   21435825.3484
  21356491.190    -2834817.63549  -2196581.12449  21356492.2294   21356497.1694
  20799222.398    -3398966.51349  -2638928.83249  20799223.4514   20799228.8964
  22037388.886     3705092.89649   2880210.81149  22037389.3244   22037394.8984
  21931146.358    -8637143.99249  -6711508.32949  21931146.7164   21931152.3724
  23988767.930    -4600236.90949  -3572993.66149  23988762.0824   23988767.0864
  22972520.288    -7113506.06549  -5525401.65149  22972521.4304   22972525.3694
  21473282.481     2879945.990 9   2241401.495 9  21473283.078    21473287.905
 96  7 11  0 30  0.0000000  0  8 23  3 21 17  1  9 31 28
  21442038.125     2011528.69249   1516772.75349  21442038.5154   21442043.0534
  21354033.698    -2847730.53349  -2206643.13549  21354034.7724   21354040.0694
  20792860.790    -3432399.65149  -2664980.61749  20792861.3764   20792866.7294
  22048627.569     3764151.80849   2926230.71249  22048628.0424   22048633.8674
  21912185.105    -8736787.56849  -6789152.63249  21912185.1284   21912191.2424
  23980424.168    -4644038.08349  -3607124.40449  23980427.1514   23980433.8574
  22958071.028    -7189437.12049  -5584568.69749  22958071.8524   22958076.5824
  21484081.940     2936695.283 9   2285621.694 9  21484082.186    21484086.731
 96  7 11  0 30 30.0000000  0  8 23  3 21 17  1  9 31 28
  21448300.727     2044438.74849   1542416.94649  21448301.1974   21448305.1424
  21351713.480    -2859925.59249  -2216145.78649  21351714.2364   21351719.3854
  20786565.587    -3465482.93149  -2690759.78649  20786566.1574   20786571.3974
  22059938.876     3823593.15649   2972548.62149  22059939.6154   22059945.2044
  21893302.403    -8836012.70449  -6866470.86649  21893303.1344   21893308.9424
  23972195.462    -4687279.57549  -3640819.05649  23972197.8064   23972204.6264
  22943727.385    -7264811.48549  -5643301.95249  22943728.2144   22943733.0494
  21494981.253     2993973.319 9   2330253.902 9  21494981.819    21494986.554
 96  7 11  0 31  0.0000000  0  8 23  3 21 17  1  9 31 28
  21454607.042     2077578.42149   1568240.06049  21454607.5464   21454611.6254
  21349530.459    -2871397.17549  -2225084.69449  21349531.3714   21349536.3534
  20780334.814    -3498223.85649  -2716272.17649  20780335.3674   20780340.7564
  22071320.812     3883403.16049   3019153.79449  22071320.8554   22071326.5324
  21874503.435    -8934802.96549  -6943450.24149  21874504.1024   21874509.5964
  23964074.357    -4729963.42749  -3674079.18049  23964075.2184   23964081.3104
  22929488.844    -7339640.99249  -5701610.65149  22929488.8584   22929492.8694
  21505980.659     3051776.991 9   2375295.692 9  21505981.491    21505986.213
 96  7 11  0 31 30.0000000  0  8 23  3 21 17  1  9 31 28
  21460952.823     2110928.27549   1594226.95549  21460953.6014   21460957.8654
  21347484.146    -2882148.66349  -2233462.48549  21347485.3714   21347490.7994
  20774166.900    -3530635.17749  -2741527.73349  20774167.7504   20774173.0944
  22082771.927     3943579.21149   3066044.19449  22082772.1814   22082777.6954
  21855788.228    -9033149.29249  -7020083.70149  21855788.9304   21855795.0534
  23956056.616    -4772104.86549  -3706916.63249  23956055.3594   23956061.2744
  22915351.449    -7413931.07949  -5759499.01249  22915351.6774   22915356.9724
  21517080.089     3110103.264 9   2420744.703 9  21517080.832    21517085.439
 96  7 11  0 32  0.0000000  0  8 23  3 21 17  1  9 31 28
  21467335.904     2144469.95849   1620363.32349  21467336.3144   21467340.9474
  21345568.021    -2892217.24249  -2241308.14349  21345569.2834   21345574.3304
  20768059.803    -3562730.50749  -2766537.06149  20768060.2384   20768065.7054
  22094284.249     4004081.96649   3113189.16649  22094285.1604   22094290.8134
  21837150.364    -9131092.65549  -7096403.15949  21837150.8634   21837156.7164
  23948133.760    -4813752.61349  -3739369.42149  23948130.9904   23948136.0574
  22901313.684    -7487697.26449  -5816979.13449  22901315.3324   22901319.6824
  21528274.927     3168929.251 9   2466583.104 9  21528274.940    21528279.668
 96  7 11  0 32 30.0000000  0  8 23  3 21 17  1  9 31 28
  21473755.547     2178206.46649   1646651.50149  21473756.1554   21473760.8374
  21343773.833    -2901649.31849  -2248657.81749  21343774.6164   21343779.6314
  20762008.958    -3594528.34249  -2791314.58749  20762009.4254   20762014.6164
  22105856.092     4064885.44349   3160568.46749  22105855.8974   22105861.7694
  21818586.149    -9228647.03949  -7172419.51549  21818587.1524   21818593.1824
  23940294.433    -4854934.71249  -3771459.33949  23940293.5554   23940300.2174
  22887372.703    -7560956.07249  -5874063.91149  22887373.6904   22887378.5024
  21539561.675     3228243.144 9   2512801.692 9  21539562.048    21539566.463
 96  7 11  0 33  0.0000000  0  8 23  3 21 17  1  9 31 28
  21480214.670     2212146.68149   1673098.41749  21480214.8764   21480219.6734
  21342095.683    -2910465.13249  -2255527.28649  21342096.9854   21342101.9204
  20756012.188    -3626039.61649  -2815868.81049  20756013.0524   20756018.0434
  22117482.235     4125989.30449   3208181.83149  22117483.7354   22117489.1124
  21800097.008    -9325811.68149  -7248132.17549  21800097.0914   21800102.9604
  23932537.319    -4895664.23149  -3803196.58849  23932544.0294   23932549.3314
  22873527.681    -7633709.72649  -5930755.05849  22873529.3854   22873533.5964
  21550940.558     3288040.421 9   2559396.942 9  21550941.186    21550945.645
 96  7 11  0 33 30.0000000  0  8 23  3 21 17  1  9 31 28
  21486718.176     2246321.96649   1699728.50249  21486718.2714   21486722.7174
  21340537.963    -2918651.15249  -2261906.01049  21340539.1584   21340544.2724
  20750072.709    -3657252.20349  -2840190.30349  20750073.3734   20750078.2464
  22129171.053     4187406.51849   3256039.36549  22129171.2124   22129176.3724
  21781681.025    -9422584.33149  -7323539.38749  21781681.9174   21781687.2734
  23924880.286    -4935921.06549  -3834565.51049  23924883.0464   23924888.2014
  22859785.752    -7705933.89549  -5987033.60249  22859785.6974   22859790.6004
  21562414.444     3348335.586 9   2606380.152 9  21562415.030    21562419.538
 96  7 11  0 34  0.0000000  0  8 23  3 21 17  1  9 31 28
  21493270.163     2280754.78049   1726559.26249  21493270.5004   21493275.0694
  21339102.378    -2926194.44549  -2267783.91349  21339103.7704   21339108.4914
  20744189.004    -3688171.01049  -2864282.87649  20744189.4164   20744194.7224
  22140917.844     4249145.64049   3304147.73749  22140919.7934   22140924.7174
  21763344.210    -9518949.26249  -7398628.90549  21763344.2034   21763349.6054
  23917317.667    -4975677.43549  -3865544.49249  23917317.9394   23917323.0574
  22846143.951    -7777615.67549  -6042889.52249  22846144.7144   22846149.9414
  21573983.994     3409135.752 9   2653756.869 9  21573984.901    21573989.458
 96  7 11  0 34 30.0000000  0  8 23  3 21 17  1  9 31 28
  21499868.291     2315429.66049   1753578.63749  21499868.9424   21499873.4774
  21337791.340    -2933087.91949  -2273155.46149  21337792.4404   21337796.5104
  20738357.500    -3718818.24549  -2888163.82949  20738357.6094   20738362.6494
  22152730.638     4311214.49349   3352513.04449  22152731.3944   22152736.3074
  21745083.629    -9614907.19849  -7473401.28149  21745084.3664   21745089.6874
  23909850.838    -5014918.88549  -3896122.21349  23909851.1004   23909855.1204
  22832605.828    -7848756.74849  -6098324.09749  22832606.9454   22832612.0394
  21585647.669     3470426.957 9   2701516.209 9  21585648.153    21585652.803
 96  7 11  0 35  0.0000000  0  8 23  3 21 17  1  9 31 28
  21506510.731     2350335.06349   1780777.64749  21506510.9814   21506515.9804
  21336607.359    -2939308.02949  -2278002.30549  21336608.4884   21336613.1704
  20732577.689    -3749191.25849  -2911831.09949  20732577.8094   20732583.0244
  22164608.052     4373635.91749   3401153.08149  22164609.4744   22164614.9904
  21726901.509    -9710454.15149  -7547853.40149  21726902.2704   21726907.6264
  23902481.127    -5053611.19749  -3926272.03549  23902486.2834   23902492.5334
  22819176.090    -7919337.01849  -6153321.70849  22819176.1964   22819180.6664
  21597404.245     3532207.479 9   2749656.841 9  21597404.680    21597409.466
 96  7 11  0 35 30.0000000  0  8 23  3 21 17  1  9 31 28
  21513197.806     2385474.81149   1808159.26049  21513198.0644   21513202.9774
  21335554.205    -2944840.83649  -2282313.59549  21335555.4884   21335560.5674
  20726850.995    -3779282.20649  -2935278.58549  20726851.8564   20726857.0544
  22176557.991     4436428.59649   3450082.41049  22176558.4254   22176564.3664
  21708800.310    -9805572.66049  -7621971.67549  21708801.6114   21708806.9854
  23895232.017    -5091718.26449  -3955965.82449  23895234.5664   23895239.8204
  22805852.215    -7989349.49849  -6207876.88449  22805852.9884   22805858.0714
  21609255.590     3594483.286 9   2798183.405 9  21609255.359    21609260.059
 96  7 11  0 36  0.0000000  0  8 23  3 21 17  1  9 31 28
  21519925.539     2420829.31849   1835708.22149  21519925.8594   21519930.7504
  21334626.195    -2949715.54249  -2286112.08249  21334627.9034   21334632.7374
  20721180.997    -3809080.38249  -2958497.92849  20721181.5504   20721186.2974
  22188580.885     4499605.46749   3499311.11049  22188580.3994   22188586.0164
  21690784.446    -9900255.34149  -7695750.33849  21690784.0384   21690789.4824
  23888086.629    -5129249.83849  -3985211.18649  23888092.8144   23888098.8674
  22792636.412    -8058805.41849  -6261998.36149  22792636.1824   22792641.2264
  21621198.502     3657242.765 9   2847086.862 9  21621198.149    21621202.961
 96  7 11  0 36 30.0000000  0  8 23  3 21 17  1  9 31 28
  21526690.588     2456381.13549   1863410.92449  21526691.2054   21526695.8134
  21333821.223    -2953949.04149  -2289410.92749  21333822.4484   21333827.2744
  20715568.637    -3838569.97649  -2981476.82149  20715569.4954   20715574.7194
  22200673.860     4563161.83649   3548835.52049  22200675.0394   22200680.8354
  21672848.097    -9994507.25849  -7769193.34749  21672848.5564   21672853.5084
  23881045.787    -5166229.51449  -4014026.49049  23881056.2354   23881061.1734
  22779521.447    -8127722.97749  -6315700.35049  22779522.5334   22779526.3034
  21633230.684     3720474.653 9   2896358.425 9  21633230.659    21633235.510
 96  7 11  0 37  0.0000000  0  8 23  3 21 17  1  9 31 28
  21533495.589     2492140.83249   1891275.61049  21533495.7114   21533501.1514
  21333137.966    -2957542.11549  -2292210.73549  21333138.5224   21333143.8284
  20710019.507    -3867733.58849  -3004201.70349  20710019.9624   20710024.9854
  22212839.593     4627088.49349   3598648.47349  22212840.0894   22212845.3114
  21654997.204   -10088311.71349  -7842287.68949  21654998.0924   21655003.3984
  23874119.314    -5202664.70849  -4042417.53649  23874122.8134   23874128.3544
  22766507.119    -8196114.22549  -6368992.21849  22766507.2354   22766512.3294
  21645354.199     3784183.515 9   2946001.661 9  21645354.140    21645359.052
 96  7 11  0 37 30.0000000  0  8 23  3 21 17  1  9 31 28
  21540341.721     2528118.51349   1919310.15749  21540342.2354   21540346.9684
  21332573.534    -2960504.13849  -2294518.81749  21332575.1514   21332580.0924
  20704536.086    -3896551.93149  -3026657.54649  20704536.4874   20704540.9294
  22225071.028     4691368.99749   3648737.14449  22225071.9004   22225077.6514
  21637233.025   -10181663.53249  -7915029.32749  21637233.7614   21637238.8794
  23867285.888    -5238582.83649  -4070405.65549  23867287.5274   23867293.3064
  22753591.492    -8263986.04249  -6421879.34949  22753591.4834   22753596.8194
  21657567.706     3848369.535 9   2996016.709 9  21657568.321    21657573.224
 96  7 11  0 38  0.0000000  0  8 23  3 21 17  1  9 31 28
  21547229.290     2564311.39449   1947512.39349  21547229.8044   21547234.1414
  21332131.083    -2962831.12549  -2296332.06249  21332132.2914   21332137.1474
  20699119.918    -3925010.32049  -3048832.91649  20699120.6804   20699125.4524
  22237366.380     4755976.65749   3699080.74449  22237366.4714   22237371.8434
  21619554.353   -10274570.35249  -7987424.21849  21619554.3534   21619559.3684
  23860542.682    -5274010.94149  -4098011.92449  23860545.7394   23860552.4284
  22740776.765    -8331323.16549  -6474349.82849  22740777.7044   22740782.7604
  21669872.643     3913033.242 9   3046403.978 9  21669873.354    21669878.259
 96  7 11  0 38 30.0000000  0  8 23  3 21 17  1  9 31 28
  21554157.837     2600723.14349   1975885.18449  21554158.2714   21554163.3014
  21331812.637    -2964503.97849  -2297635.59549  21331813.9744   21331818.8164
  20693769.537    -3953128.45649  -3070743.14949  20693769.9764   20693774.7724
  22249715.849     4820876.68849   3749652.17049  22249716.9784   22249722.3544
  21601956.677   -10367039.18249  -8059477.81049  21601957.8834   21601962.9854
  23853901.695    -5308944.64149  -4125232.96249  23853898.8984   23853904.9084
  22728066.353    -8398119.55249  -6526398.95649  22728066.6364   22728072.2934
  21682267.783     3978170.087 9   3097159.926 9  21682268.377    21682273.562
 96  7 11  0 39  0.0000000  0  8 23  3 21 17  1  9 31 28
  21561127.296     2637346.48949   2004422.84449  21561127.3364   21561132.3374
  21331620.232    -2965517.08249  -2298425.04149  21331621.4164   21331626.3444
  20688480.737    -3980919.40549  -3092398.43349  20688481.6364   20688486.1794
  22262119.007     4886063.37749   3800446.96349  22262121.0244   22262127.1604
  21584442.148   -10459081.03149  -8131198.69549  21584442.5384   21584448.1364
  23847349.573    -5343372.11549  -4152059.56249  23847348.0704   23847352.8494
  22715459.694    -8464369.35449  -6578022.16849  22715459.8424   22715464.4754
  21694752.246     4043772.449 9   3148278.606 9  21694752.279    21694757.120
 96  7 11  0 39 30.0000000  0  8 23  3 21 17  1  9 31 28
  21568131.818     2674155.58749   2033105.25549  21568132.2544   21568136.8744
  21331550.023    -2965884.53749  -2298711.38549  21331551.4514   21331556.2744
  20683252.271    -4008395.78949  -3113808.60049  20683253.0294   20683257.8274
  22274579.631     4951536.99049   3851465.33149  22274580.4434   22274586.1254
  21567003.601   -10550724.21849  -8202608.92849  21567003.6574   21567009.1844
  23840887.508    -5377295.37649  -4178493.24549  23840892.2014   23840897.2414
  22702958.060    -8530065.62249  -6629214.05849  22702958.3694   22702962.9754
  21707320.984     4109823.386 9   3199746.837 9  21707321.538    21707326.157
 96  7 11  0 40  0.0000000  0  8 23  3 21 17  1  9 31 28
  21575170.844     2711145.39649   2061928.47249  21575171.3254   21575175.5404
  21331607.747    -2965582.33649  -2298475.91449  21331608.5134   21331613.7194
  20678081.996    -4035565.77749  -3134980.01149  20678082.4464   20678087.5264
  22287096.104     5017316.87749   3902722.34549  22287097.1744   22287103.6294
  21549639.911   -10641972.53849  -8273711.46949  21549639.5754   21549645.1534
  23834534.824    -5410690.70349  -4204515.56749  23834536.9044   23834542.2434
  22690562.847    -8595200.50049  -6679968.50549  22690563.5394   22690568.6514
  21719975.520     4176323.160 9   3251564.808 9  21719976.140    21719980.750
 96  7 11  0 40 30.0000000  0  8 23  3 21 17  1  9 31 28
  21582242.704     2748309.55449   2090887.53549  21582243.3454   21582247.4604
  21331794.159    -2964601.31049  -2297711.49349  21331795.3724   21331800.4254
  20672968.525    -4062437.35749  -3155918.89649  20672968.9034   20672973.8384
  22299678.417     5083436.19649   3954243.85549  22299680.0394   22299685.8574
  21532351.494   -10732818.51249  -8344500.49349  21532352.2274   21532357.3944
  23828292.301    -5443535.26049  -4230108.71949  23828286.8184   23828292.6154
  22678273.493    -8659778.69049  -6730289.16249  22678274.7404   22678279.3574
  21732714.902     4243267.648 9   3303729.314 9  21732715.176    21732719.915
 96  7 11  0 41  0.0000000  0  8 23  3 21 17  1  9 31 28
  21589344.620     2785628.82249   2119967.47949  21589345.0264   21589349.2264
  21332108.104    -2962953.65349  -2296427.62049  21332108.8814   21332114.2324
  20667910.014    -4089020.91249  -3176633.35049  20667910.4044   20667915.2034
  22312329.759     5149913.92349   4006044.65749  22312330.4074   22312336.4284
  21515139.053   -10823275.37749  -8414986.32549  21515139.1614   21515144.0244
  23822142.185    -5475836.45849  -4255278.45349  23822140.2794   23822145.4194
  22666090.573    -8723806.60449  -6780181.03149  22666090.5584   22666095.3494
  21745536.817     4310647.033 9   3356232.695 9  21745537.242    21745541.815
 96  7 11  0 41 30.0000000  0  8 23  3 21 17  1  9 31 28
  21596477.650     2823113.20649   2149176.09049  21596477.8254   21596482.2994
  21332546.955    -2960646.11649  -2294629.55049  21332548.0774   21332552.9974
  20662902.189    -4115336.33449  -3197138.86849  20662903.0294   20662907.2154
  22325046.171     5216740.00949   4058116.90749  22325046.8624   22325052.3954
  21497999.060   -10913341.87949  -8485167.97049  21497999.8304   21498005.1614
  23816098.052    -5507599.85049  -4280029.12649  23816096.1564   23816101.1804
  22654010.389    -8787284.84349  -6829644.57849  22654010.9704   22654015.6204
  21758440.608     4378460.183 9   3409074.079 9  21758441.607    21758446.181
 96  7 11  0 42  0.0000000  0  8 23  3 21 17  1  9 31 28
  21603644.903     2860776.45449   2178524.06449  21603645.0874   21603649.4594
  21333111.707    -2957677.68649  -2292316.49749  21333112.8734   21333118.0674
  20657942.510    -4141400.18549  -3217448.35349  20657942.8994   20657947.5334
  22337829.490     5283913.47349   4110459.84249  22337829.4974   22337835.6894
  21480938.969   -11002993.03749  -8555025.97049  21480939.8604   21480945.0104
  23810154.723    -5538832.90549  -4304366.55449  23810151.9374   23810158.0374
  22642035.034    -8850215.48949  -6878681.42849  22642035.9514   22642041.2754
  21771428.268     4446708.344 9   3462254.434 9  21771428.712    21771433.515
 96  7 11  0 42 30.0000000  0  8 23  3 21 17  1  9 31 28
  21610846.916     2898628.57049   2208019.20849  21610848.0464   21610852.6944
  21333798.109    -2954072.38149  -2289507.18649  21333798.9304   21333803.9954
  20653029.260    -4167216.98349  -3237565.33549  20653030.0714   20653034.7654
  22350677.830     5351428.80349   4163069.15749  22350677.4334   22350683.3524
  21463961.366   -11092209.74049  -8624545.43849  21463962.4754   21463967.7354
  23804311.812    -5569535.49549  -4328290.63549  23804309.4514   23804314.3914
  22630167.363    -8912584.79049  -6927280.87249  22630167.4904   22630172.5004
  21784499.647     4515396.808 9   3515777.875 9  21784499.602    21784504.522
 96  7 11  0 43  0.0000000  0  8 23  3 21 17  1  9 31 28
  21618087.478     2936671.20049   2237662.81149  21618087.1834   21618091.7264
  21334597.713    -2949869.62149  -2286232.32249  21334598.7724   21334603.7604
  20648158.714    -4192812.47649  -3257509.86249  20648159.6314   20648164.0144
  22363581.373     5419240.68149   4215909.55349  22363581.1694   22363587.7024
  21447063.633   -11181008.85449  -8693739.51149  21447064.4764   21447069.8084
  23798567.705    -5599730.77349  -4351819.40349  23798563.4214   23798568.7184
  22618401.697    -8974410.44249  -6975456.69049  22618402.1514   22618407.4924
  21797649.888     4584504.195 9   3569627.750 9  21797650.345    21797655.298
 96  7 11  0 43 30.0000000  0  8 23  3 21 17  1  9 31 28
  21625368.134     2974934.15049   2267478.09549  21625368.6494   21625373.3774
  21335512.112    -2945064.24449  -2282487.88549  21335513.2004   21335518.3204
  20643336.194    -4218155.84549  -3277257.93649  20643336.7074   20643341.3394
  22376541.810     5487352.91049   4268983.98549  22376542.5614   22376549.0304
  21430252.004   -11269359.19349  -8762583.89149  21430252.0684   21430257.1914
  23792911.729    -5629402.85649  -4374940.49149  23792916.4184   23792922.4904
  22606743.474    -9035677.60749  -7023197.32549  22606743.3194   22606748.7734
  21810882.083     4654041.421 9   3623812.558 9  21810882.686    21810887.665
 96  7 11  0 44  0.0000000  0  8 23  3 21 17  1  9 31 28
  21632688.504     3013400.99849   2297452.24949  21632688.5114   21632693.5124
  21336539.391    -2939668.03649  -2278283.06549  21336540.0234   21336545.0844
  20638565.665    -4243224.97849  -3296792.32249  20638566.0774   20638570.9944
  22389561.043     5555763.75249   4322291.10049  22389561.2284   22389567.4614
  21413522.925   -11357265.49749  -8831082.26749  21413523.7404   21413529.0784
  23787374.604    -5658550.96949  -4397653.28349  23787369.6584   23787375.1644
  22595192.135    -9096378.68349  -7070496.84449  22595192.6244   22595198.0334
  21824194.455     4723997.933 9   3678324.082 9  21824195.093    21824200.172
 96  7 11  0 44 30.0000000  0  8 23  3 21 17  1  9 31 28
  21640043.966     3052057.07349   2327573.85449  21640044.5104   21640049.2464
  21337674.517    -2933699.45349  -2273632.23549  21337676.0964   21337680.8264
  20633850.296    -4268004.71949  -3316101.21249  20633850.7164   20633855.7234
  22402632.588     5624458.56249   4375819.48749  22402633.1634   22402639.2454
  21396876.693   -11444741.69749  -8899245.49849  21396877.4014   21396882.6294
  23781927.956    -5687157.90649  -4419944.38949  23781926.8664   23781931.4924
  22583748.639    -9156516.86649  -7117357.75249  22583749.0114   22583753.2624
  21837584.163     4794363.678 9   3733154.495 9  21837585.230    21837590.211
 96  7 11  0 45  0.0000000  0  8 23  3 21 17  1  9 31 28
  21647436.286     3090905.22149   2357845.13549  21647436.9744   21647441.9034
  21338925.735    -2927126.41949  -2268510.40849  21338926.8634   21338931.5314
  20629195.756    -4292463.35749  -3335159.88749  20629196.4754   20629201.1794
  22415763.204     5693455.88849   4429583.60249  22415763.1554   22415769.9224
  21380315.380   -11531769.94249  -8967059.67449  21380316.8364   21380322.0374
  23776593.256    -5715193.89049  -4441790.59649  23776592.1624   23776596.1114
  22572412.772    -9216079.65049  -7163770.29049  22572413.5744   22572419.4874
  21851055.115     4865148.388 9   3788311.366 9  21851055.047    21851060.313
 96  7 11  0 45 30.0000000  0  8 23  3 21 17  1  9 31 28
  21654855.620     3129895.66449   2388227.29149  21654856.4404   21654861.2844
  21340289.488    -2919956.97649  -2262923.84249  21340291.3404   21340296.0344
  20624600.178    -4316616.01349  -3353980.13349  20624600.5064   20624605.1294
  22428948.456     5762749.53949   4483578.62249  22428949.4254   22428955.5264
  21363835.649   -11618376.58049  -9034545.33549  21363836.1394   21363841.2084
  23771359.237    -5742675.15849  -4463204.54349  23771362.2074   23771367.5584
  22561183.910    -9275088.73849  -7209751.38949  22561185.1684   22561189.8874
  21864598.994     4936326.618 9   3843774.876 9  21864599.837    21864605.057
 96  7 11  0 46  0.0000000  0  8 23  3 21 17  1  9 31 28
  21662302.583     3169031.03449   2418722.37449  21662303.7234   21662308.5934
  21341773.208    -2912162.49949  -2256850.23549  21341774.5374   21341779.3824
  20620062.778    -4340457.67249  -3372558.04649  20620063.2814   20620067.8124
  22442191.387     5832351.43549   4537813.83549  22442194.0094   22442200.2444
  21347438.014   -11704546.88249  -9101690.99049  21347438.1144   21347443.1044
  23766241.882    -5769585.04449  -4484173.27149  23766241.0294   23766245.7764
  22550064.448    -9333529.11649  -7255289.34249  22550064.5304   22550069.4894
  21878221.892     5007914.025 9   3899557.223 9  21878222.694    21878227.630
 96  7 11  0 46 30.0000000  0  8 23  3 21 17  1  9 31 28
  21669778.922     3208317.02649   2449334.82649  21669779.6394   21669784.3854
  21343376.784    -2903735.90949  -2250284.07849  21343377.7264   21343382.9744
  20615580.884    -4364007.94749  -3390908.89749  20615582.1204   20615587.0494
  22455494.652     5902252.85149   4592282.44449  22455495.7484   22455502.2434
  21331122.080   -11790283.29549  -9168498.54949  21331123.0224   21331128.3264
  23761220.279    -5795949.28649  -4504716.82849  23761224.4894   23761229.9244
  22539047.325    -9391418.84449  -7300398.21149  22539048.3854   22539052.9764
  21891920.795     5079902.931 9   3955652.432 9  21891921.710    21891926.566
 96  7 11  0 47  0.0000000  0  8 23  3 21 17  1  9 31 28
  21677283.912     3247750.49749   2480062.20349  21677283.8844   21677288.3234
  21345101.932    -2894667.25949  -2243217.61449  21345103.3324   21345108.5014
  20611151.253    -4387289.34949  -3409050.24349  20611151.6354   20611156.5274
  22468852.257     5972439.95649   4646973.66749  22468851.5394   22468858.3754
  21314887.371   -11875602.50149  -9234981.01349  21314887.4174   21314892.3774
  23756298.199    -5821812.92349  -4524870.27449  23756302.6854   23756307.4734
  22528132.594    -9448777.19649  -7345093.02949  22528132.9074   22528138.2084
  21905693.916     5152277.464 9   4012048.127 9  21905694.233    21905699.024
 96  7 11  0 47 30.0000000  0  8 23  3 21 17  1  9 31 28
  21684820.560     3287362.21549   2510928.46549  21684821.5014   21684826.0814
  21346951.041    -2884949.63249  -2235645.45349  21346952.4374   21346957.4904
  20606771.549    -4410304.52249  -3426984.14049  20606772.2614   20606777.0664
  22482261.692     6042918.36149   4701891.86749  22482262.9664   22482269.6454
  21298732.658   -11960491.89349  -9301128.55549  21298733.3584   21298738.5314
  23751479.463    -5847184.66749  -4544640.44949  23751474.4264   23751480.0844
  22517319.986    -9505594.92749  -7389366.58649  22517320.5154   22517325.7164
  21919540.727     5225044.566 9   4068749.724 9  21919541.430    21919546.171
 96  7 11  0 48  0.0000000  0  8 23  3 21 17  1  9 31 28
  21692395.419     3327171.99549   2541949.06549  21692396.8764   21692401.6224
  21348922.858    -2874591.24749  -2227574.00249  21348923.7484   21348928.8494
  20602442.947    -4433051.80049  -3444709.28649  20602443.5304   20602448.5104
  22495729.416     6113680.14149   4757030.89149  22495729.0844   22495734.9484
  21282663.989   -12044938.03849  -9366930.71149  21282663.6894   21282668.8914
  23746727.587    -5872076.49449  -4564036.65949  23746738.1144   23746743.0624
  22506611.814    -9561870.28649  -7433217.50449  22506612.0354   22506616.9414
  21933461.308     5298198.989 9   4125753.132 9  21933462.271    21933467.022
 96  7 11  0 48 30.0000000  0  8 23  3 21 17  1  9 31 28
  21700011.160     3367185.73249   2573128.59249  21700011.2634   21700015.8454
  21351015.356    -2863594.65549  -2219005.24949  21351016.4344   21351021.5404
  20598167.887    -4455516.65749  -3462214.35349  20598168.5164   20598173.6134
  22509251.254     6184748.55249   4812408.83249  22509252.8394   22509259.4544
  21266677.579   -12128939.10449  -9432386.05349  21266678.8604   21266684.0444
  23742095.891    -5896469.01949  -4583043.78749  23742096.4264   23742100.6334
  22496009.334    -9617589.87649  -7476635.35449  22496009.0034   22496013.8574
  21947457.304     5371740.022 9   4183057.800 9  21947456.806    21947461.431
 96  7 11  0 49  0.0000000  0  8 23  3 21 17  1  9 31 28
  21707661.917     3407389.24849   2604455.99949  21707661.9494   21707666.7844
  21353226.930    -2851974.13349  -2209950.31349  21353227.8464   21353232.6814
  20593947.631    -4477694.46349  -3479495.74849  20593948.3404   20593953.3794
  22522835.643     6256136.33449   4868035.64349  22522837.2174   22522843.8654
  21250781.279   -12212476.81349  -9497480.33849  21250782.0564   21250787.2804
  23737557.039    -5920324.45449  -4601632.40849  23737556.2424   23737561.8424
  22485511.300    -9672752.07549  -7519618.87449  22485511.9054   22485516.7314
  21961524.136     5445666.486 9   4240662.803 9  21961524.689    21961529.281
 96  7 11  0 49 30.0000000  0  8 23  3 21 17  1  9 31 28
  21715345.658     3447770.72449   2635922.07649  21715346.3394   21715350.9394
  21355552.149    -2839753.14749  -2200427.48149  21355553.4294   21355558.0054
  20589780.366    -4499588.40049  -3496555.95049  20589781.5334   20589786.8884
  22536483.541     6327851.68149   4923917.67949  22536484.2514   22536490.9044
  21234973.831   -12295543.42349  -9562207.53549  21234975.0564   21234980.3974
  23733124.932    -5943620.38949  -4619785.06949  23733123.6404   23733127.8544
  22475120.696    -9727350.00149  -7562162.70149  22475122.3114   22475126.7374
  21975664.447     5519973.625 9   4298564.439 9  21975664.789    21975669.431
 96  7 11  0 50  0.0000000  0  8 23  3 21 17  1  9 31 28
  21723061.933     3488315.86249   2667515.68249  21723061.9404   21723066.4594
  21357993.238    -2826928.12849  -2190433.97149  21357994.0824   21357998.6194
  20585671.890    -4521181.94149  -3513382.07149  20585672.6924   20585677.7494
  22550195.505     6399909.17249   4980066.34449  22550196.7864   22550202.6674
  21219256.963   -12378140.54749  -9626568.89849  21219257.3794   21219262.5944
  23728793.052    -5966341.78449  -4637490.04349  23728799.0174   23728805.3304
  22464843.612    -9781363.89749  -7604251.44549  22464843.3584   22464849.0354
  21989879.308     5594670.614 9   4356769.853 9  21989879.202    21989883.825
 96  7 11  0 50 30.0000000  0  8 23  3 21 17  1  9 31 28
  21730805.945     3529011.90249   2699226.87049  21730806.0144   21730810.8524
  21360548.699    -2813495.70349  -2179967.16349  21360550.0974   21360555.0194
  20581618.195    -4542483.61249  -3529980.76849  20581619.1054   20581624.1624
  22563972.858     6472309.98549   5036482.52649  22563973.7444   22563980.6374
  21203629.175   -12460264.70149  -9690561.71149  21203629.3624   21203634.7984
  23724567.641    -5988485.93549  -4654745.20249  23724585.7564   23724590.6674
  22454675.205    -9834798.30549  -7645888.64349  22454675.4604   22454680.2704
  22004168.091     5669760.452 9   4415281.387 9  22004168.229    22004173.100
 96  7 11  0 51  0.0000000  0  8 23  3 21 17  1  9 31 28
  21738571.496     3569821.63449   2731026.65549  21738571.6574   21738576.6074
  21363213.904    -2799491.39749  -2169054.73049  21363215.0204   21363219.6724
  20577609.110    -4563551.59849  -3546397.37449  20577609.7924   20577614.6834
  22577805.008     6544992.62749   5093118.31749  22577806.3404   22577810.7844
  21188084.788   -12541950.84449  -9754213.21849  21188084.8784   21188090.4114
  23720469.172    -6010102.29249  -4671589.09849  23720471.6084   23720477.3674
  22444609.714    -9887694.25449  -7687106.26749  22444610.4394   22444614.7674
  22018525.562     5745207.682 9   4474071.401 9  22018525.420    22018530.313
 96  7 11  0 51 30.0000000  0  8 23  3 21 17  1  9 31 28
  21746365.922     3610786.63449   2762947.42249  21746367.2194   21746371.9814
  21365995.463    -2784871.59049  -2157662.68749  21365997.2714   21366001.6274
  20573649.537    -4584362.28549  -3562613.48749  20573649.9544   20573654.2934
  22591691.650     6617972.65249   5149985.84449  22591693.2554   22591699.6334
  21172624.891   -12623191.68449  -9817517.73849  21172625.6064   21172630.7464
  23716454.043    -6031181.22149  -4688014.22549  23716460.7514   23716466.5474
  22434653.330    -9940014.09449  -7727874.96949  22434654.0794   22434658.3634
  22032954.019     5821037.449 9   4533159.490 9  22032955.244    22032959.980
 96  7 11  0 52  0.0000000  0  8 23  3 21 17  1  9 31 28
  21754192.108     3651909.76949   2794991.41049  21754192.6794   21754197.6004
  21368896.694    -2769627.89749  -2145784.50149  21368897.6774   21368902.9054
  20569738.749    -4604914.89049  -3578628.49649  20569739.0194   20569743.5344
  22605632.907     6691234.65149   5207073.07949  22605634.3034   22605640.8844
  21157248.647   -12703995.55149  -9880481.76149  21157248.9444   21157254.1764
  23712556.170    -6051720.62249  -4704018.93949  23712552.0854   23712557.1204
  22424804.820    -9991765.30849  -7768200.59949  22424805.7044   22424810.8014
  22047457.047     5897246.159 9   4592542.860 9  22047457.451    22047462.247
 96  7 11  0 52 30.0000000  0  8 23  3 21 17  1  9 31 28
  21762052.517     3693214.78549   2827177.12649  21762052.6874   21762057.5934
  21371918.009    -2753749.31449  -2133411.59949  21371919.3904   21371924.3614
  20565879.153    -4625201.55849  -3594436.28849  20565878.5004   20565883.1784
  22619627.147     6764774.31549   5264376.67849  22619628.2434   22619634.4604
  21141957.587   -12784341.11849  -9943088.66949  21141959.5404   21141964.8634
  23708755.220    -6071694.57949  -4719583.04349  23708751.5444   23708757.3124
  22415066.847   -10042942.16949  -7808078.66849  22415067.3214   22415072.3164
  22062032.882     5973840.241 9   4652226.513 9  22062032.784    22062037.823
 96  7 11  0 53  0.0000000  0  8 23  3 21 17  1  9 31 28
  21769949.302     3734715.21649   2859515.10949  21769950.1374   21769954.8144
  21375060.758    -2737233.56149  -2120542.20049  21375062.2844   21375067.4944
  20562072.778    -4645195.88749  -3610016.28549  20562073.7064   20562078.3514
  22633678.406     6838600.61449   5321903.61849  22633676.7684   22633682.9904
  21126758.030   -12864221.34549 -10005332.97149  21126758.9344   21126764.2184
  23705057.585    -6091079.87149  -4734688.44949  23705063.1134   23705067.5114
  22405444.078   -10093508.73849  -7847481.19149  22405444.8334   22405449.5114
  22076681.906     6050824.073 9   4712213.867 9  22076682.231    22076687.220
 96  7 11  0 53 30.0000000  0  8 23  3 21 17  1  9 31 28
  21777886.707     3776423.64149   2892015.17349  21777887.0544   21777891.7914
  21378324.318    -2720084.53149  -2107179.33749  21378325.8044   21378330.9304
  20558331.181    -4664856.98349  -3625336.60949  20558332.0054   20558336.6254
  22647783.087     6912732.66149   5379668.82649  22647784.0004   22647790.2984
  21111649.832   -12943618.30949 -10067200.70549  21111649.9564   21111655.1884
  23701483.333    -6109861.94749  -4749323.81849  23701488.7974   23701493.3734
  22395938.479   -10143451.89549  -7886397.92749  22395940.6064   22395945.7814
  22091405.061     6128196.779 9   4772504.245 9  22091405.749    22091410.484
 96  7 11  0 54  0.0000000  0  8 23  3 21 17  1  9 31 28
  21785858.400     3818319.25349   2924661.09549  21785860.0204   21785864.3434
  21381705.645    -2702315.17549  -2093333.09949  21381707.1424   21381712.0744
  20554656.197    -4684169.64049  -3640385.42949  20554657.0624   20554661.4934
  22661949.646     6987171.41749   5437673.01249  22661948.9764   22661955.9364
  21096636.033   -13022514.70949 -10128678.39349  21096636.4094   21096641.9624
  23698023.749    -6128045.38949  -4763492.71749  23698028.3834   23698033.6224
  22386555.502   -10192768.35549  -7924826.32349  22386555.9964   22386561.3644
  22106202.894     6205955.694 9   4833095.561 9  22106202.901    22106207.839
 96  7 11  0 54 30.0000000  0  8 23  3 21 17  1  9 31 28
  21793868.391     3860406.80849   2957456.57349  21793868.6474   21793873.2854
  21385205.814    -2683921.72849  -2079000.56249  21385207.0134   21385212.2624
  20551049.470    -4703122.84349  -3655154.15849  20551050.5224   20551054.8784
  22676174.814     7061935.14449   5495930.42549  22676176.7374   22676182.5794
  21081721.090   -13100894.85549 -10189753.79949  21081721.5334   21081726.7114
  23694684.471    -6145641.83649  -4777204.23549  23694680.5274   23694685.1994
  22377294.125   -10241437.82149  -7962750.58149  22377294.6124   22377299.3564
  22121073.166     6284100.892 9   4893987.881 9  22121073.650    22121078.170
 96  7 11  0 54 59.9990000  0  8 23  3 21 17  1  9 31 28
  21801913.972     3902689.27949   2990403.93849  21801914.4834   21801919.3354
  21388827.038    -2664890.80949  -2064171.28949  21388828.6944   21388833.6094
  20547511.283    -4721718.30549  -3669644.12749  20547511.6864   20547516.4544
  22690467.748     7137034.72849   5554449.54649  22690466.9044   22690473.5244
  21066903.953   -13178753.62549 -10250422.93849  21066905.3334   21066910.4534
  23691441.437    -6162660.00749  -4790465.12149  23691441.3274   23691446.5724
  22368156.605   -10289453.71049  -8000165.55549  22368157.3384   22368162.1574
  22136016.705     6362628.049 9   4955177.838 9  22136016.792    22136021.713
 96  7 11  0 55 29.9990000  0  8 23  3 21 17  1  9 31 28
  21809996.030     3945161.98449   3023499.54049  21809997.0104   21810001.7514
  21392570.020    -2645223.19149  -2048845.89449  21392571.1094   21392576.5254
  20544032.759    -4739995.69249  -3683886.24349  20544033.6474   20544038.3644
  22704817.773     7212458.77249   5613221.49149  22704821.0604   22704826.7394
  21052184.006   -13256111.34349 -10310701.65049  21052184.7064   21052189.8704
  23688310.576    -6179120.91249  -4803291.78449  23688309.3634   23688314.5124
  22359138.460   -10336847.24749  -8037095.57949  22359138.8574   22359143.5144
  22151031.112     6441532.423 9   5016661.719 9  22151031.820    22151036.767
 96  7 11  0 55 59.9990000  0  8 23  3 21 17  1  9 31 28
  21818111.776     3987809.05949   3056731.01349  21818112.5914   21818117.1124
  21396432.990    -2624921.40249  -2033026.34049  21396434.2074   21396439.5624
  20540606.780    -4758000.66149  -3697916.08449  20540607.3964   20540611.9404
  22719231.828     7288192.54549   5672234.77949  22719231.3834   22719238.0014
  21037556.840   -13332978.69349 -10370598.25449  21037557.5094   21037562.4134
  23685272.334    -6195038.43649  -4815695.05449  23685280.2994   23685284.4284
  22350235.606   -10383628.16349  -8073548.23649  22350236.6894   22350241.4794
  22166115.641     6520803.617 9   5078431.439 9  22166116.614    22166121.711
 96  7 11  0 56 29.9990000  0  8 23  3 21 17  1  9 31 28
  21826264.462     4030650.34649   3090113.81849  21826264.8334   21826269.4084
  21400416.366    -2603988.35749  -2016714.90449  21400417.4894   21400423.3714
  20537226.615    -4775761.95049  -3711756.05049  20537227.5604   20537232.5754
  22733702.315     7364235.68049   5731489.12949  22733702.4454   22733709.0234
  21023021.166   -13409362.22649 -10430117.85949  21023022.0744   21023026.9504
  23682360.442    -6210394.49049  -4827660.78149  23682357.5814   23682363.0714
  22341449.716   -10429803.26449  -8109528.83449  22341449.5504   22341454.3834
  22181269.947     6600437.265 9   5140483.597 9  22181270.435    22181275.407
 96  7 11  0 56 59.9990000  0  8 23  3 21 17  1  9 31 28
  21834453.802     4073682.30349   3123645.19749  21834453.3774   21834458.2514
  21404518.206    -2582435.17149  -1999920.23549  21404519.2014   21404524.8304
  20533891.917    -4793287.73849  -3725412.50249  20533892.6994   20533897.7814
  22748226.614     7440572.29949   5790972.17549  22748228.9924   22748235.4224
  21008575.466   -13485274.38249 -10489270.15149  21008576.3154   21008581.6134
  23679554.270    -6225170.53349  -4839174.57949  23679545.7384   23679551.1984
  22332774.947   -10475389.52749  -8145050.58649  22332775.2594   22332779.6974
  22196492.072     6680432.236 9   5202817.309 9  22196492.795    22196497.843
 96  7 11  0 57 29.9990000  0  8 23  3 21 17  1  9 31 28
  21842678.629     4116907.91649   3157327.47749  21842679.2324   21842683.7354
  21408734.001    -2560283.13849  -1982658.93149  21408734.7794   21408740.0934
  20530603.979    -4810564.68149  -3738875.04849  20530605.0444   20530609.8644
  22762809.509     7517211.52049   5850691.00949  22762812.9244   22762819.2364
  20994219.408   -13560715.57349 -10548055.45649  20994220.4104   20994225.5934
  23676847.170    -6239354.32549  -4850226.87249  23676846.6334   23676851.2584
  22324210.302   -10520392.35449  -8180117.72049  22324211.2744   22324216.1114
  22211784.528     6760790.027 9   5265433.724 9  22211784.614    22211789.753
 96  7 11  0 57 59.9990000  0  8 23  3 21 17  1  9 31 28
  21850940.316     4160321.84849   3191156.50449  21850940.4424   21850945.2434
  21413060.820    -2537541.42649  -1964938.13149  21413062.4104   21413067.7994
  20527366.535    -4827577.35949  -3752131.66649  20527367.2924   20527372.4074
  22777453.682     7594157.90549   5910649.18849  22777454.9384   22777461.5424
  20979952.795   -13635686.97149 -10606474.69149  20979953.8444   20979959.0194
  23674256.513    -6252945.78249  -4860817.60949  23674259.4844   23674265.3084
  22315756.355   -10564817.86249  -8214734.99549  22315757.2064   22315762.1554
  22227141.746     6841500.232 9   5328324.753 9  22227143.302    22227148.561
 96  7 11  0 58 29.9990000  0  8 23  3 21 17  1  9 31 28
  21859238.946     4203934.46449   3225140.33949  21859239.8054   21859244.4124
  21417504.580    -2514191.29049  -1946743.23649  21417505.6654   21417511.3464
  20524185.935    -4844289.32949  -3765153.97649  20524187.1014   20524192.1424
  22792157.986     7671424.25849   5970856.69549  22792158.9284   22792164.2594
  20965778.547   -13710172.75149 -10664515.52349  20965779.6114   20965784.7594
  23671787.387    -6265925.06049  -4870931.29749  23671790.4174   23671795.4444
  22307416.936   -10608645.19949  -8248886.15649  22307417.6944   22307422.7694
  22242569.950     6922573.748 9   5391498.872 9  22242570.974    22242576.245
 96  7 11  0 58 59.9990000  0  8 23  3 21 17  1  9 31 28
  21867572.453     4247725.25849   3259263.02249  21867573.2924   21867577.6254
  21422062.208    -2490239.04949  -1928079.16449  21422063.4144   21422068.8344
  20521065.550    -4860687.33449  -3777931.63249  20521066.5404   20521071.4294
  22806921.951     7749003.85449   6031308.30649  22806921.1644   22806927.2674
  20951698.049   -13784169.36849 -10722175.19149  20951698.4864   20951703.5934
  23669431.189    -6278317.68749  -4880587.88349  23669432.3644   23669438.0094
  22299189.718   -10651879.02549  -8282574.85349  22299190.3564   22299194.4464
  22258064.757     7003999.133 9   5454947.179 9  22258065.599    22258071.002
 96  7 11  0 59 29.9990000  0  8 23  3 21 17  1  9 31 28
  21875936.347     4291680.89349   3293514.14649  21875937.2794   21875942.0194
  21426735.358    -2465684.68649  -1908945.91849  21426736.2564   21426741.7234
  20518003.395    -4876777.79849  -3790469.65449  20518004.9044   20518009.5294
  22821744.131     7826902.10749   6092008.18249  22821745.2904   22821750.8534
  20937712.963   -13857659.10249 -10779439.88049  20937713.6334   20937719.0634
  23667181.878    -6290145.31649  -4889804.19049  23667181.9264   23667187.1254
  22291077.450   -10694508.88949  -8315792.92249  22291077.7774   22291082.2464
  22273624.784     7085764.413 9   5518660.333 9  22273625.018    22273630.463
 96  7 11  0 59 59.9990000  0  8 23  3 21 17  1  9 31 28
  21884329.110     4335782.26149   3327878.83449  21884329.6534   21884334.4244
  21431523.030    -2440524.38849  -1889340.50949  21431523.9784   21431529.6554
  20514998.175    -4892573.77149  -3802778.20349  20514999.0544   20515003.7484
  22836622.142     7905093.00249   6152936.12649  22836624.4004   22836630.7684
  20923825.847   -13930640.79149 -10836308.69249  20923826.0224   20923831.1984
  23665033.337    -6301420.43949  -4898589.99049  23665035.3994   23665041.3644
  22283079.903   -10736530.75649  -8348537.22549  22283080.9374   22283086.2704
  22289245.750     7167853.829 9   5582626.062 9  22289245.981    22289251.609
 96  7 11  1  0 29.9990000  0  8 23  3 21 17  1  9 31 28
  21892753.017     4380050.63849   3362373.66149  21892754.0374   21892758.4434
  21436427.875    -2414747.50449  -1869254.64449  21436429.4254   21436434.6384
  20512051.231    -4908059.50349  -3814845.00849  20512052.4804   20512056.7554
  22851558.874     7983579.41349   6214094.31549  22851559.8524   22851565.7154
  20910035.740   -14003101.81549 -10892771.79949  20910036.8614   20910041.8434
  23662995.679    -6312129.33249  -4906934.58749  23662998.7584   23663003.9124
  22275202.933   -10777929.32549  -8380795.84949  22275203.5424   22275208.5094
  22304930.383     7250277.151 9   5646851.969 9  22304930.667    22304936.559
 96  7 11  1  0 59.9990000  0  8 23  3 21 17  1  9 31 28
  21901212.372     4424504.02249   3397012.64449  21901212.8164   21901217.5114
  21441449.707    -2388356.75249  -1848690.43449  21441451.2144   21441456.7064
  20509165.134    -4923227.16049  -3826663.95449  20509165.9474   20509170.4624
  22866554.862     8062379.65849   6275497.06249  22866554.9124   22866560.7524
  20896346.194   -14075044.22949 -10948830.79049  20896346.5844   20896351.7124
  23661070.727    -6322269.07849  -4914835.65649  23661068.2914   23661073.7844
  22267444.209   -10818700.33249  -8412565.45949  22267445.1144   22267449.8294
  22320679.426     7333038.763 9   5711341.486 9  22320679.773    22320685.327
 96  7 11  1  1 29.9990000  0  8 23  3 21 17  1  9 31 28
  21909701.629     4469116.87649   3431775.89449  21909702.3424   21909707.1954
  21446584.060    -2361379.36849  -1827669.11249  21446584.7744   21446589.9604
  20506332.962    -4938111.05249  -3838261.79149  20506333.7254   20506338.1114
  22881604.980     8141466.50049   6337123.12449  22881605.4294   22881610.7044
  20882747.094   -14146508.27449 -11004517.03349  20882747.4574   20882752.6004
  23659241.930    -6331849.50549  -4922300.92249  23659245.6424   23659250.9374
  22259800.474   -10858870.98649  -8443867.26149  22259801.1044   22259805.3864
  22336487.601     7416112.455 9   5776074.179 9  22336488.214    22336493.856
 96  7 11  1  1 59.9990000  0  8 23  3 21 17  1  9 31 28
  21918224.713     4513899.93249   3466671.76949  21918224.5544   21918228.9074
  21451830.852    -2333804.87349  -1806182.50249  21451832.0544   21451837.1744
  20503556.578    -4952700.60349  -3849630.27149  20503557.4274   20503562.0214
  22896706.659     8220828.06749   6398963.25949  22896706.6944   22896713.2924
  20869235.894   -14217507.03049 -11059840.70649  20869236.8604   20869241.8194
  23657540.408    -6340859.47049  -4929321.63549  23657531.2314   23657536.3524
  22252269.478   -10898446.83349  -8474705.58249  22252269.6374   22252274.8014
  22352356.766     7499501.708 9   5841052.771 9  22352356.765    22352362.168
 96  7 11  1  2 29.9990000  0  8 23  3 21 17  1  9 31 28
  21926776.384     4558839.83249   3501689.86149  21926776.0064   21926780.4514
  21457188.524    -2305651.77749  -1784245.04649  21457189.7654   21457194.9604
  20500833.440    -4967010.83449  -3860781.09649  20500834.1174   20500839.0494
  22911858.930     8300461.26949   6461015.06749  22911860.6344   22911867.1924
  20855811.073   -14288055.79449 -11114813.74349  20855811.7724   20855816.9364
  23655919.588    -6349311.72049  -4935907.82349  23655922.5574   23655927.3294
  22244848.482   -10937442.44849  -8505091.78249  22244849.1804   22244853.8784
  22368283.099     7583197.863 9   5906270.513 9  22368283.509    22368289.297
 96  7 11  1  2 59.9990000  0  8 23  3 21 17  1  9 31 28
  21935350.586     4603905.40649   3536805.88049  21935352.0444   21935356.3394
  21462653.193    -2276932.30049  -1761866.25249  21462654.8004   21462660.1614
  20498159.515    -4981060.94149  -3871729.22649  20498160.6084   20498165.3134
  22927063.541     8380351.99549   6523267.54249  22927063.2164   22927069.7884
  20842471.873   -14358153.17249 -11169435.05149  20842472.4904   20842477.6424
  23654415.803    -6357209.92449  -4942062.25349  23654420.2144   23654424.6314
  22237537.582   -10975859.13049  -8535026.85449  22237538.5084   22237543.6554
  22384266.527     7667189.148 9   5971718.216 9  22384266.671    22384272.203
 96  7 11  1  3 29.9990000  0  8 23  3 21 17  1  9 31 28
  21943949.804     4649094.83449   3572018.40549  21943951.1794   21943955.9494
  21468226.400    -2247647.34049  -1739046.82649  21468227.5524   21468232.8434
  20495533.475    -4994863.36449  -3882484.35749  20495533.9304   20495538.8524
  22942310.378     8460474.17449   6585700.37049  22942309.6564   22942315.6124
  20829221.983   -14427780.04949 -11223689.72849  20829222.8914   20829228.3934
  23653023.286    -6364550.09549  -4947781.85949  23653023.2414   23653026.8934
  22230337.007   -11013702.06549  -8564514.85949  22230337.4804   22230342.1984
  22400304.190     7751467.966 9   6037389.975 9  22400304.294    22400310.169
 96  7 11  1  3 59.9990000  0  8 23  3 21 17  1  9 31 28
  21952573.792     4694413.94449   3607331.97949  21952574.7304   21952579.5994
  21473908.004    -2217792.29249  -1715783.17149  21473908.7414   21473914.1724
  20492954.138    -5008416.30949  -3893045.08749  20492954.9754   20492959.6584
  22957599.860     8540830.51849   6648315.66149  22957600.8774   22957606.6204
  20816065.781   -14496915.78249 -11277561.70049  20816066.7464   20816071.9654
  23651734.117    -6371334.51349  -4953068.38149  23651732.2724   23651736.3454
  22223246.957   -11050959.66249  -8593546.74749  22223247.7064   22223252.0604
  22416395.456     7836032.871 9   6103284.657 9  22416396.625    22416402.270
 96  7 11  1  4 29.9990000  0  8 23  3 21 17  1  9 31 28
  21961217.734     4739836.38549   3642726.06949  21961218.3684   21961223.1914
  21479691.372    -2187401.36049  -1692101.94249  21479692.1964   21479697.3064
  20490418.299    -5021743.03749  -3903429.54749  20490419.0074   20490423.7264
  22972935.988     8621419.98949   6711112.61149  22972936.1794   22972943.5034
  20803001.996   -14565567.57849 -11331056.57549  20803002.6254   20803007.9754
  23650532.437    -6377571.95749  -4957928.74849  23650545.3214   23650549.5994
  22216266.573   -11087645.48949  -8622133.10949  22216266.8134   22216271.6514
  22432538.721     7920861.175 9   6169384.578 9  22432538.746    22432544.646
 96  7 11  1  4 59.9990000  0  8 23  3 21 17  1  9 31 28
  21969892.866     4785430.50349   3678253.94549  21969894.7104   21969899.5774
  21485588.511    -2156407.79549  -1667951.12949  21485590.1964   21485595.1484
  20487937.975    -5034777.76549  -3913586.47149  20487938.5204   20487943.3524
  22988328.907     8702310.48349   6774144.12749  22988329.6414   22988337.2474
  20790042.562   -14633668.61149 -11384122.28549  20790043.7154   20790049.0234
  23649477.848    -6383190.26149  -4962306.61849  23649475.4284   23649480.7404
  22209405.799   -11123692.74549  -8650221.88349  22209407.1844   22209411.0834
  22448741.488     8006009.477 9   6235733.856 9  22448742.074    22448747.599
 96  7 11  1  5 29.9990000  0  8 23  3 21 17  1  9 31 28
  21978599.108     4831174.42449   3713898.54849  21978599.2714   21978604.2724
  21491593.134    -2124855.45749  -1643364.91049  21491594.2574   21491599.4834
  20485508.423    -5047543.11849  -3923533.49849  20485509.3364   20485514.5584
  23003772.662     8783479.42949   6837392.60649  23003775.6654   23003782.4734
  20777182.147   -14701250.06949 -11436783.13249  20777183.2094   20777188.5184
  23648519.945    -6388227.65649  -4966231.87649  23648517.2914   23648522.2074
  22202662.540   -11159137.21149  -8677840.95349  22202662.3784   22202666.5494
  22464998.957     8091441.323 9   6302304.077 9  22464999.282    22465004.399
 96  7 11  1  5 59.9990000  0  8 23  3 21 17  1  9 31 28
  21987324.659     4877032.72349   3749632.26949  21987325.8334   21987331.3474
  21497698.489    -2092770.73349  -1618363.84449  21497699.9424   21497704.9084
  20483128.776    -5060047.19049  -3933276.92249  20483130.0914   20483135.0194
  23019271.288     8864922.53549   6900854.72449  23019273.8164   23019280.5414
  20764415.539   -14768340.67849 -11489061.49549  20764416.4734   20764421.7534
  23647664.613    -6392707.44449  -4969722.57249  23647665.0504   23647668.8104
  22196029.791   -11193988.96549  -8704998.16649  22196030.4124   22196034.5984
  22481306.577     8177135.857 9   6369078.986 9  22481306.658    22481311.786
 96  7 11  1  6 29.9990000  0  8 23  3 21 17  1  9 31 28
  21996077.864     4923029.79449   3785474.13249  21996079.2434   21996084.0634
  21503904.474    -2060155.61749  -1592949.48549  21503905.8634   21503911.2374
  20480802.985    -5072270.88949  -3942801.88249  20480803.4154   20480808.8524
  23034826.030     8946651.37749   6964539.48949  23034826.0384   23034833.1124
  20751741.098   -14834945.72049 -11540961.49549  20751741.9994   20751747.1224
  23646920.872    -6396620.37349  -4972771.61749  23646920.2084   23646924.4884
  22189512.464   -11228235.24749  -8731683.57949  22189513.3414   22189518.3074
  22497664.222     8263101.343 9   6436065.026 9  22497665.253    22497670.622
 96  7 11  1  6 59.9990000  0  8 23  3 21 17  1  9 31 28
  22004863.561     4969192.90549   3821445.37649  22004863.6594   22004868.7194
  21510213.750    -2027002.80949  -1567116.14649  21510215.0004   21510220.0234
  20478530.388    -5084210.54749  -3952105.51249  20478531.5984   20478536.8844
  23050431.506     9028660.66749   7028442.78749  23050432.9534   23050439.5364
  20739159.959   -14901059.10349 -11592478.38349  20739161.0444   20739166.0534
  23646276.867    -6399982.13949  -4975391.16449  23646280.9424   23646285.5434
  22183111.276   -11261875.45849  -8757896.73749  22183111.6514   22183116.5334
  22514076.136     8349342.019 9   6503265.493 9  22514076.336    22514081.641
 96  7 11  1  7 29.9990000  0  8 23  3 21 17  1  9 31 28
  22013677.267     5015514.58549   3857540.18149  22013678.7054   22013683.5554
  21516621.298    -1993330.40449  -1540877.92449  21516622.6134   21516627.8014
  20476309.661    -5095881.86049  -3961200.03349  20476310.7714   20476315.7964
  23066085.474     9110925.82249   7092545.46049  23066087.1124   23066093.8374
  20726671.073   -14966691.18349 -11643620.23049  20726671.3294   20726676.6974
  23645741.804    -6402814.38849  -4977598.08649  23645741.4194   23645745.9024
  22176821.941   -11294924.72349  -8783649.41649  22176822.8014   22176827.3724
  22530536.064     8435845.862 9   6570671.037 9  22530537.368    22530542.835
 96  7 11  1  7 59.9990000  0  8 23  3 21 17  1  9 31 28
  22022521.228     5061989.38749   3893754.29149  22022522.4364   22022527.3774
  21523128.870    -1959133.93749  -1514231.34649  21523129.9814   21523135.2594
  20474135.503    -5107307.50649  -3970103.13249  20474136.3014   20474141.4604
  23081784.520     9193432.24949   7156836.13949  23081787.8284   23081794.0324
  20714270.940   -15031853.98249 -11694396.40449  20714271.5784   20714276.7694
  23645302.151    -6405122.10949  -4979396.29449  23645301.3054   23645307.3774
  22170643.284   -11327395.04149  -8808950.96949  22170643.9844   22170649.0114
  22547046.161     8522605.353 9   6638275.776 9  22547047.158    22547052.688
 96  7 11  1  8 29.9990000  0  8 23  3 21 17  1  9 31 28
  22031397.962     5108629.98249   3930097.60449  22031398.1674   22031402.6104
  21529739.788    -1924389.74249  -1487157.96149  21529741.8924   21529746.8264
  20472008.870    -5118482.87149  -3978811.20149  20472009.8744   20472014.8594
  23097533.987     9276185.67749   7221319.29349  23097535.3944   23097541.8074
  20701962.190   -15096534.24149 -11744796.57349  20701963.3264   20701968.3914
  23644957.394    -6406898.37649  -4980780.38749  23644964.1804   23644968.6474
  22164575.807   -11359281.71749  -8833797.73249  22164575.8064   22164580.6874
  22563606.243     8609628.726 9   6706086.146 9  22563607.482    22563612.642
 96  7 11  1  8 59.9990000  0  8 23  3 21 17  1  9 31 28
  22040295.762     5155394.65649   3966537.59849  22040296.9404   22040301.3704
  21536456.914    -1889096.47849  -1459656.72849  21536457.5394   21536462.7254
  20469928.278    -5129417.29449  -3987331.52749  20469928.9714   20469933.9414
  23113326.324     9359168.41049   7285981.11449  23113325.5434   23113332.8274
  20689748.353   -15160719.70249 -11794811.18649  20689749.0364   20689754.0834
  23644728.738    -6408143.02749  -4981750.21849  23644726.9394   23644731.9804
  22158615.922   -11390596.11749  -8858198.56049  22158617.1804   22158622.0854
  22580215.563     8696906.936 9   6774095.092 9  22580215.914    22580221.129
 96  7 11  1  9 29.9990000  0  8 23  3 21 17  1  9 31 28
  22049214.152     5202256.86549   4003053.58949  22049214.2344   22049219.1054
  21543277.089    -1853253.92749  -1431727.48349  21543278.2934   21543283.7174
  20467892.704    -5140113.09049  -3995665.91149  20467893.4914   20467898.5214
  23129157.072     9442369.52249   7350813.09649  23129157.9634   23129165.3494
  20677627.135   -15224421.12549 -11844448.63249  20677627.2134   20677632.2014
  23644596.537    -6408834.05849  -4982288.67649  23644596.2594   23644600.9144
  22152769.983   -11421320.48549  -8882139.63149  22152770.6424   22152774.9874
  22596870.940     8784435.589 9   6842299.167 9  22596871.955    22596877.727
 96  7 11  1  9 59.9990000  0  8 23  3 21 17  1  9 31 28
  22058151.007     5249217.33149   4039646.14349  22058150.8944   22058155.3504
  21550205.236    -1816847.58549  -1403358.92749  21550206.1034   21550211.6364
  20465906.702    -5150551.64549  -4003799.84549  20465907.5074   20465911.9364
  23145035.470     9525806.94349   7415829.22849  23145036.3084   23145043.0614
  20665596.519   -15287637.19649 -11893707.88349  20665597.4304   20665602.5534
  23644563.865    -6408951.00149  -4982379.78749  23644573.4774   23644578.9954
  22147040.578   -11451429.45849  -8905601.17149  22147041.1804   22147045.0674
  22613576.082     8872221.435 9   6910703.651 9  22613577.199    22613582.595
 96  7 11  1 10 29.9990000  0  8 23  3 21 17  1  9 31 28
  22067102.975     5296262.94849   4076305.05549  22067103.0804   22067107.5964
  21557237.325    -1779892.78249  -1374562.99849  21557238.5264   21557243.9384
  20463969.108    -5160731.76449  -4011732.40149  20463970.1034   20463974.6894
  23160955.811     9609469.98849   7481021.16449  23160956.9844   23160963.3624
  20653657.908   -15350378.62349 -11942597.27749  20653658.1554   20653662.9804
  23644658.593    -6408501.73049  -4982029.66849  23644658.6854   23644664.0154
  22141427.730   -11480923.35449  -8928583.41749  22141428.2794   22141432.9604
  22630327.668     8960246.797 9   6979294.787 9  22630327.857    22630333.563
 96  7 11  1 10 59.9990000  0  8 23  3 21 17  1  9 31 28
  22076076.001     5343416.19749   4113047.83149  22076076.0164   22076080.8334
  21564372.343    -1742399.37449  -1345347.37549  21564373.0884   21564378.7974
  20462082.101    -5170647.43049  -4019458.89149  20462083.2704   20462087.7784
  23176920.319     9693360.21349   7546390.11849  23176920.7264   23176927.3824
  20641808.111   -15412645.47349 -11991116.87349  20641809.1114   20641814.0354
  23644857.702    -6407467.86149  -4981224.05749  23644854.5874   23644860.5614
  22135934.806   -11509790.15949  -8951077.02549  22135935.4574   22135939.4764
  22647123.444     9048513.575 9   7048074.038 9  22647124.936    22647130.201
 96  7 11  1 11 29.9990000  0  8 23  3 21 17  1  9 31 28
  22085075.871     5390712.40349   4149902.00149  22085076.5034   22085080.8504
  21571610.399    -1704360.09949  -1315706.40649  21571612.0504   21571617.5554
  20460246.601    -5180294.55049  -4026976.12449  20460247.3834   20460252.0254
  23192931.503     9777500.81549   7611954.18049  23192932.8994   23192938.4554
  20630048.258   -15474442.71949 -12039270.54249  20630049.2624   20630054.5544
  23645162.401    -6405843.88949  -4979958.59049  23645164.1394   23645169.1854
  22130561.827   -11538022.87049  -8973076.54149  22130562.6584   22130566.6234
  22663967.175     9137024.306 9   7117043.382 9  22663967.866    22663973.299
 96  7 11  1 11 59.9990000  0  8 23  3 21 17  1  9 31 28
  22094105.570     5438165.68949   4186878.57449  22094106.2964   22094110.9334
  21578954.472    -1665769.84849  -1285636.10349  21578955.4334   21578960.8284
  20458464.386    -5189659.87349  -4034273.77149  20458465.0374   20458470.0694
  23208995.944     9861919.76349   7677735.14449  23208997.3434   23209002.7904
  20618384.156   -15535741.86049 -12087036.07349  20618384.6204   20618389.6154
  23645588.261    -6403635.30649  -4978237.64149  23645585.3274   23645590.2274
  22125307.500   -11565633.83649  -8994591.57849  22125308.5674   22125312.8634
  22680857.761     9225783.441 9   7186206.283 9  22680858.087    22680863.773
 96  7 11  1 12 29.9990000  0  8 23  3 21 17  1  9 31 28
  22103162.775     5485760.34549   4223965.29749  22103163.5464   22103168.1184
  21586395.382    -1626664.62749  -1255164.52549  21586396.8804   21586402.4264
  20456729.669    -5198773.81149  -4041375.53649  20456730.8504   20456735.6134
  23225108.244     9946590.52749   7743712.32149  23225109.6824   23225115.9944
  20606813.221   -15596543.81849 -12134414.19549  20606814.4344   20606819.4944
  23646110.807    -6400869.48149  -4976082.41549  23646111.0264   23646116.7194
  22120162.657   -11592670.53749  -9015659.13449  22120163.6754   22120168.5214
  22697789.850     9314762.571 9   7255540.604 9  22697790.386    22697796.072
 96  7 11  1 12 59.9990000  0  8 23  3 21 17  1  9 31 28
  22112249.379     5533507.24949   4261170.66449  22112249.1134   22112254.0364
  21593933.679    -1587054.20849  -1224299.29049  21593934.6844   21593939.6474
  20455043.797    -5207635.11849  -4048280.44949  20455044.8494   20455049.2284
  23241270.977    10031529.26449   7809898.29949  23241272.8444   23241278.8944
  20595342.236   -15656826.92649 -12181388.01449  20595342.7734   20595348.0544
  23646748.976    -6397539.50849  -4973487.60049  23646744.7914   23646749.7854
  22115128.497   -11619128.09849  -9036275.41749  22115128.9304   22115133.6854
  22714765.943     9403970.137 9   7325052.920 9  22714766.134    22714771.446
 96  7 11  1 13 29.9990000  0  8 23  3 21 17  1  9 31 28
  22121361.848     5581400.00949   4298489.68849  22121362.8674   22121367.9404
  21601569.416    -1546926.20849  -1193030.73549  21601570.6474   21601575.6194
  20453405.823    -5216242.77249  -4054987.70849  20453406.6444   20453411.3854
  23257488.600    10116744.18349   7876299.48949  23257489.0374   23257494.8794
  20583973.710   -15716567.94749 -12227939.43049  20583974.5214   20583979.5774
  23647483.231    -6393643.96549  -4970452.11549  23647486.2774   23647491.8614
  22110202.973   -11645007.50749  -9056441.19149  22110204.1754   22110208.8534
  22731784.708     9493410.564 9   7394746.705 9  22731786.198    22731791.496
 96  7 11  1 13 59.9990000  0  8 23  3 21 17  1  9 31 28
  22130501.094     5629420.42849   4335908.17449  22130500.6484   22130505.7794
  21609301.246    -1506294.38349  -1161369.59449  21609302.6824   21609308.1104
  20451814.882    -5224603.68149  -4061502.70449  20451815.8614   20451820.3764
  23273750.966    10202206.34049   7942893.33249  23273750.4474   23273757.3714
  20572708.727   -15775765.96249 -12274067.72549  20572709.4094   20572714.3464
  23648329.720    -6389200.13049  -4966989.36849  23648332.3404   23648336.8884
  22105386.800   -11670316.85449  -9076162.76049  22105387.7224   22105392.8454
  22748847.189     9583072.215 9   7464612.868 9  22748848.163    22748853.872
 96  7 11  1 14 29.9990000  0  8 23  3 21 17  1  9 31 28
  22139664.045     5677574.59649   4373430.88449  22139664.4694   22139669.6304
  21617129.309    -1465159.91049  -1129316.78149  21617130.3154   21617135.5984
  20450270.729    -5232716.76349  -4067824.58449  20450271.8574   20450276.4714
  23290058.602    10287898.65449   8009666.52049  23290058.7384   23290064.1784
  20561544.461   -15834434.93449 -12319783.77949  20561545.1014   20561549.9874
  23649280.657    -6384206.75249  -4963098.44349  23649282.0224   23649287.2494
  22100680.923   -11695047.17849  -9095433.14549  22100681.5244   22100686.8244
  22765950.458     9672951.179 9   7534648.366 9  22765951.578    22765957.600
 96  7 11  1 14 59.9990000  0  8 23  3 21 17  1  9 31 28
  22148850.857     5725857.24249   4411053.71349  22148852.4284   22148857.0714
  21625053.662    -1423513.58249  -1096865.12149  21625055.2984   21625060.5664
  20448775.119    -5240578.31249  -4073950.46449  20448775.8264   20448780.5044
  23306406.295    10373814.10249   8076613.56749  23306406.5964   23306412.7334
  20550475.767   -15892598.67549 -12365106.14649  20550476.7674   20550481.8574
  23650337.614    -6378674.07949  -4958787.23649  23650334.8544   23650340.2314
  22096088.284   -11719184.86249  -9114241.73649  22096088.5184   22096093.2734
  22783096.411     9763044.854 9   7604851.167 9  22783096.016    22783101.925
 96  7 11  1 15 29.9990000  0  8 23  3 21 17  1  9 31 28
  22158061.186     5774256.51949   4448767.41449  22158062.5344   22158067.0044
  21633079.735    -1381337.62649  -1064000.76549  21633081.0074   21633086.6554
  20447327.986    -5248182.98649  -4079876.18649  20447328.7624   20447333.3944
  23322794.967    10459932.89149   8143719.06049  23322795.5804   23322801.5554
  20539500.559   -15950275.03849 -12410048.73949  20539501.3534   20539506.4994
  23651484.883    -6372609.05749  -4954061.23649  23651488.3274   23651493.6054
  22091604.616   -11742743.18249  -9132598.87649  22091605.3524   22091609.9694
  22800277.740     9853346.457 9   7675215.997 9  22800279.688    22800285.567
 96  7 11  1 15 59.9990000  0  8 23  3 21 17  1  9 31 28
  22167295.612     5822780.17449   4486578.04149  22167296.2244   22167301.2384
  21641204.908    -1338638.83649  -1030729.00649  21641206.4044   21641211.8374
  20445933.146    -5255511.53249  -4085586.74249  20445934.1094   20445938.5984
  23339222.323    10546262.44849   8210988.80549  23339223.4434   23339229.3884
  20528616.569   -16007468.56449 -12454615.09949  20528617.8614   20528622.6824
  23652734.482    -6366013.65649  -4948921.94149  23652744.1114   23652748.6164
  22087233.961   -11765713.37149  -9150497.73449  22087234.5784   22087239.5784
  22817502.527     9943856.636 9   7745743.348 9  22817503.355    22817509.288
 96  7 11  1 16 29.9990000  0  8 23  3 21 17  1  9 31 28
  22176552.452     5871424.06149   4524482.35449  22176552.6754   22176557.6054
  21649427.303    -1295431.07249   -997060.64549  21649428.3244   21649434.1244
  20444587.641    -5262582.70849  -4091096.74649  20444588.3784   20444592.8794
  23355689.326    10632803.29949   8278423.18549  23355691.5104   23355698.3954
  20517822.498   -16064197.58749 -12498819.50549  20517822.4874   20517827.5194
  23654099.823    -6358887.14349  -4943368.79149  23654099.3494   23654105.0824
  22082973.312   -11788104.84049  -9167945.63949  22082973.6484   22082978.4134
  22834763.633    10034562.861 9   7816423.467 9  22834764.128    22834769.829
 96  7 11  1 16 59.9990000  0  8 23  3 21 17  1  9 31 28
  22185831.236     5920187.80449   4562480.05849  22185832.4904   22185836.9864
  21657747.953    -1251704.83449   -962988.28249  21657749.0044   21657754.8294
  20443290.005    -5269401.71449  -4096410.26549  20443290.8874   20443295.7444
  23372197.329    10719556.55349   8346023.07949  23372199.3774   23372206.6614
  20507116.728   -16120449.46249 -12542652.11249  20507118.1884   20507123.3654
  23655555.903    -6351220.12649  -4937394.50349  23655558.2184   23655564.1844
  22078824.561   -11809904.43549  -9184932.34349  22078825.2824   22078830.0654
  22852062.696    10125467.446 9   7887258.151 9  22852062.991    22852068.817
 96  7 11  1 17 29.9990000  0  8 23  3 21 17  1  9 31 28
  22195133.136     5969062.41549   4600564.15049  22195133.2534   22195137.4404
  21666162.465    -1207486.82749   -928532.71949  21666163.7104   21666169.4274
  20442039.164    -5275978.47449  -4101535.01249  20442039.7274   20442044.3214
  23388748.246    10806514.19349   8413782.22949  23388747.9614   23388754.0184
  20496506.231   -16176214.29649 -12586105.20349  20496506.6174   20496511.7004
  23657120.975    -6343015.32249  -4931001.14749  23657119.5594   23657125.8444
  22074789.337   -11831111.26549  -9201457.15149  22074789.5654   22074794.2624
  22869396.460    10216559.188 9   7958238.668 9  22869396.997    22869402.961
 96  7 11  1 17 59.9990000  0  8 23  3 21 17  1  9 31 28
  22204458.010     6018068.54749   4638750.72649  22204458.5034   22204463.2624
  21674669.156    -1162778.94249   -893695.43649  21674671.2624   21674676.8174
  20440834.545    -5282309.19149  -4106468.03849  20440835.0404   20440839.4684
  23405337.780    10893700.68949   8481719.71449  23405338.4524   23405345.4924
  20485988.839   -16231484.34849 -12629172.75549  20485988.9954   20485994.0004
  23658782.206    -6334254.88849  -4924174.84749  23658786.6304   23658792.4454
  22070872.193   -11851693.53649  -9217495.29449  22070872.6914   22070878.0984
  22886767.408    10307846.364 9   8029371.469 9  22886768.280    22886774.359
 96  7 11  1 18 29.9990000  0  8 23  3 21 17  1  9 31 28
  22213807.661     6067194.71249   4677030.83749  22213807.1844   22213811.6644
  21683270.388    -1117585.79449   -858480.02349  21683271.3374   21683276.8764
  20439673.073    -5288412.59649  -4111223.94149  20439673.4654   20439678.0644
  23421967.972    10981103.20349   8549825.51549  23421970.3784   23421977.2554
  20475563.543   -16286267.43949 -12671860.85149  20475564.1584   20475569.2004
  23660555.361    -6324947.67249  -4916922.47349  23660558.1084   23660563.2194
  22067074.490   -11871653.09749  -9233048.21249  22067075.0554   22067080.0284
  22904173.846    10399317.191 9   8100647.378 9  22904174.540    22904180.814
 96  7 11  1 18 59.9990000  0  8 23  3 21 17  1  9 31 28
  22223178.539     6116435.34249   4715400.14149  22223177.4174   22223181.4964
  21691964.462    -1071899.79949   -822880.57149  21691965.3264   21691970.6524
  20438559.434    -5294262.70349  -4115782.46849  20438560.2884   20438564.4704
  23438645.015    11068731.27949   8618107.07849  23438646.0534   23438652.9134
  20465232.812   -16340553.06649 -12714161.31249  20465233.9664   20465238.9214
  23662433.938    -6315096.23749  -4909246.02049  23662432.4004   23662438.8794
  22063395.869   -11890980.56149  -9248108.58049  22063397.0594   22063401.5074
  22921616.976    10490976.294 9   8172069.997 9  22921616.832    22921622.985
 96  7 11  1 19 29.9990000  0  8 23  3 21 17  1  9 31 28
  22232567.107     6165786.04649   4753855.21249  22232568.2674   22232573.0734
  21700747.509    -1025743.07149   -786914.31249  21700748.4314   21700754.0954
  20437494.621    -5299857.24849  -4120141.85249  20437495.4224   20437499.9604
  23455361.697    11156589.73449   8686568.15449  23455365.1704   23455372.0324
  20454994.488   -16394361.04149 -12756089.58049  20454994.6464   20454999.6824
  23664410.845    -6304713.86649  -4901155.81649  23664408.1864   23664414.2494
  22059832.886   -11909708.84249  -9262702.05549  22059833.1724   22059837.8284
  22939091.164    10582811.423 9   8243629.779 9  22939092.556    22939098.784
 96  7 11  1 19 59.9990000  0  8 23  3 21 17  1  9 31 28
  22241982.450     6215250.95349   4792399.28249  22241980.9054   22241986.0394
  21709623.965     -979096.44549   -750566.32349  21709625.0164   21709630.5024
  20436478.930    -5305196.30049  -4124302.15349  20436479.5524   20436484.2734
  23472129.202    11244695.24849   8755221.75249  23472131.1814   23472137.6974
  20444846.519   -16447686.82149 -12797642.11249  20444847.0874   20444851.8774
  23666480.475    -6293795.42349  -4892647.99949  23666486.7334   23666491.4444
  22056381.019   -11927847.69349  -9276836.23749  22056381.8204   22056386.3974
  22956602.514    10674825.385 9   8315328.908 9  22956602.284    22956608.425
 96  7 11  1 20 29.9990000  0  8 23  3 21 17  1  9 31 28
  22251415.247     6264820.64249   4831024.99249  22251413.8674   22251418.7534
  21718595.458     -931951.82649   -713830.28549  21718596.5534   21718602.1214
  20435512.044    -5310276.51049  -4128260.75949  20435512.6194   20435517.3894
  23488941.611    11333033.55749   8824056.73449  23488940.5804   23488948.7784
  20434794.095   -16500508.87649 -12838802.13249  20434795.2904   20434799.8014
  23668665.308    -6282340.00349  -4883721.69649  23668666.6274   23668671.9524
  22053040.384   -11945402.76649  -9290515.52549  22053040.9524   22053045.8234
  22974145.603    10767017.550 9   8387166.894 9  22974145.950    22974152.265
 96  7 11  1 20 59.9990000  0  8 23  3 21 17  1  9 31 28
  22260862.528     6314482.98649   4869722.90649  22260864.7514   22260869.5554
  21727658.710     -884325.77549   -676719.09649  21727659.6714   21727664.9814
  20434592.164    -5315110.60949  -4132027.58449  20434592.8624   20434597.4624
  23505790.366    11421583.52249   8893056.64849  23505791.9654   23505799.0114
  20424836.963   -16552836.13849 -12879576.59949  20424837.6654   20424842.3844
  23670949.327    -6270346.67349  -4874376.17949  23670948.3534   23670953.2904
  22049805.773   -11962403.44549  -9303762.81549  22049806.0944   22049810.7044
  22991721.568    10859374.607 9   8459133.375 9  22991721.232    22991727.184
 96  7 11  1 21 29.9990000  0  8 23  3 21 17  1  9 31 28
  22270332.299     6364244.19249   4908497.85449  22270333.7304   22270338.6464
  21736811.214     -836227.10149   -639239.63149  21736812.4064   21736817.8164
  20433714.272    -5319721.78749  -4135620.70449  20433715.5104   20433720.3154
  23522682.612    11510333.72449   8962212.60949  23522679.5994   23522686.9404
  20414975.375   -16604656.27249 -12919955.90249  20414976.6974   20414981.4704
  23673334.509    -6257803.73149  -4864602.48049  23673335.5934   23673340.3994
  22046675.455   -11978849.91049  -9316578.24949  22046675.9874   22046681.0604
  23009325.611    10951890.696 9   8531223.775 9  23009326.379    23009332.500
 96  7 11  1 21 59.9990000  0  8 23  3 21 17  1  9 31 28
  22279819.571     6414104.87649   4947350.32049  22279821.5834   22279826.7664
  21746056.103     -787643.66149   -601382.42449  21746057.2434   21746062.9364
  20432880.365    -5324106.16949  -4139037.10949  20432881.1594   20432885.8904
  23539601.827    11599269.63849   9031513.27549  23539604.2154   23539611.4214
  20405215.009   -16655953.20549 -12959927.51649  20405215.2604   20405219.8194
  23675830.244    -6244693.74549  -4854386.91249  23675830.0264   23675836.2634
  22043657.597   -11994710.12149  -9328936.85749  22043658.3994   22043663.2454
  23026962.487    11044570.792 9   8603441.969 9  23026962.771    23026968.815
 96  7 11  1 22 29.9990000  0  8 23  3 21 17  1  9 31 28
  22289333.130     6464086.23649   4986296.82249  22289332.9224   22289338.1414
  21755393.797     -738573.13349   -563145.67449  21755394.9284   21755400.9024
  20432092.962    -5328246.91349  -4142263.65849  20432093.3474   20432098.0764
  23556559.836    11688377.73149   9100948.09549  23556560.9574   23556568.0464
  20395554.737   -16706715.58149 -12999482.59349  20395555.3304   20395560.2304
  23678440.292    -6230994.72449  -4843712.32749  23678436.9114   23678441.3494
  22040753.266   -12009971.65349  -9340828.96849  22040753.7464   22040758.9404
  23044630.902    11137421.205 9   8675792.874 9  23044631.544    23044637.758
 96  7 11  1 22 59.9990000  0  8 23  3 21 17  1  9 31 28
  22298867.605     6514198.95149   5025345.67749  22298869.4264   22298874.4764
  21764820.480     -689039.08249   -524547.73649  21764821.2064   21764827.2244
  20431350.417    -5332146.05649  -4145301.95049  20431351.1944   20431356.1784
  23573552.333    11777663.13849   9170521.06749  23573551.3584   23573558.1394
  20385993.820   -16756958.85849 -13038633.17449  20385994.3444   20385999.3044
  23681149.158    -6216720.97749  -4832589.94749  23681153.5934   23681158.0954
  22037961.832   -12024645.61449  -9352263.22349  22037961.7044   22037966.6914
  23062330.547    11230430.502 9   8748267.598 9  23062330.883    23062336.821
 96  7 11  1 23 29.9990000  0  8 23  3 21 17  1  9 31 28
  22308430.351     6564443.86049   5064497.54149  22308430.7174   22308435.7744
  21774334.214     -639044.51749   -485590.96249  21774335.1264   21774340.3954
  20430656.858    -5335791.99949  -4148142.93949  20430657.5264   20430661.9634
  23590576.765    11867136.79549   9240240.75349  23590577.2204   23590584.5424
  20376532.700   -16806678.16249 -13077375.46349  20376532.9994   20376537.9424
  23683973.936    -6201882.93949  -4821027.81049  23683976.8994   23683982.6374
  22035284.052   -12038712.62349  -9363224.53349  22035284.9064   22035290.1974
  23080059.886    11323595.276 9   8820863.466 9  23080059.518    23080065.570
 96  7 11  1 23 59.9990000  0  8 23  3 21 17  1  9 31 28
  22318017.853     6614824.16049   5103754.91549  22318017.7564   22318022.1054
  21783934.689     -588592.05549   -446277.37749  21783936.0594   21783941.2594
  20430013.181    -5339175.05949  -4150779.08449  20430013.7704   20430018.1924
  23607642.819    11956810.86549   9310116.60549  23607641.3354   23607648.3444
  20367168.751   -16855885.08949 -13115718.49549  20367169.3834   20367174.3184
  23686904.470    -6186488.45449  -4809032.11149  23686906.6554   23686911.8214
  22032720.595   -12052184.01849  -9373721.72949  22032720.9214   22032726.1474
  23097816.894    11416913.142 9   8893578.624 9  23097817.252    23097823.504
 96  7 11  1 24 29.9990000  0  8 23  3 21 17  1  9 31 28
  22327627.562     6665333.27249   5143112.65649  22327629.2784   22327633.8684
  21793618.558     -537702.38049   -406623.11149  21793619.8514   21793624.9424
  20429418.614    -5342297.54649  -4153212.18949  20429419.4654   20429424.4054
  23624748.329    12046710.58349   9380168.28949  23624749.4034   23624756.3304
  20357902.435   -16904581.05249 -13153663.38249  20357902.5964   20357907.8394
  23689938.228    -6170548.21849  -4796611.16649  23689939.8864   23689945.5964
  22030266.966   -12065077.29949  -9383768.45049  22030267.6614   22030272.3254
  23115601.944    11510378.507 9   8966408.706 9  23115603.018    23115609.434
 96  7 11  1 24 59.9990000  0  8 23  3 21 17  1  9 31 28
  22337261.690     6715953.61249   5182557.06149  22337261.6194   22337266.3914
  21803383.483     -486388.51949   -366638.30849  21803384.7454   21803389.8934
  20428874.232    -5345160.91649  -4155443.38549  20428874.5484   20428879.6254
  23641903.037    12136852.73249   9450408.87049  23641902.5774   23641908.7724
  20348733.103   -16952764.47349 -13191208.88649  20348733.6394   20348738.7364
  23693074.927    -6154074.21249  -4783774.23749  23693072.7734   23693079.7164
  22027924.792   -12077383.76149  -9393357.90949  22027925.7744   22027930.8884
  23133415.989    11603989.668 9   9039352.400 9  23133416.897    23133422.860
 96  7 11  1 25 29.9990000  0  8 23  3 21 17  1  9 31 28
  22346909.853     6766671.08149   5222077.15049  22346912.8384   22346917.8064
  21813233.486     -434629.46149   -326306.59349  21813234.1054   21813239.2834
  20428378.122    -5347767.59549  -4157474.55849  20428378.6334   20428383.3344
  23659101.565    12227238.91749   9520839.60349  23659103.0394   23659109.3664
  20339661.421   -17000439.56749 -13228358.29049  20339661.4744   20339666.5454
  23696311.683    -6137049.34149  -4770508.13049  23696314.0134   23696319.7074
  22025696.864   -12089093.80649  -9402482.62649  22025697.4794   22025702.0914
  23151258.891    11697749.833 9   9112412.208 9  23151258.913    23151265.154
 96  7 11  1 25 59.9990000  0  8 23  3 21 17  1  9 31 28
  22356582.600     6817480.43949   5261668.84449  22356581.4174   22356586.4184
  21823166.527     -382429.49149   -285631.31249  21823167.4904   21823172.7144
  20427926.426    -5350141.75749  -4159324.54749  20427926.7674   20427931.3034
  23676340.528    12317839.95149   9591437.74949  23676344.0064   23676350.7584
  20330679.802   -17047635.29249 -13265134.15849  20330680.4624   20330685.2444
  23699660.044    -6119488.17849  -4756824.06049  23699654.9404   23699661.6884
  22023576.754   -12100231.21749  -9411161.13449  22023577.8934   22023582.9214
  23169124.648    11791643.236 9   9185575.834 9  23169126.032    23169132.619
 96  7 11  1 26 29.9990000  0  8 23  3 21 17  1  9 31 28
  22366267.926     6868392.52749   5301340.58249  22366269.5454   22366274.7534
  21833185.905     -329772.92149   -244600.24849  21833187.7614   21833193.1154
  20427522.854    -5352262.86149  -4160977.35749  20427523.3034   20427527.7644
  23693623.362    12408645.89349   9662195.56649  23693622.9534   23693630.4994
  20321792.744   -17094340.29049 -13301527.64449  20321792.6694   20321797.6534
  23703097.589    -6101384.97449  -4742717.71449  23703100.2464   23703105.1534
  22021572.269   -12110771.05549  -9419374.00549  22021572.5834   22021577.7164
  23187020.689    11885682.729 9   9258853.293 9  23187021.319    23187027.629
 96  7 11  1 26 59.9990000  0  8 23  3 21 17  1  9 31 28
  22375978.265     6919403.49249   5341089.37349  22375976.8964   22375981.6664
  21843295.762     -276648.86949   -203204.91649  21843297.3734   21843301.9734
  20427164.929    -5354141.51249  -4162441.24249  20427165.6454   20427170.1084
  23710934.593    12499626.34049   9733089.35149  23710936.8544   23710943.1594
  20312993.151   -17140575.61849 -13337555.15549  20312994.3224   20312999.0724
  23706649.217    -6082765.29949  -4728208.85549  23706643.4504   23706648.9024
  22019680.005   -12120716.13849  -9427123.43049  22019680.2344   22019684.9824
  23204942.124    11979855.624 9   9332234.698 9  23204942.023    23204948.460
 96  7 11  1 27 29.9990000  0  8 23  3 21 17  1  9 31 28
  22385703.406     6970518.90149   5380919.54749  22385703.9754   22385709.0984
  21853493.229     -223058.57349   -161446.26949  21853494.4974   21853500.0064
  20426850.583    -5355794.13549  -4163728.99649  20426851.1844   20426855.5774
  23728280.359    12590767.86449   9804108.64649  23728280.3614   23728286.3494
  20304281.721   -17186358.00849 -13373229.72449  20304282.1884   20304286.8284
  23710282.388    -6063637.10149  -4713303.79949  23710284.0184   23710289.3074
  22017895.510   -12130091.03149  -9434428.54849  22017896.0204   22017900.7264
  23222884.126    12074148.811 9   9405709.846 9  23222885.247    23222891.921
 96  7 11  1 27 59.9990000  0  8 23  3 21 17  1  9 31 28
  22395455.894     7021761.70549   5420848.98649  22395455.2024   22395460.1824
  21863777.826     -169015.34449   -119334.68249  21863778.7544   21863784.3044
  20426582.964    -5357202.98149  -4164826.79849  20426583.2614   20426587.7594
  23745658.542    12682075.31149   9875257.23949  23745656.3744   23745663.1274
  20295663.409   -17231647.04649 -13408519.86349  20295664.1064   20295668.8564
  23714018.727    -6043999.89449  -4698002.04749  23714020.7224   23714025.4384
  22016223.733   -12138879.55949  -9441276.76049  22016223.5124   22016228.1384
  23240852.080    12168570.201 9   9479284.888 9  23240853.052    23240859.659
 96  7 11  1 28 29.9990000  0  8 23  3 21 17  1  9 31 28
  22405225.736     7073116.58949   5460865.75749  22405227.3024   22405232.2924
  21874143.952     -114538.90249    -76885.53149  21874145.2824   21874150.5954
  20426361.406    -5358365.81949  -4165732.90849  20426361.9634   20426366.4744
  23763064.041    12773566.86549   9946549.30349  23763065.8174   23763071.9414
  20287143.119   -17276421.56149 -13443409.07449  20287143.8324   20287148.7104
  23717851.338    -6023849.49149  -4682300.45149  23717855.4884   23717861.1664
  22014664.617   -12147069.30849  -9447658.38749  22014665.3654   22014670.0394
  23258843.855    12263114.208 9   9552955.493 9  23258844.254    23258850.759
 96  7 11  1 28 59.9990000  0  8 23  3 21 17  1  9 31 28
  22415024.115     7124590.47549   5500975.27349  22415022.3654   22415027.6454
  21884595.584      -59618.64949    -34090.54749  21884596.1874   21884601.7674
  20426186.051    -5359284.99849  -4166449.14649  20426187.1274   20426191.5664
  23780514.013    12865268.99249  10018005.43849  23780515.3274   23780521.8754
  20278725.399   -17320657.27749 -13477878.43749  20278725.9744   20278730.8384
  23721795.838    -6003151.68649  -4666172.27049  23721794.1854   23721799.0914
  22013223.012   -12154647.47649  -9453563.46549  22013222.9894   22013228.0184
  23276859.303    12357785.742 9   9626725.463 9  23276859.775    23276865.994
 96  7 11  1 29 29.9990000  0  8 23  3 21 17  1  9 31 28
  22424843.166     7176192.62049   5541184.72449  22424842.2224   22424847.1094
  21895129.845       -4260.62749      9045.55849  21895130.3924   21895136.3804
  20426059.551    -5359951.30749  -4166968.34549  20426060.1124   20426064.6674
  23798004.908    12957183.58649  10089627.14149  23798006.4924   23798014.0464
  20270413.704   -17364332.55249 -13511911.09749  20270414.6164   20270419.6714
  23725834.154    -5981884.01449  -4649600.10049  23725840.9884   23725846.0864
  22011897.738   -12161613.19249  -9458991.31149  22011897.7714   22011902.6864
  23294899.086    12452585.482 9   9700595.322 9  23294899.399    23294906.297
 96  7 11  1 29 59.9990000  0  8 23  3 21 17  1  9 31 28
  22434682.915     7227907.97549   5581482.37949  22434682.6474   22434688.2304
  21905745.402       51523.70249     52513.84849  21905746.1414   21905751.9864
  20425983.777    -5360352.60349  -4167281.04149  20425983.9164   20425988.3384
  23815536.442    13049296.56949  10161403.44049  23815536.2294   23815542.0334
  20262208.701   -17407454.54249 -13545512.62949  20262209.0494   20262213.7594
  23729993.016    -5960061.11749  -4632595.22149  23729993.6794   23729999.7934
  22010688.043   -12167967.15149  -9463942.46149  22010688.5844   22010693.2724
  23312960.510    12547502.117 9   9774556.261 9  23312961.686    23312968.281
 96  7 11  1 30 29.9990000  0  8 23  3 21 17  1  9 31 28
  22444543.634     7279725.11449   5621859.34249  22444543.7164   22444549.4324
  21916445.277      107755.95549     96331.15749  21916446.9784   21916452.7774
  20425956.614    -5360493.52249  -4167390.84549  20425956.9434   20425961.5374
  23833102.736    13141611.40649  10233337.02749  23833103.0614   23833109.1354
  20254102.896   -17450049.37049 -13578703.38649  20254103.5254   20254108.4764
  23734248.427    -5937687.12249  -4615160.95549  23734251.9964   23734256.6644
  22009592.608   -12173725.65149  -9468429.61849  22009592.3194   22009597.2504
  23331045.375    12642532.334 9   9848605.705 9  23331045.233    23331051.937
 96  7 11  1 30 59.9990000  0  8 23  3 21 17  1  9 31 28
  22454424.823     7331654.89949   5662324.08149  22454425.8754   22454431.0954
  21927232.949      164439.16649    140499.86549  21927233.6324   21927239.1864
  20425978.070    -5360378.10749  -4167300.91249  20425978.9534   20425983.4144
  23850705.581    13234112.62149  10305415.84949  23850704.8924   23850710.7274
  20246096.499   -17492123.20249 -13611488.16649  20246096.9064   20246102.0164
  23738616.067    -5914774.26049  -4597306.74649  23738611.4484   23738616.7694
  22008604.082   -12178914.17049  -9472472.62549  22008605.1874   22008609.8794
  23349148.677    12737669.867 9   9922738.773 9  23349149.442    23349156.081
 96  7 11  1 31 29.9990000  0  8 23  3 21 17  1  9 31 28
  22464333.455     7383707.27649   5702884.35949  22464331.0944   22464336.4334
  21938102.146      221560.03949    185009.60649  21938103.0024   21938108.6964
  20426051.110    -5359997.11449  -4167004.03549  20426051.4284   20426056.1194
  23868338.526    13326785.10049  10377628.11449  23868339.8144   23868347.1374
  20238186.954   -17533690.00249 -13643877.86149  20238186.9654   20238191.8664
  23743066.803    -5891356.35549  -4579059.04549  23743068.1534   23743072.7744
  22007724.305   -12183539.16649  -9476076.53049  22007725.1204   22007729.9054
  23367271.607    12832908.724 9   9996950.797 9  23367272.844    23367279.240
 96  7 11  1 31 59.9990000  0  8 23  3 21 17  1  9 31 28
  22474257.233     7435886.02149   5743543.09849  22474260.1064   22474265.5044
  21949053.594      279113.05349    229856.07849  21949055.1504   21949060.6614
  20426174.803    -5359347.74449  -4166498.03349  20426174.8584   20426179.5304
  23886009.228    13419638.31249  10449981.19449  23886010.1384   23886017.0804
  20230372.478   -17574753.69849 -13675875.53249  20230373.0344   20230377.5794
  23747623.083    -5867423.88949  -4560410.37249  23747621.9274   23747626.7874
  22006955.276   -12187581.03449  -9479226.05849  22006955.6414   22006960.8514
  23385416.753    12928255.553 9  10071246.954 9  23385416.777    23385423.380
 96  7 11  1 32 29.9990000  0  8 23  3 21 17  1  9 31 28
  22484212.241     7488188.57749   5784298.31049  22484213.0424   22484218.2474
  21960087.227      337095.29749    275037.02049  21960088.4924   21960094.4644
  20426342.833    -5358462.08149  -4165807.90549  20426343.5624   20426348.2674
  23903715.278    13512671.17549  10522474.27349  23903713.5214   23903720.6274
  20222652.925   -17615318.10149 -13707484.14149  20222654.0234   20222658.5984
  23752275.697    -5842968.09249  -4541353.91749  23752275.9984   23752280.6454
  22006297.849   -12191038.70449  -9481920.35449  22006298.1064   22006302.7454
  23403579.629    13023704.066 9  10145622.338 9  23403580.234    23403586.481
 96  7 11  1 32 59.9990000  0  8 23  3 21 17  1  9 31 28
  22494189.513     7540620.68649   5825154.47849  22494190.6484   22494196.1684
  21971197.726      395480.34149    320531.82949  21971198.9814   21971204.6304
  20426555.390    -5357343.60649  -4164936.37049  20426556.3704   20426560.8284
  23921445.444    13605869.15949  10595096.03149  23921447.4354   23921455.2674
  20215028.135   -17655389.59749 -13738708.67249  20215028.5854   20215033.1854
  23757027.741    -5817984.04249  -4521885.84949  23757031.0834   23757035.1754
  22005751.346   -12193908.53849  -9484156.60549  22005752.3994   22005757.0124
  23421761.400    13119246.373 9  10220070.807 9  23421761.554    23421767.983
 96  7 11  1 33 29.9990000  0  8 23  3 21 17  1  9 31 28
  22504190.959     7593170.61149   5866102.45249  22504190.5264   22504195.5664
  21982383.712      454262.01149    366335.69549  21982384.9584   21982390.2494
  20426813.132    -5355991.36249  -4163882.67449  20426813.5074   20426817.9654
  23939215.012    13699236.04849  10667849.38849  23939215.6124   23939222.4914
  20207494.720   -17694975.93649 -13769555.15949  20207495.7564   20207500.0064
  23761890.059    -5792462.39049  -4501998.82049  23761886.8534   23761892.1274
  22005320.391   -12196173.73649  -9485921.70949  22005321.0384   22005325.7644
  23439960.535    13214886.341 9  10294595.386 9  23439961.315    23439967.694
 96  7 11  1 33 59.9990000  0  8 23  3 21 17  1  9 31 28
  22514210.198     7645826.51049   5907133.00549  22514210.9054   22514215.8244
  21993645.838      513444.40349    412451.81849  21993647.0614   21993651.9974
  20427114.135    -5354407.71449  -4162648.66649  20427115.0624   20427119.5924
  23957014.262    13792772.98449  10740735.25349  23957015.3364   23957022.1194
  20200055.071   -17734067.37849 -13800016.01049  20200056.6084   20200061.1424
  23766847.525    -5766383.29749  -4481677.46949  23766848.7234   23766855.1014
  22005003.520   -12197839.66949  -9487219.85949  22005004.1454   22005008.8694
  23458179.538    13310626.620 9  10369198.125 9  23458180.247    23458186.496
 96  7 11  1 34 29.9990000  0  8 23  3 21 17  1  9 31 28
  22524250.097     7698578.51549   5948238.44249  22524249.3674   22524254.1814
  22004984.292      573027.55449    458880.21949  22004985.7184   22004990.5654
  20427459.379    -5352595.59249  -4161236.62949  20427459.9374   20427464.3674
  23974845.724    13886478.80949  10813752.72149  23974846.4634   23974853.9244
  20192713.236   -17772655.60949 -13830084.73649  20192713.4164   20192718.0224
  23771914.029    -5739758.49049  -4460930.87249  23771916.8904   23771921.8104
  22004795.789   -12198934.85049  -9488073.26049  22004795.8844   22004800.8834
  23476415.913    13406456.403 9  10443870.618 9  23476416.007    23476422.447
 96  7 11  1 34 59.9990000  0  8 23  3 21 17  1  9 31 28
  22534305.840     7751427.74449   5989419.65149  22534305.8114   22534310.8344
  22016396.282      632998.48549    505610.78649  22016397.2374   22016402.6034
  20427854.867    -5350517.61749  -4159617.43249  20427855.1774   20427859.6954
  23992709.398    13980355.49649  10886903.29849  23992710.7414   23992718.3864
  20185469.336   -17810722.42049 -13859747.16349  20185469.5504   20185474.0414
  23777080.102    -5712593.62949  -4439763.45849  23777085.6824   23777089.7954
  22004694.610   -12199460.32349  -9488482.74249  22004695.0404   22004700.4444
  23494668.056    13502379.145 9  10518615.541 9  23494669.512    23494675.989
 96  7 11  1 35 29.9990000  0  8 23  3 21 17  1  9 31 28
  22544379.955     7804371.74649   6030674.69849  22544380.7674   22544386.4644
  22027883.497      693367.80949    552651.79249  22027885.1524   22027890.1344
  20428303.798    -5348157.45849  -4157778.34849  20428304.6794   20428308.9664
  24010607.703    14074413.63149  10960195.28749  24010609.3864   24010617.1164
  20178327.654   -17848252.27149 -13888991.18549  20178327.7954   20178332.2404
  23782352.211    -5684891.20449  -4418177.15049  23782357.4304   23782361.7944
  22004704.638   -12199409.69649  -9488443.30649  22004705.2724   22004710.3794
  23512941.763    13598396.571 9  10593434.239 9  23512940.946    23512947.776
 96  7 11  1 35 59.9990000  0  8 23  3 21 17  1  9 31 28
  22554476.585     7857430.20949   6072018.93249  22554477.6974   22554482.4944
  22039452.728      754162.64449    600024.35549  22039454.0174   22039459.6474
  20428810.923    -5345495.27649  -4155703.92549  20428811.3334   20428815.7694
  24028541.506    14168660.35949  11033634.22949  24028544.5694   24028551.4454
  20171289.333   -17885233.03449 -13917807.34049  20171290.5944   20171295.2314
  23787728.018    -5656634.49949  -4396158.93849  23787733.5424   23787739.6884
  22004825.938   -12198773.69449  -9487947.73949  22004826.1764   22004831.1004
  23531229.012    13694511.498 9  10668328.902 9  23531230.941    23531237.999
 96  7 11  1 36 29.9990000  0  8 23  3 21 17  1  9 31 28
  22564591.325     7910577.51149   6113432.39749  22564591.0944   22564596.7084
  22051098.018      815358.67049    647709.53449  22051098.9384   22051104.7104
  20429368.267    -5342563.13249  -4153419.14349  20429369.2684   20429373.6154
  24046514.491    14263089.65549  11107215.43949  24046513.6934   24046521.5104
  20164352.305   -17921691.53649 -13946216.54249  20164352.7754   20164357.3594
  23793206.279    -5627857.75149  -4373735.50149  23793210.2194   23793215.1994
  22005054.174   -12197572.88849  -9487012.06849  22005054.9294   22005059.8494
  23549533.362    13790693.276 9  10743275.650 9  23549533.799    23549540.304
 96  7 11  1 36 59.9990000  0  8 23  3 21 17  1  9 31 28
  22574722.403     7963825.58149   6154924.38449  22574724.3314   22574729.3974
  22062821.862      876966.43049    695715.54149  22062822.2364   22062828.5794
  20429978.790    -5339354.91249  -4150919.23349  20429979.5254   20429983.9064
  24064515.140    14357706.64849  11180942.89349  24064519.4524   24064527.4164
  20157512.820   -17957632.04349 -13974222.11149  20157513.6114   20157518.0914
  23798782.974    -5598556.22449  -4350903.15149  23798786.1484   23798790.6164
  22005393.887   -12195785.30949  -9485619.17349  22005394.7784   22005399.8434
  23567850.052    13886949.148 9  10818280.152 9  23567850.889    23567857.240
 96  7 11  1 37 29.9990000  0  8 23  3 21 17  1  9 31 28
  22584877.938     8017194.37249   6196510.43349  22584879.8804   22584885.2774
  22074629.467      939016.00549    744065.81849  22074630.2674   22074635.9694
  20430637.051    -5335894.70249  -4148222.96949  20430637.7924   20430642.5744
  24082561.533    14452518.17049  11254821.92949  24082560.9384   24082568.3964
  20150771.502   -17993056.46449 -14001825.53849  20150772.2474   20150777.0994
  23804458.905    -5568710.27249  -4327646.63349  23804465.8264   23804470.5194
  22005849.758   -12193397.96249  -9483758.91349  22005849.5314   22005854.3074
  23586184.597    13983287.065 9  10893348.594 9  23586183.654    23586189.952
 96  7 11  1 37 59.9990000  0  8 23  3 21 17  1  9 31 28
  22595056.913     8070676.69249   6238184.95349  22595057.2254   22595062.3904
  22086518.883     1001496.45949    792751.86149  22086519.8394   22086525.4834
  20431339.227    -5332206.79749  -4145349.27749  20431339.6884   20431344.2284
  24100638.124    14547519.22349  11328848.67049  24100638.8094   24100646.1474
  20144128.499   -18027964.35949 -14029026.47749  20144129.5234   20144134.2714
  23810249.350    -5538322.29149  -4303967.72449  23810248.7944   23810253.4354
  22006413.685   -12190428.95249  -9481445.40749  22006414.5684   22006419.2134
  23604528.144    14079699.700 9  10968475.252 9  23604530.423    23604536.811
 96  7 11  1 38 29.9990000  0  8 23  3 21 17  1  9 31 28
  22605253.818     8124262.64649   6279940.22849  22605254.2404   22605259.7814
  22098483.407     1064370.31349    841744.44949  22098484.6544   22098489.8654
  20432082.816    -5328296.69149  -4142302.44349  20432083.6304   20432088.4744
  24118746.935    14642703.02749  11403017.79449  24118751.8064   24118759.6394
  20137584.830   -18062351.76049 -14055821.83349  20137585.6274   20137590.2844
  23816130.119    -5507406.37849  -4279877.38749  23816131.1054   23816135.8434
  22007087.799   -12186887.06349  -9478685.51249  22007088.4314   22007093.4954
  23622890.743    14176183.266 9  11043657.161 9  23622890.570    23622897.208
 96  7 11  1 38 59.9990000  0  8 23  3 21 17  1  9 31 28
  22615472.485     8177961.25049   6321783.28349  22615472.5014   22615478.3884
  22110522.733     1127638.32949    891044.18049  22110524.0114   22110529.5814
  20432872.823    -5324147.69849  -4139069.46149  20432873.2684   20432877.7774
  24136895.299    14738052.45249  11477315.97649  24136896.1084   24136904.0924
  20131142.058   -18096211.53449 -14082206.04949  20131142.6714   20131147.3544
  23822112.672    -5475956.12149  -4255370.63049  23822115.7414   23822121.4314
  22007871.677   -12182768.26849  -9475476.08049  22007872.4234   22007877.5154
  23641263.342    14272737.755 9  11118894.331 9  23641264.362    23641270.748
 96  7 11  1 39 29.9990000  0  8 23  3 21 17  1  9 31 28
  22625709.672     8231770.04349   6363712.18249  22625712.4514   22625717.7494
  22122634.549     1191283.13849    940637.51749  22122635.4934   22122641.0634
  20433707.919    -5319757.93849  -4135648.86549  20433708.6454   20433713.2324
  24155072.746    14833563.93049  11551740.42249  24155071.3274   24155079.3754
  20124801.456   -18129530.53349 -14108168.88649  20124802.2124   20124807.1384
  23828204.128    -5443971.84049  -4230447.82849  23828202.2394   23828207.6834
  22008763.527   -12178081.32249  -9471823.93149  22008764.2454   22008768.9754
  23659649.715    14369356.636 9  11194181.682 9  23659650.257    23659656.896
 96  7 11  1 39 59.9990000  0  8 23  3 21 17  1  9 31 28
  22635969.201     8285671.88249   6405713.58849  22635970.3454   22635975.2654
  22134812.201     1255280.57949    990505.62649  22134813.4624   22134819.3654
  20434593.518    -5315101.24249  -4132020.27049  20434594.7604   20434599.2684
  24173275.312    14929247.00449  11626298.58349  24173279.1724   24173287.0724
  20118562.845   -18162316.18149 -14133716.12449  20118563.3304   20118568.2974
  23834386.960    -5411463.19249  -4205116.40149  23834389.1804   23834394.0274
  22009763.578   -12172827.87249  -9467730.35049  22009763.4044   22009768.9204
  23678046.397    14466033.742 9  11269514.408 9  23678047.431    23678054.072
 96  7 11  1 40 29.9990000  0  8 23  3 21 17  1  9 31 28
  22646248.399     8339687.77449   6447803.86749  22646248.6924   22646254.5394
  22147060.692     1319645.94549   1040660.42849  22147062.1814   22147067.9774
  20435534.081    -5310162.81649  -4128172.15049  20435534.2984   20435538.9204
  24191522.772    15025111.77149  11700998.34049  24191522.4114   24191530.1344
  20112425.674   -18194565.58549 -14158845.51249  20112426.4364   20112431.5694
  23840673.143    -5378430.64549  -4179376.76749  23840675.5274   23840679.9864
  22010875.531   -12166983.46249  -9463176.28249  22010875.9524   22010880.9374
  23696457.921    14562777.947 9  11344899.419 9  23696457.565    23696463.867
 96  7 11  1 40 59.9990000  0  8 23  3 21 17  1  9 31 28
  22656545.996     8393809.90649   6489976.93849  22656547.6454   22656553.2994
  22159380.267     1384384.59949   1091106.10049  22159381.5494   22159387.0834
  20436521.068    -5304974.24749  -4124129.11149  20436521.9874   20436526.6324
  24209794.574    15121141.33949  11775826.47049  24209796.3074   24209803.6074
  20106385.946   -18226305.96249 -14183578.25849  20106386.3994   20106391.5634
  23847054.015    -5344899.79449  -4153248.83649  23847056.2704   23847059.6634
  22012097.512   -12160563.27749  -9458173.55849  22012097.7634   22012102.8474
  23714874.560    14659569.848 9  11420321.606 9  23714876.680    23714882.850
 96  7 11  1 41 29.9990000  0  8 23  3 21 17  1  9 31 28
  22666864.718     8448029.60449   6532226.03049  22666864.9904   22666870.2904
  22171767.894     1449481.58449   1141830.99649  22171769.2904   22171774.7884
  20437555.346    -5299542.58249  -4119896.64149  20437555.3684   20437559.7574
  24228101.492    15217336.82949  11850783.93949  24228101.0034   24228107.6694
  20100438.736   -18257557.58749 -14207930.15549  20100439.5814   20100444.3874
  23853530.750    -5310874.78249  -4126735.85049  23853529.6824   23853535.3844
  22013428.368   -12153563.54649  -9452719.24149  22013429.4104   22013434.7004
  23733303.453    14756406.635 9  11495778.766 9  23733303.961    23733310.137
 96  7 11  1 41 59.9990000  0  8 23  3 21 17  1  9 31 28
  22677204.424     8502360.20949   6574561.54049  22677204.6664   22677209.0114
  22184227.801     1514959.57649   1192852.77349  22184229.0604   22184234.7724
  20438636.699    -5293858.99549  -4115467.87049  20438637.0174   20438641.7264
  24246436.211    15313699.35449  11925871.56049  24246438.7514   24246445.6584
  20094583.693   -18288324.60549 -14231904.44049  20094584.6224   20094589.6794
  23860098.779    -5276355.12949  -4099837.41949  23860098.9304   23860104.1184
  22014875.776   -12145962.59149  -9446796.43749  22014876.1434   22014881.2064
  23751742.851    14853299.768 9  11571279.820 9  23751742.187    23751748.459
 96  7 11  1 42 29.9990000  0  8 23  3 21 17  1  9 31 28
  22687564.576     8556806.30149   6616987.04449  22687565.5694   22687570.7874
  22196758.219     1580809.79849   1244164.61849  22196760.2664   22196765.3974
  20439761.789    -5287948.78949  -4110862.51649  20439761.6504   20439766.5394
  24264799.281    15410198.35849  12001065.53749  24264802.0824   24264807.5654
  20088822.317   -18318605.43949 -14255499.88049  20088822.4854   20088827.2464
  23866760.993    -5241358.23649  -4072567.13549  23866759.1224   23866763.6004
  22016432.974   -12137777.06549  -9440418.12549  22016434.2754   22016438.7234
  23770188.001    14950234.118 9  11646813.001 9  23770188.201    23770194.806
 96  7 11  1 42 59.9990000  0  8 23  3 21 17  1  9 31 28
  22697947.613     8611367.70349   6659502.39849  22697947.4924   22697952.5514
  22209358.417     1647020.38749   1295757.26049  22209359.5884   22209364.9994
  20440933.417    -5281790.27249  -4106063.67149  20440933.8794   20440938.2414
  24283191.440    15506832.48749  12076364.80649  24283190.7654   24283197.0024
  20083153.168   -18348393.44249 -14278711.29549  20083153.8124   20083158.6464
  23873512.457    -5205867.00449  -4044911.63949  23873512.1924   23873516.8874
  22018100.786   -12129016.37449  -9433591.62549  22018100.9414   22018105.6794
  23788641.695    15047209.041 9  11722377.793 9  23788641.927    23788648.351
 96  7 11  1 43 29.9990000  0  8 23  3 21 17  1  9 31 28
  22708349.911     8666039.79449   6702103.99849  22708352.0124   22708357.5154
  22222023.036     1713575.78249   1347618.57649  22222024.7904   22222030.5554
  20442156.652    -5275360.24949  -4101053.26349  20442157.3854   20442161.6924
  24301604.112    15603603.83549  12151771.02349  24301606.1194   24301613.0834
  20077581.701   -18377672.01449 -14301525.74849  20077582.3894   20077587.2424
  23880361.358    -5169864.29249  -4016857.59249  23880363.2914   23880369.1474
  22019877.358   -12119678.94749  -9426315.71949  22019877.9894   22019882.7814
  23807101.397    15144220.242 9  11797970.846 9  23807102.287    23807109.265
 96  7 11  1 43 59.9990000  0  9 23 15  3 21 17  1  9 31 28
  22718781.536     8720849.07949   6744812.50849  22718781.4144   22718786.5774
  24229059.243    -4875924.96559  -3774448.79859  24229061.1074   24229067.9224
  22234757.720     1780490.85349   1399760.15049  22234758.0494   22234764.1604
  20443433.010    -5268652.02449  -4095826.07249  20443433.8784   20443438.2694
  24320049.143    15700527.63749  12227296.02149  24320050.3944   24320056.6114
  20072112.326   -18406413.08049 -14323921.36549  20072113.1774   20072118.1124
  23887313.681    -5133334.96649  -3988393.22249  23887314.4754   23887319.5964
  22021760.954   -12109779.22649  -9418601.66549  22021761.2194   22021766.8564
  23825570.874    15241273.161 9  11873596.416 9  23825571.281    23825577.585
 96  7 11  1 44 29.9990000  0  9 23 15  3 21 17  1  9 31 28
  22729237.826     8775786.90349   6787621.17449  22729235.3904   22729240.4714
  24206574.871    -4994095.80949  -3866529.95149  24206572.7244   24206582.4224
  22247555.941     1847748.01649   1452168.28949  22247556.6464   22247562.1074
  20444761.006    -5261674.40749  -4090388.97349  20444761.5394   20444765.8114
  24338522.937    15797602.55649  12302938.74849  24338522.7574   24338529.5624
  20066747.297   -18434607.99549 -14345891.41149  20066747.8984   20066752.8154
  23894361.731    -5096275.12949  -3959515.41949  23894366.3094   23894371.9214
  22023746.397   -12099345.78449  -9410471.71849  22023747.0454   22023752.0004
  23844043.123    15338354.377 9  11949244.042 9  23844044.840    23844051.324
 96  7 11  1 44 59.9990000  0  9 23 15  3 21 17  1  9 31 28
  22739713.276     8830851.84749   6830528.90149  22739713.6984   22739719.2814
  24184095.493    -5112216.10649  -3958571.66149  24184095.0064   24184102.2804
  22260420.378     1915352.76349   1504847.27849  22260421.3984   22260427.4164
  20446142.890    -5254415.51649  -4084732.69549  20446142.9164   20446147.3334
  24357027.280    15894843.48849  12378710.84249  24357027.3504   24357034.1724
  20061486.952   -18462247.59849 -14367428.75249  20061488.1544   20061493.1104
  23901522.123    -5058664.30849  -3930208.31449  23901523.7314   23901528.2124
  22025835.435   -12088368.18649  -9401917.75349  22025836.0564   22025841.1204
  23862524.746    15435473.263 9  12024921.024 9  23862526.314    23862532.675
 96  7 11  1 45 29.9990000  0  9 23 15  3 21 17  1  9 31 28
  22750214.750     8886027.08749   6873522.57149  22750213.3994   22750219.2934
  24161627.372    -5230296.93749  -4050582.68649  24161625.8054   24161632.2044
  22273349.817     1983293.44649   1557788.04949  22273350.3684   22273355.8114
  20447570.174    -5246914.81049  -4078887.99249  20447570.1214   20447574.7464
  24375558.385    15992233.63149  12454599.17549  24375559.4644   24375568.1834
  20056329.944   -18489354.41249 -14388550.92949  20056330.0294   20056334.5844
  23908777.292    -5020529.10549  -3900492.58649  23908781.9414   23908786.7694
  22028025.849   -12076859.44349  -9392949.91449  22028025.7424   22028031.2674
  23881010.727    15532613.120 9  12100614.334 9  23881011.595    23881017.607
 96  7 11  1 45 59.9990000  0 10 23 15  3 21 17  1  9 31 28 25
  22760734.510     8941316.34049   6916605.08449  22760734.9364   22760740.4404
  24139164.773    -5348330.55649  -4142556.85449  24139164.0204   24139171.2874
  22286342.894     2051576.77249   1610995.80849  22286344.0454   22286350.0354
  20449040.059    -5239185.61349  -4072865.23849  20449040.8954   20449045.4084
  24394118.732    16089767.63049  12530599.61249  24394120.5084   24394127.0874
  20051269.482   -18515944.41249 -14409270.39549  20051270.1034   20051274.8704
  23916133.250    -4981878.66749  -3870375.39749  23916136.3094   23916140.9484
  22030317.187   -12064821.67449  -9383569.85149  22030316.9534   22030322.5064
  23899501.653    15629776.966 9  12176326.339 9  23899501.245    23899507.656
  24601921.841    -3703026.59359  -2872470.93759  24601924.0544   24601931.8524
 96  7 11  1 46 29.9990000  0  9 23 15  3 21  1  9 31 28 25
  22771273.243     8996709.92349   6959768.89649  22771275.6024   22771281.1234
  24116714.417    -5466307.30049  -4234486.78349  24116714.7594   24116721.3614
  22299404.514     2120214.61349   1664479.80749  22299405.8224   22299411.2444
  20450556.380    -5231220.79449  -4066658.88949  20450556.7554   20450561.4944
  20046307.346   -18542019.50149 -14429588.63249  20046308.2034   20046312.5584
  23923585.034    -4942712.77449  -3839856.53849  23923588.6204   23923593.4284
  22032714.283   -12052219.27949  -9373749.82849  22032714.7624   22032720.7584
  23917995.811    15726969.393 9  12252060.611 9  23917996.243    23918002.571
  24580796.342    -3814056.63549  -2958987.72649  24580795.7294   24580802.6874
 96  7 11  1 46 59.9990000  0  9 23 15  3 21  1  9 31 28 25
  22781833.835     9052200.15749   7003008.01849  22781835.4034   22781841.2564
  24094273.108    -5584236.58649  -4326379.66349  24094274.9004   24094277.6234
  22312531.038     2189194.50449   1718230.32349  22312531.9324   22312537.7794
  20452112.370    -5223040.67449  -4060284.77149  20452113.1944   20452117.8644
  20041437.632   -18567608.82749 -14449528.34949  20041438.4154   20041443.0744
  23931136.968    -4903052.59549  -3808952.50249  23931136.6844   23931139.8044
  22035222.473   -12039040.91149  -9363480.99049  22035222.8294   22035227.9744
  23936493.226    15824176.199 9  12327806.076 9  23936494.552    23936500.625
  24559651.240    -3925169.18949  -3045568.81649  24559651.3484   24559659.2504
 96  7 11  1 47 29.9990000  0  9 23 15  3 21  1  9 31 28 25
  22792415.079     9107799.34249   7046332.03449  22792415.6394   22792421.0644
  24071840.948    -5702114.04649  -4418232.20449  24071841.5324   24071849.1884
  22325723.950     2258524.68049   1772253.78849  22325724.7384   22325730.8564
  20453710.857    -5214642.68349  -4053740.88549  20453711.6674   20453716.0434
  20036660.677   -18592714.69449 -14469091.34649  20036660.9674   20036665.6454
  23938777.360    -4862902.42549  -3777666.63249  23938775.9144   23938782.2804
  22037842.170   -12025274.51749  -9352753.95049  22037842.3194   22037847.4324
  23954992.641    15921396.394 9  12403561.982 9  23954994.566    23955000.897
  24538492.994    -4036347.54249  -3132201.18149  24538494.2774   24538501.2184
 96  7 11  1 47 59.9990000  0  9 23 15  3 21  1  9 31 28 25
  22803019.312     9163513.32749   7089745.50849  22803017.0194   22803023.3914
  24049420.983    -5819933.13349  -4510039.27149  24049421.6744   24049426.8874
  22338986.737     2328216.79149   1826559.28949  22338986.8994   22338992.9344
  20455354.894    -5206005.06349  -4047010.27449  20455354.9404   20455359.7534
  20031978.256   -18617316.02649 -14488261.19949  20031979.4214   20031984.1524
  23946510.236    -4822256.25349  -3745994.28549  23946510.5494   23946515.8964
  22040577.373   -12010901.80749  -9341554.45849  22040577.3204   22040583.0204
  23973497.100    16018631.979 9  12479329.885 9  23973498.290    23973504.255
  24517330.417    -4147567.52949  -3218865.99649  24517330.1204   24517338.2014
 96  7 11  1 48 29.9990000  0  9 23 15  3 21  1  9 31 28 25
  22813641.375     9219335.03549   7133242.90849  22813639.8344   22813644.9644
  24027009.607    -5937701.28249  -4601806.61549  24027011.8864   24027016.9654
  22352313.226     2398253.67849   1881133.45049  22352314.5944   22352320.3174
  20457043.514    -5197126.75949  -4040092.12149  20457044.4944   20457049.6894
  20027395.939   -18641400.33749 -14507028.17749  20027396.5674   20027401.0784
  23954337.166    -4781128.23949  -3713946.49949  23954337.0324   23954341.4434
  22043426.444   -11995929.67149  -9329887.88449  22043426.7784   22043431.7304
  23992003.726    16115870.592 9  12555100.138 9  23992001.949    23992009.000
  24496157.617    -4258830.66449  -3305564.43449  24496157.2954   24496164.9804
 96  7 11  1 48 59.9990000  0  9 23 15  3 21  1  9 31 28 25
  22824284.760     9275277.45749   7176834.38449  22824285.7454   22824290.8494
  24004608.334    -6055411.28549  -4693528.67149  24004610.2784   24004617.5584
  22365703.605     2468618.75749   1935963.34149  22365704.9724   22365710.0644
  20458783.605    -5187985.60349  -4032969.15349  20458784.1864   20458788.8994
  20022913.176   -18664956.88749 -14525383.91449  20022913.5424   20022918.5684
  23962257.003    -4739517.52649  -3681522.55949  23962256.8724   23962260.4054
  22046386.002   -11980374.43549  -9317766.94049  22046387.0114   22046391.7734
  24010506.514    16213114.072 9  12630874.168 9  24010507.003    24010513.900
  24474975.056    -4370136.09049  -3392295.82749  24474976.9044   24474984.0424
 96  7 11  1 49 29.9990000  0  9 23 15  3 21  1  9 31 28 25
  22834949.433     9331326.99249   7220509.32149  22834951.0964   22834956.5634
  23982222.784    -6173056.45449  -4785200.20349  23982224.1474   23982231.3814
  22379155.301     2539306.73849   1991044.84949  22379156.4874   22379162.3494
  20460579.313    -5178550.50949  -4025617.13649  20460579.4934   20460584.0934
  20018533.171   -18687974.31449 -14543319.55249  20018533.3224   20018538.5574
  23970267.568    -4697415.69849  -3648715.95449  23970267.7964   23970273.1094
  22049453.119   -11964257.91349  -9305208.62849  22049453.6374   22049458.5674
  24029015.008    16310364.246 9  12706653.404 9  24029013.137    24029020.207
  24453785.981    -4481492.91249  -3479067.25649  24453786.6974   24453793.3474
 96  7 11  1 49 59.9990000  0  9 23 15  3 21  1  9 31 28 25
  22845633.825     9387470.60649   7264257.56549  22845635.2774   22845640.8964
  23959846.892    -6290641.23149  -4876824.67549  23959849.4704   23959855.6134
  22392665.397     2610298.66649   2046363.19949  22392665.7244   22392671.0984
  20462430.816    -5168819.97249  -4018034.90249  20462431.4194   20462435.7434
  20014254.170   -18710462.06249 -14560842.45549  20014254.0604   20014259.1754
  23978369.444    -4654827.26449  -3615530.19249  23978371.3564   23978378.0244
  22052621.403   -11947607.53949  -9292234.32749  22052621.9114   22052627.3254
  24047518.202    16407612.002 9  12782430.764 9  24047518.424    24047525.897
  24432582.896    -4592908.38449  -3565884.37149  24432583.8704   24432590.7444
 96  7 11  1 50 29.9990000  0  9 23 15  3 21  1  9 31 28 25
  22856338.930     9443724.77249   7308091.96149  22856340.7054   22856345.4344
  23937486.516    -6408152.88849  -4968392.18349  23937487.7774   23937493.3794
  22406229.865     2681586.23449   2101911.91149  22406230.6734   22406236.8854
  20464339.939    -5158787.49149  -4010217.39349  20464340.5294   20464344.7684
  20010072.845   -18732429.75249 -14577960.12149  20010073.9914   20010078.9834
  23986572.725    -4611737.74649  -3581953.95749  23986572.9654   23986576.2754
  22055888.859   -11930436.59449  -9278854.39249  22055889.4404   22055894.6564
  24066023.905    16504865.131 9  12858212.306 9  24066025.049    24066031.854
  24411370.756    -4704377.75749  -3652743.49949  24411371.1774   24411379.9014
 96  7 11  1 50 59.9990000  0  9 23 15  3 21  1  9 31 28 25
  22867062.051     9500072.58649   7351999.32249  22867062.9194   22867067.1494
  23915136.525    -6525597.93449  -5059907.74349  23915138.3724   23915143.9084
  22419849.859     2753156.82849   2157681.16549  22419850.2704   22419856.1584
  20466301.878    -5148476.88849  -4002183.16149  20466302.4814   20466306.6474
  20005986.096   -18753905.32649 -14594694.31249  20005987.1464   20005992.0894
  23994862.079    -4568150.87249  -3547990.17849  23994866.1384   23994870.5124
  22059252.981   -11912761.21649  -9265081.39149  22059253.7274   22059258.4834
  24084530.523    16602111.577 9  12933988.646 9  24084530.748    24084537.965
  24390148.985    -4815899.79449  -3739643.64149  24390149.5284   24390157.8424
 96  7 11  1 51 29.9990000  0  9 23 15  3 21  1  9 31 28 25
  22877801.885     9556512.41649   7395978.40049  22877803.1684   22877808.1554
  23892801.799    -6642969.54349  -5151366.09449  23892802.9534   23892810.3304
  22433525.986     2825028.94949   2213685.36249  22433527.8064   22433533.4644
  20468311.846    -5137912.35749  -3993951.06949  20468312.9274   20468317.3144
  20001993.959   -18774885.66849 -14611042.61849  20001994.8934   20001999.9944
  24003254.365    -4524059.55049  -3513633.30349  24003254.8274   24003261.6134
  22062714.482   -11894571.10249  -9250907.30149  22062714.7424   22062720.0674
  24103035.884    16699353.000 9  13009761.093 9  24103035.252    24103042.201
  24368922.606    -4927445.62449  -3826562.33749  24368923.8524   24368931.0414
 96  7 11  1 51 59.9990000  0  9 23 15  3 21  1  9 31 28 25
  22888560.026     9613055.77749   7440038.13249  22888563.2484   22888567.7424
  23870479.334    -6760270.88549  -5242769.74049  23870481.4994   23870486.6814
  22447260.218     2897201.32649   2269923.53649  22447261.4604   22447267.0844
  20470365.918    -5127119.43649  -3985541.00549  20470366.8134   20470371.2534
  19998095.780   -18795372.47049 -14627006.34849  19998096.5714   19998101.1394
  24011741.318    -4479472.33649  -3478890.03749  24011740.9864   24011746.1554
  22066275.924   -11875857.09049  -9236324.97549  22066276.1374   22066281.1444
  24121536.743    16796581.632 9  13085523.525 9  24121537.943    24121544.296
  24347693.744    -5039000.60749  -3913488.16049  24347694.6134   24347703.5254
 96  7 11  1 52 29.9990000  0  9 23 15  3 21  1  9 31 28 25
  22899342.368     9669704.29049   7484179.80849  22899342.4364   22899348.0254
  23848174.433    -6877492.89349  -5334111.51249  23848174.5414   23848180.7754
  22461054.027     2969684.92949   2326404.22949  22461054.3904   22461060.4024
  20472461.559    -5116106.19949  -3976959.27149  20472462.3724   20472467.1764
  19994292.993   -18815355.47749 -14642577.50949  19994293.8854   19994298.5644
  24020321.133    -4434384.23349  -3443756.50349  24020321.1154   24020325.2694
  22069939.104   -11856603.00349  -9221321.81149  22069939.5384   22069945.2424
  24140038.602    16893801.451 9  13161279.146 9  24140037.669    24140045.420
  24326464.715    -5150566.48549  -4000422.47949  24326464.2284   24326472.4734
 96  7 11  1 52 59.9990000  0  9 23 15  3 21  1  9 31 28 25
  22910141.012     9726452.75849   7528399.36249  22910141.9564   22910146.5224
  23825885.486    -6994629.13049  -5425386.46149  23825884.3684   23825889.2874
  22474910.177     3042497.48649   2383141.24749  22474910.1144   22474916.2194
  20474598.965    -5104873.82849  -3968206.78049  20474599.9654   20474604.3444
  19990590.995   -18834811.77149 -14657738.24749  19990591.9424   19990596.1824
  24028996.530    -4388792.39549  -3408230.40849  24028996.5404   24029001.5314
  22073709.775   -11836792.21549  -9205884.85349  22073709.7594   22073715.3844
  24158536.258    16991013.727 9  13237028.866 9  24158536.731    24158544.629
  24305233.785    -5262139.34649  -4087362.20349  24305233.2024   24305241.8064
 96  7 11  1 53 29.9990000  0  9 23 15  3 21  1  9 31 28 25
  22920958.919     9783304.04849   7572699.04249  22920960.8184   22920965.7634
  23803609.090    -7111689.86049  -5516602.58449  23803608.8174   23803614.7144
  22488825.480     3115628.18149   2440126.16049  22488826.6354   22488833.5194
  20476778.628    -5093418.65749  -3959280.67749  20476779.6164   20476784.2184
  19986988.542   -18853743.66349 -14672490.36249  19986989.0704   19986993.4814
  24037763.646    -4342705.50249  -3372318.48549  24037766.2744   24037771.5114
  22077583.456   -11816430.75149  -9190018.79249  22077584.0424   22077589.6334
  24177033.678    17088203.456 9  13312760.975 9  24177031.919    24177038.734
  24283993.542    -5373744.08549  -4174326.81049  24283995.8404   24284002.5854
 96  7 11  1 53 59.9990000  0  9 23 15  3 21  1  9 31 28 25
  22931798.417     9840266.33149   7617085.20849  22931799.5994   22931805.2484
  23781345.177    -7228672.68749  -5607758.00249  23781346.1984   23781354.0414
  22502800.354     3189066.86949   2497351.06149  22502801.7884   22502807.8904
  20479005.314    -5081721.52449  -3950166.03649  20479005.4884   20479010.1474
  19983484.136   -18872157.01249 -14686838.40949  19983484.7744   19983489.6244
  24046631.290    -4296123.38649  -3336020.75549  24046631.2774   24046635.9644
  22081561.454   -11795526.72949  -9173729.96649  22081562.0454   22081567.9454
  24195520.098    17185367.777 9  13388473.293 9  24195522.324    24195529.492
  24262748.733    -5485397.95149  -4261329.67549  24262748.6054   24262754.9504
 96  7 11  1 54 29.9990000  0  9 23 15  3 21  1  9 31 28 25
  22942667.260     9897349.30649   7661565.42149  22942662.4364   22942667.4224
  23759103.132    -7345568.53849  -5698845.66249  23759102.4944   23759108.2934
  22516835.552     3262816.51449   2554818.26249  22516836.0104   22516842.1704
  20481278.141    -5069777.21849  -3940858.78949  20481278.3714   20481283.1084
  19980078.038   -18890053.95149 -14700784.06549  19980079.1034   19980084.0514
  24055586.542    -4249049.26949  -3299339.64249  24055588.5434   24055594.9754
  22085643.127   -11774079.45949  -9157017.83149  22085643.0014   22085649.0574
  24214006.219    17282511.201 9  13464169.326 9  24214007.348    24214014.396
  24241489.772    -5597102.51949  -4348372.05649  24241491.5024   24241498.4984
 96  7 11  1 54 59.9990000  0  9 23 15  3 21  1  9 31 28 25
  22953547.328     9954558.85649   7706144.26749  22953549.5834   22953553.9574
  23736874.673    -7462376.94559  -5789865.16749  23736875.1544   23736880.3734
  22530926.164     3336866.28349   2612519.34549  22530926.9024   22530932.9894
  20483600.002    -5057574.97949  -3931350.55549  20483600.5134   20483605.1484
  19976770.287   -18907432.66349 -14714325.90049  19976771.9274   19976777.0134
  24064636.875    -4201495.59449  -3262284.84249  24064637.7874   24064644.5924
  22089828.400   -11752088.25249  -9139881.84549  22089828.6724   22089834.1554
  24232490.072    17379628.870 9  13539845.296 9  24232488.326    24232496.271
  24220225.435    -5708847.05349  -4435445.57949  24220227.4914   24220234.4774
 96  7 11  1 55 29.9990000  0  9 23 15  3 21  1  9 31 28 25
  22964456.313    10011897.45549   7750823.67549  22964459.9604   22964465.1574
  23714664.469    -7579091.24649  -5880811.33649  23714663.8954   23714671.1244
  22545072.805     3411206.58749   2670446.81749  22545073.6694   22545079.6414
  20485974.958    -5045096.96949  -3921627.43349  20485974.9974   20485979.9234
  19973561.507   -18924303.94449 -14727472.33749  19973561.4794   19973566.3594
  24073777.244    -4153470.06749  -3224862.38249  24073776.5104   24073782.6604
  22094115.372   -11729559.75649  -9122327.19149  22094115.4754   22094120.6794
  24250962.757    17476721.949 9  13615502.114 9  24250964.326    24250971.294
  24198957.461    -5820621.47949  -4522542.41449  24198957.4264   24198964.4514
 96  7 11  1 55 59.9990000  0  9 23 15  3 21  1  9 31 28 25
  22975388.952    10069338.65049   7795583.02449  22975390.5794   22975396.4604
  23692471.812    -7695715.67149  -5971687.49249  23692472.4104   23692477.7704
  22559271.916     3485824.08349   2728590.27749  22559272.7364   22559279.1674
  20488400.171    -5032351.82449  -3911696.15849  20488400.5484   20488405.1744
  19970443.131   -18940684.31149 -14740236.24649  19970444.5084   19970449.2994
  24083003.525    -4105002.02449  -3187095.09949  24083001.4544   24083006.1054
  22098501.634   -11706505.94049  -9104363.20049  22098502.1094   22098507.1864
  24269435.995    17573781.427 9  13691132.725 9  24269434.579    24269441.273
  24177681.613    -5932416.81849  -4609655.53649  24177683.1194   24177690.8224
 96  7 11  1 56 29.9990000  0  9 23 15  3 21  1  9 31 28 25
  22986340.271    10126880.49149   7840420.78749  22986340.5024   22986345.9164
  23670296.951    -7812247.27549  -6062491.29649  23670296.9424   23670303.5284
  22573523.293     3560715.70649   2786947.33949  22573524.2624   22573530.2464
  20490875.567    -5019341.73549  -3901558.43349  20490876.1344   20490880.8664
  19967420.281   -18956575.17249 -14752618.72349  19967420.7234   19967425.4014
  24092306.318    -4056100.78249  -3148990.23249  24092306.0734   24092311.3754
  22102990.219   -11682919.07549  -9085983.83949  22102990.4084   22102995.8234
  24287897.404    17670805.255 9  13766735.555 9  24287897.817    24287904.910
  24156408.291    -6044217.92049  -4696773.15749  24156407.6114   24156414.8894
 96  7 11  1 56 59.9990000  0  9 23 15  3 21  1  9 31 28 25
  22997308.016    10184515.35049   7885331.03649  22997308.1544   22997312.7454
  23648139.328    -7928682.07249  -6153219.68749  23648139.5884   23648146.5814
  22587826.241     3635876.76549   2845514.35949  22587826.8624   22587833.3424
  20493405.804    -5006046.25149  -3891198.32249  20493406.3394   20493410.6014
  19964490.095   -18971970.10449 -14764614.76049  19964490.9714   19964495.6124
  24101696.027    -4006745.88649  -3110531.88249  24101698.2824   24101703.7324
  22107580.247   -11658800.05049  -9067189.81849  22107580.6214   22107585.4974
  24306352.128    17767792.501 9  13842309.897 9  24306353.874    24306361.861
  24135131.461    -6156008.48449  -4783882.57549  24135134.8904   24135142.1394
 96  7 11  1 57 29.9990000  0  9 23 15  3 21  1  9 31 28 25
  23008289.203    10242243.98749   7930314.36749  23008293.5514   23008298.7834
  23626001.596    -8045017.91349  -6243870.96049  23626001.3814   23626007.4524
  22602179.877     3711305.67249   2904290.07949  22602180.8004   22602186.7574
  20495990.198    -4992466.31649  -3880616.56149  20495990.5044   20495994.8674
  19961652.718   -18986879.61749 -14776232.55049  19961653.6304   19961658.3684
  24111179.573    -3956932.51549  -3071716.25549  24111176.1224   24111182.8114
  22112270.134   -11634154.84549  -9047985.77949  22112270.5924   22112274.9284
  24324800.793    17864740.334 9  13917853.535 9  24324802.352    24324809.328
  24113861.041    -6267797.36249  -4870990.68349  24113862.2474   24113868.8424
 96  7 11  1 57 59.9990000  0  8 23 15  3 21  1  9 31 25
  23019298.874    10300095.62449   7975393.52649  23019303.3054   23019307.5944
  23603883.634    -8161247.82349  -6334439.66849  23603883.4304   23603891.1754
  22616585.666     3787009.01349   2963279.66349  22616585.8534   22616592.9054
  20498627.592    -4978606.81549  -3869816.95349  20498627.8694   20498632.3814
  19958908.344   -19001300.68549 -14787469.73449  19958909.8974   19958914.3454
  24120746.098    -3906644.51049  -3032530.81849  24120747.0714   24120752.7134
  22117064.075   -11608963.79549  -9028356.40849  22117064.0804   22117069.3034
  24092589.550    -6379580.35449  -4958094.21949  24092590.1204   24092597.2974
 96  7 11  1 58 29.9990000  0  8 23 15  3 21  1  9 31 25
  23030333.985    10358081.59649   8020577.36849  23030337.5254   23030341.8924
  23581784.248    -8277373.72049  -6424927.32949  23581785.2334   23581791.9254
  22631044.554     3862990.91049   3022486.29749  22631045.5584   22631051.8564
  20501315.442    -4964483.32649  -3858811.64549  20501315.5584   20501319.9024
  19956260.443   -19015220.86749 -14798316.62049  19956260.7794   19956265.3384
  24130413.074    -3855855.85049  -2992955.22349  24130411.5474   24130416.0724
  22121960.708   -11583231.43649  -9008305.24849  22121960.7514   22121965.9834
  24071316.667    -6491367.68649  -5045201.13449  24071317.5814   24071324.1364
 96  7 11  1 58 59.9990000  0  8 23 15  3 21  1  9 31 25
  23041397.119    10416192.70749   8065858.72449  23041395.1624   23041400.2654
  23559705.856    -8393397.05049  -6515335.07849  23559706.5824   23559713.2964
  22645555.881     3939245.87249   3081905.71649  22645556.6194   22645562.5794
  20504051.704    -4950101.67349  -3847605.17049  20504052.2514   20504056.5024
  19953708.979   -19028625.57149 -14808761.83649  19953709.7004   19953714.2814
  24140168.476    -3804566.81449  -2952989.75349  24140170.9684   24140179.0014
  22126958.638   -11556963.15249  -8987836.48249  22126960.0684   22126964.7874
  24050040.323    -6603167.11949  -5132317.48649  24050042.6584   24050049.0834
 96  7 11  1 59 29.9990000  0  8 23 15  3 21  1  9 31 25
  23052474.300    10474424.24249   8111233.91849  23052475.2924   23052481.3924
  23537648.053    -8509319.81749  -6605664.44949  23537648.9254   23537654.3404
  22660116.191     4015765.97649   3141531.73649  22660117.1004   22660123.9474
  20506833.995    -4935479.77449  -3836211.48849  20506834.6624   20506839.2234
  19951255.839   -19041515.18249 -14818805.67449  19951257.1004   19951261.4864
  24150024.002    -3752798.52249  -2912650.88549  24150022.3764   24150027.3304
  22132059.530   -11530163.07649  -8966953.32249  22132059.5464   22132064.4274
  24028763.483    -6714986.80949  -5219449.60949  24028764.3274   24028770.9934
 96  7 11  1 59 59.9990000  0  8 23 15  3 21  1  9 31 25
  23063582.105    10532771.28749   8156699.11349  23063578.6384   23063585.0204
  23515609.627    -8625128.63249  -6695905.02649  23515610.1154   23515615.6184
  22674729.260     4092556.72449   3201368.63849  22674730.5584   22674736.5634
  20509662.465    -4920614.38549  -3824628.07549  20509663.3184   20509667.9824
  19948905.810   -19053864.43349 -14828428.45449  19948907.2584   19948911.3904
  24159965.910    -3700542.76249  -2871932.10449  24159966.4554   24159971.2244
  22137260.354   -11502829.66049  -8945654.56649  22137260.6824   22137265.8584
  24007484.477    -6826800.15749  -5306576.78849  24007486.6874   24007494.3064
 96  7 11  2  0 29.9990000  0  8 23 15  3 21  1  9 31 25
  23074695.418    10591203.28249   8202230.50349  23074698.6024   23074704.5194
  23493595.194    -8740819.28649  -6786053.54849  23493594.8794   23493601.0004
  22689391.825     4169606.43149   3261407.31649  22689392.3194   22689398.4934
  20512540.452    -4905492.05449  -3812844.44849  20512540.7674   20512545.6034
  19946661.663   -19065663.24549 -14837622.32649  19946661.7334   19946666.1434
  24169999.536    -3647818.50149  -2830848.35849  24169999.7664   24170003.9584
  22142557.901   -11474989.34949  -8923960.83549  22142558.4874   22142563.6034
  23986209.900    -6938598.35749  -5393692.17249  23986212.3474   23986219.1364
 96  7 11  2  0 59.9990000  0  8 23 15  3 21  1  9 31 25
  23085829.466    10649712.95749   8247822.41849  23085831.8164   23085837.3084
  23471600.310    -8856395.46249  -6876112.85749  23471601.1244   23471608.7594
  22704099.988     4246897.20949   3321633.84549  22704100.6464   22704106.4194
  20515467.667    -4890105.12349  -3800854.64249  20515468.9724   20515473.5994
  19944515.112   -19076939.50249 -14846409.00849  19944515.6024   19944520.3004
  24180114.898    -3594662.48349  -2789428.02149  24180115.1814   24180120.6444
  22147949.496   -11446658.41449  -8901884.80449  22147949.9364   22147955.9344
  23964937.948    -7050384.03149  -5480797.78749  23964939.7374   23964947.1774
 96  7 11  2  1 29.9990000  0  8 23 15  3 21  1  9 31 25
  23096980.613    10708316.49949   8293487.47649  23096984.7684   23096989.7924
  23449630.699    -8971850.39949  -6966077.70949  23449632.0434   23449636.3624
  22718854.961     4324436.98949   3382054.40249  22718855.6104   22718862.6154
  20518446.563    -4874453.86149  -3788658.86049  20518447.4044   20518452.3274
  19942464.689   -19087712.30349 -14854803.38549  19942465.5974   19942470.2664
  24190310.828    -3541073.30649  -2747670.28349  24190312.8534   24190318.3424
  22153433.739   -11417840.67949  -8879429.43549  22153433.8834   22153439.1714
  23943674.082    -7162140.29649  -5567880.49549  23943674.0664   23943680.5274
 96  7 11  2  1 59.9990000  0  8 23 15  3 21  1  9 31 25
  23108155.291    10767017.96249   8339228.84049  23108154.6244   23108160.1984
  23427682.730    -9087185.45149  -7055949.12249  23427684.5814   23427689.8904
  22733657.973     4402230.65649   3442672.80349  22733659.1554   22733665.9244
  20521476.434    -4858536.39549  -3776255.64749  20521476.3534   20521481.0624
  19940507.100   -19097999.77849 -14862819.58749  19940508.0594   19940512.8494
  24200590.725    -3487060.82049  -2705582.64549  24200590.3674   24200595.0244
  22159008.798   -11388538.63249  -8856596.68549  22159009.6424   22159014.7174
  23922411.777    -7273866.15749  -5654939.49049  23922413.2564   23922419.1364
 96  7 11  2  2 29.9990000  0  8 23 15  3 21  1  9 31 25
  23119346.993    10825833.66749   8385059.23049  23119346.9224   23119353.3864
  23405758.915    -9202395.36749  -7145723.03649  23405760.4874   23405765.2524
  22748511.788     4480283.41149   3503493.08749  22748512.6194   22748518.4604
  20524556.973    -4842346.64849  -3763640.27149  20524557.3454   20524561.9134
  19938638.978   -19107818.27349 -14870470.35349  19938639.5884   19938644.4074
  24210949.571    -3432622.85049  -2663163.41949  24210950.6344   24210955.4714
  22164679.610   -11358740.84349  -8833377.64749  22164680.0824   22164685.0504
  23901159.957    -7385550.63049  -5741966.25549  23901160.0884   23901166.4394
 96  7 11  2  2 59.9990000  0  8 23 15  3 21  1  9 31 25
  23130565.136    10884783.74049   8430994.33049  23130564.4634   23130570.4584
  23383861.298    -9317473.09449  -7235393.95249  23383860.0604   23383866.6694
  22763415.022     4558601.04049   3564519.76549  22763415.9164   22763422.3214
  20527686.078    -4825903.65749  -3750827.55549  20527686.1234   20527690.9324
  19936860.741   -19117165.57449 -14877753.94849  19936860.7964   19936865.7134
  24221395.459    -3377735.07849  -2620393.73749  24221394.7514   24221402.0014
  22170449.592   -11328418.88749  -8809750.16149  22170449.9314   22170455.1284
  23879915.984    -7497184.40149  -5828953.51049  23879917.1964   23879924.0574
 96  7 11  2  3 29.9990000  0  8 23 15  3 21  1  9 31 25
  23141808.425    10943864.61249   8477031.34849  23141807.9504   23141812.9734
  23361986.593    -9432419.21649  -7324962.30649  23361988.1754   23361992.9054
  22778367.147     4637171.91049   3625743.77149  22778367.4484   22778373.7924
  20530861.749    -4809212.72549  -3737821.64149  20530862.2994   20530866.9184
  19935173.502   -19126030.84449 -14884661.94349  19935173.7004   19935178.8994
  24231925.328    -3322380.81949  -2577260.62349  24231927.4084   24231931.5644
  22176319.634   -11297570.94449  -8785712.81349  22176319.9644   22176324.9124
  23858682.200    -7608770.57649  -5915903.67949  23858682.5564   23858688.6954
 96  7 11  2  3 59.9990000  0  8 23 15  3 21  1  9 31 25
  23153071.980    11003067.46349   8523163.41049  23153073.4724   23153079.1054
  23340140.239    -9547227.64749  -7414423.37749  23340140.6284   23340145.9884
  22793362.497     4715976.08749   3687149.56449  22793363.5224   22793369.5404
  20534087.198    -4792258.66249  -3724610.68649  20534088.5054   20534093.1704
  19933580.369   -19134401.05649 -14891184.17749  19933581.1564   19933586.2364
  24242548.653    -3266549.72849  -2533755.85749  24242550.8564   24242559.5244
  22182289.204   -11266199.85149  -8761267.82249  22182290.0044   22182294.5584
  23837455.169    -7720314.89949  -6002821.23649  23837455.5204   23837463.3734
 96  7 11  2  4 29.9990000  0  8 23 15  3 21  1  9 31 25
  23164364.855    11062385.77349   8569385.43949  23164361.4494   23164367.0304
  23318315.956    -9661908.15149  -7503784.76949  23318317.7084   23318323.9104
  22808397.091     4794986.36549   3748715.97049  22808399.4374   22808405.0434
  20537360.385    -4775061.18349  -3711210.06149  20537361.1324   20537365.8094
  19932081.354   -19142277.97449 -14897322.02549  19932082.2154   19932086.9104
  24253265.270    -3210237.37949  -2489876.16349  24253268.4734   24253273.8954
  22188355.870   -11234324.22049  -8736429.67649  22188355.7854   22188360.8924
  23816235.608    -7831830.73149  -6089716.60549  23816235.9954   23816242.1634
 96  7 11  2  4 59.9990000  0  8 23 15  3 21  1  9 31 25
  23175670.344    11121819.10449   8615697.09949  23175671.7894   23175676.8404
  23296517.728    -9776458.64749  -7593044.83849  23296518.4784   23296524.9534
  22823471.652     4874199.79749   3810440.67549  22823472.8794   22823478.5294
  20540681.696    -4757608.05549  -3697610.23449  20540682.5224   20540686.9954
  19930678.417   -19149652.68549 -14903068.55549  19930678.6724   19930683.4814
  24264072.559    -3153450.13349  -2445626.29149  24264075.0004   24264079.1624
  22194515.969   -11201951.48249  -8711204.18749  22194516.3764   22194521.3344
  23795015.710    -7943334.43149  -6176602.50249  23795017.2844   23795023.0694
 96  7 11  2  5 29.9990000  0  8 23 15  3 21  1  9 31 25
  23187003.055    11181370.47549   8662100.73849  23187003.0754   23187009.2074
  23274748.392    -9890860.47049  -7682189.08349  23274749.3954   23274755.3204
  22838588.276     4953638.69449   3872341.05649  22838589.1464   22838595.6254
  20544059.223    -4739864.70749  -3683784.25149  20544058.8694   20544063.5384
  19929371.085   -19156513.96849 -14908415.00149  19929373.0464   19929377.7234
  24274970.546    -3096184.42849  -2401003.68049  24274970.5614   24274978.1884
  22200770.741   -11169078.90049  -8685589.20849  22200771.0794   22200777.0634
  23773801.945    -8054812.85749  -6263468.73049  23773802.8804   23773809.7904
 96  7 11  2  5 59.9990000  0  8 23 15  3 21  1  9 31 25
  23198354.539    11241014.61949   8708576.65749  23198353.7374   23198359.1694
  23253002.923   -10005130.51449  -7771230.63049  23253003.8614   23253010.4484
  22853745.406     5033291.68249   3934408.26949  22853746.3974   22853753.2244
  20547485.345    -4721857.75649  -3669752.86749  20547485.7384   20547490.1324
  19928159.937   -19162889.27449 -14913382.76449  19928159.9974   19928164.5054
  24285951.794    -3038471.42749  -2356032.52249  24285952.6834   24285958.8114
  22207119.446   -11135720.22949  -8659595.45649  22207119.4204   22207124.7064
  23752591.716    -8166278.25449  -6350324.77049  23752592.0664   23752597.1784
 96  7 11  2  6 29.9990000  0  8 23 15  3 21  1  9 31 25
  23209721.824    11300762.68449   8755133.57149  23209723.2904   23209728.3964
  23231286.317   -10119254.13649  -7860158.09949  23231286.9444   23231293.1964
  22868948.988     5113183.11349   3996661.28949  22868949.6194   22868956.0794
  20550963.954    -4703575.61649  -3655507.04849  20550964.3934   20550968.9534
  19927039.649   -19168769.25749 -14917964.56049  19927041.2014   19927045.6304
  24297020.478    -2980319.00849  -2310718.97849  24297018.9694   24297028.0804
  22213563.758   -11101851.72049  -8633204.43249  22213564.3944   22213569.8854
  23731383.162    -8277713.32249  -6437157.20149  23731385.5264   23731391.9024
 96  7 11  2  6 59.9990000  0  8 23 15  3 21  1  9 31 25
  23221109.712    11360601.81749   8801761.44849  23221110.8464   23221116.2084
  23209597.832   -10233227.92449  -7948968.79449  23209599.4384   23209605.4974
  22884197.273     5193309.74049   4059097.58649  22884197.1734   22884202.6244
  20554496.002    -4685011.84749  -3641041.77849  20554496.9034   20554501.6874
  19926016.886   -19174145.09849 -14922153.51649  19926017.9274   19926022.7714
  24308166.591    -2921745.11549  -2265077.00749  24308165.3254   24308171.6174
  22220105.846   -11067477.20149  -8606419.10449  22220105.8814   22220110.7464
  23710185.765    -8389112.92849  -6523962.00349  23710187.4874   23710194.0914
 96  7 11  2  7 29.9990000  0  8 23 15  3 21  1  9 31 25
  23232512.030    11420519.17349   8848450.27149  23232512.0744   23232517.6604
  23187937.384   -10347058.67049  -8037668.04949  23187937.2394   23187942.6424
  22899485.202     5273656.96549   4121705.77449  22899486.8354   22899492.9654
  20558077.134    -4666194.96449  -3626379.28049  20558077.7874   20558082.5094
  19925088.841   -19179027.78149 -14925958.19449  19925088.7894   19925093.5974
  24319391.752    -2862755.60949  -2219111.15049  24319391.6194   24319396.0404
  22226741.740   -11032602.84949  -8579244.30849  22226741.9024   22226748.0054
  23688995.522    -8500471.69849  -6610734.97749  23688997.1144   23689003.4214
 96  7 11  2  7 59.9990000  0  8 23 15  3 21  1  9 31 25
  23243937.133    11480530.20349   8895212.07049  23243932.0034   23243937.2074
  23166303.070   -10460741.07049  -8126251.70649  23166304.4274   23166311.1534
  22914815.993     5354213.85149   4184477.32849  22914817.0974   22914822.7884
  20561707.927    -4647123.61149  -3611518.49249  20561707.1324   20561711.6374
  19924251.971   -19183419.34749 -14929380.18449  19924253.2774   19924257.8744
  24330693.395    -2803366.09849  -2172833.62749  24330693.3364   24330700.4044
  22233472.982   -10997227.24449  -8551678.93149  22233473.4244   22233479.0334
  23667813.641    -8611783.32849  -6697471.22449  23667815.5274   23667821.2084
 96  7 11  2  8 29.9980000  0  8 23 15  3 21  1  9 31 25
  23255371.011    11540639.47049   8942050.41349  23255371.1474   23255376.5284
  23144699.950   -10574270.88449  -8214716.45749  23144699.4934   23144706.5494
  22930183.696     5434971.98049   4247405.69649  22930184.3654   22930190.1234
  20565383.530    -4627801.70349  -3596462.46849  20565383.8144   20565388.6434
  19923511.048   -19187317.07049 -14932417.36449  19923511.3344   19923516.1374
  24342067.200    -2743591.78249  -2126256.24949  24342068.4374   24342073.7804
  22240296.664   -10961369.90149  -8523738.15549  22240297.0734   22240302.2574
  23646644.137    -8723038.94149  -6784163.82649  23646643.8604   23646649.8824
 96  7 11  2  8 59.9980000  0  8 23 15  3 21  1  9 31 25
  23266833.814    11600867.49249   8988981.31249  23266831.8524   23266837.8684
  23123125.762   -10687646.97049  -8303061.42449  23123125.0984   23123130.1974
  22945591.773     5515942.21249   4310499.32649  22945591.5134   22945598.1584
  20569106.657    -4608235.11149  -3581215.78049  20569107.3634   20569111.8764
  19922861.631   -19190725.89749 -14935073.58749  19922862.6304   19922867.5174
  24353516.219    -2683410.58349  -2079361.84049  24353519.1754   24353527.0254
  22247211.280   -10925034.91249  -8495425.18849  22247211.2994   22247216.4824
  23625484.064    -8834226.94649  -6870803.73049  23625484.8644   23625491.7844
 96  7 11  2  9 29.9980000  0  8 23 15  3 21  1  9 31 25
  23278315.107    11661219.49749   9036008.80049  23278316.1914   23278322.0904
  23101580.069   -10800863.51049  -8391282.08649  23101580.7054   23101586.4174
  22961040.138     5597131.58749   4373763.72549  22961042.0974   22961047.2564
  20572877.301    -4588423.65749  -3565778.29149  20572877.1764   20572881.8314
  19922301.490   -19193669.14149 -14937367.01249  19922302.5604   19922307.6754
  24365047.647    -2622823.52649  -2032151.19449  24365048.5974   24365053.6944
  22254215.314   -10888228.21949  -8466744.65749  22254215.5984   22254220.9504
  23604338.651    -8945341.99949  -6957386.79149  23604340.2104   23604346.8614
 96  7 11  2  9 59.9980000  0  8 23 15  3 21  1  9 31 25
  23289825.157    11721691.20049   9083129.56449  23289823.8824   23289829.2334
  23080064.321   -10913923.68149  -8479380.89749  23080066.3024   23080071.1104
  22976530.615     5678531.05349   4437191.82449  22976532.0344   22976538.2554
  20576695.882    -4568356.53049  -3550141.57949  20576695.8374   20576700.5754
  19921828.961   -19196152.66649 -14939302.22149  19921830.2134   19921835.0434
  24376653.061    -2561838.13849  -1984630.12449  24376653.8634   24376661.8884
  22261305.655   -10850968.64649  -8437711.23549  22261305.8044   22261312.1864
  23583207.758    -9056386.50449  -7043914.88949  23583209.2734   23583216.1514
 96  7 11  2 10 29.9980000  0  7 23 15  3 21  1 31 25
  23301353.501    11782285.93149   9130346.18549  23301354.5234   23301360.0244
  23058581.679   -11026822.72549  -8567354.14949  23058582.2504   23058587.5644
  22992061.029     5760136.93949   4500780.78249  22992060.6024   22992067.4944
  20580561.657    -4548037.91949  -3534308.90549  20580562.3134   20580566.9304
  19921447.417   -19198158.79849 -14940865.43849  19921448.6634   19921453.1704
  22268481.443   -10813254.22949  -8408323.40049  22268482.7674   22268487.7644
  23562094.047    -9167343.54749  -7130374.82049  23562094.9084   23562101.0194
 96  7 11  2 10 59.9980000  0  7 23 15  3 21  1 31 25
  23312905.903    11842984.58049   9177643.78249  23312904.9714   23312910.4854
  23037127.423   -11139563.84349  -8655204.33949  23037127.9684   23037132.7664
  23007624.662     5841932.67849   4564517.68249  23007626.1454   23007632.8324
  20584476.603    -4527464.55949  -3518277.72249  20584477.3004   20584481.9994
  19921156.810   -19199691.28049 -14942059.57249  19921156.9304   19921161.4974
  22275745.054   -10775085.14349  -8378581.27049  22275746.0764   22275751.2624
  23540992.451    -9278229.00449  -7216778.99149  23540994.2504   23541000.8734
 96  7 11  2 11 29.9980000  0  7 23 15  3 21  1 31 25
  23324471.532    11903782.49749   9225018.73749  23324475.0034   23324480.3864
  23015703.855   -11252146.91049  -8742931.39149  23015704.8914   23015708.9294
  23023223.642     5923902.71749   4628390.38349  23023224.5194   23023230.5984
  20588441.667    -4506624.96149  -3502039.08449  20588443.0894   20588447.3294
  19920957.282   -19200736.33549 -14942873.89249  19920957.9204   19920962.7224
  22283095.581   -10736461.55749  -8348484.98649  22283095.1724   22283100.7234
  23519906.154    -9389049.58149  -7303132.60749  23519905.5624   23519912.1604
 96  7 11  2 11 59.9980000  0  7 23 15  3 21  1 31 25
  23336062.420    11964686.47349   9272476.35149  23336064.0094   23336068.9264
  22994310.635   -11364567.68349  -8830531.96149  22994311.9334   22994316.8234
  23038851.530     6006020.45049   4692378.17649  23038851.5394   23038857.8864
  20592457.224    -4485523.76849  -3485596.60649  20592458.4094   20592463.0614
  19920853.889   -19201279.92649 -14943297.46449  19920854.4784   19920859.3294
  22290533.141   -10697375.56149  -8318028.39249  22290533.5734   22290539.0144
  23498829.198    -9499794.41149  -7389427.19149  23498831.0214   23498836.9184
 96  7 11  2 12 29.9980000  0  7 23 15  3 21  1 31 25
  23347672.605    12025703.61249   9320022.15249  23347674.7914   23347680.3404
  22972949.578   -11476820.55249  -8918001.71649  22972949.7444   22972955.8344
  23054504.929     6088285.00149   4756480.37549  23054506.2844   23054511.7984
  20596522.283    -4464167.44749  -3468955.33149  20596522.3994   20596527.0074
  19920845.399   -19201322.93149 -14943330.96749  19920846.1234   19920850.8954
  22298060.605   -10657820.60849  -8287206.37849  22298060.8754   22298065.5284
  23477771.085    -9610470.39749  -7475668.13749  23477770.4014   23477777.4594
 96  7 11  2 12 59.9980000  0  7 23 15  3 21  1 31 25
  23359308.214    12086831.29249   9367654.09449  23359306.3444   23359312.9964
  22951621.650   -11588900.15749  -9005336.44349  22951622.2314   22951627.6194
  23070190.159     6170704.62049   4820703.41349  23070189.2144   23070194.8594
  20600636.964    -4442541.64749  -3452104.07149  20600637.7004   20600642.2504
  19920930.221   -19200879.07849 -14942985.10349  19920930.5834   19920935.1424
  22305678.218   -10617790.89549  -8256014.41949  22305678.4514   22305683.5764
  23456721.535    -9721079.24249  -7561856.76349  23456722.2684   23456728.1484
 96  7 11  2 13 29.9980000  0  7 23 15  3 21  1 31 25
  23370961.846    12148083.22449   9415382.82849  23370963.8424   23370969.7324
  22930328.101   -11700800.83049  -9092531.75049  22930328.7894   22930334.1604
  23085904.742     6253286.20749   4885052.66149  23085904.7924   23085910.3664
  20604804.441    -4420642.90849  -3435040.12649  20604805.2324   20604809.4494
  19921104.492   -19199961.69449 -14942270.25249  19921105.4014   19921109.8314
  22313386.926   -10577280.23449  -8224447.70149  22313387.6494   22313392.8764
  23435686.457    -9831612.10949  -7647986.18949  23435688.3574   23435694.1914
 96  7 11  2 13 59.9980000  0  7 23 15  3 21  1 31 25
  23382642.113    12209448.27649   9463199.72149  23382641.9634   23382646.6584
  22909068.180   -11812523.08149  -9179588.01049  22909067.9814   22909073.6754
  23101650.737     6336035.60349   4949532.67149  23101651.5444   23101656.7804
  20609023.457    -4398469.69849  -3417762.30949  20609024.2544   20609029.1554
  19921367.931   -19198582.14649 -14941195.27349  19921368.0134   19921372.4184
  22321188.903   -10536280.06249  -8192499.54549  22321189.1294   22321194.9754
  23414666.613    -9942072.06849  -7734058.80449  23414668.5994   23414675.1254
 96  7 11  2 14 29.9980000  0  7 23 15  3 21  1 31 25
  23394334.517    12270907.74749   9511090.17449  23394336.8034   23394341.6104
  22887840.733   -11924068.02949  -9266506.11749  22887842.9404   22887848.0334
  23117433.984     6418978.36149   5014163.34549  23117434.4354   23117441.2724
  20613296.139    -4376016.77249  -3400266.53549  20613297.1364   20613301.8624
  19921717.832   -19196744.48949 -14939763.33049  19921717.6974   19921722.0344
  22329082.358   -10494801.96949  -8160178.97449  22329082.4374   22329087.6794
  23393663.026   -10052462.00049  -7820076.84649  23393662.7734   23393668.2684
 96  7 11  2 14 59.9980000  0  7 23 15  3 21  1 31 25
  23406049.858    12332454.14449   9559048.36749  23406048.6884   23406054.1274
  22866649.070   -12035434.95749  -9353285.51049  22866650.3234   22866656.0824
  23133253.825     6502116.22549   5078946.04449  23133255.7174   23133262.2484
  20617621.929    -4353287.60849  -3382555.50449  20617622.2014   20617626.9954
  19922151.674   -19194457.33549 -14937981.12549  19922152.5284   19922157.0644
  22337064.651   -10452852.20649  -8127490.86749  22337064.2934   22337070.4164
  23372668.348   -10162770.07349  -7906031.12349  23372671.3244   23372676.7314
 96  7 11  2 15 29.9980000  0  7 23 15  3 21  1 31 25
  23417777.745    12394095.07849   9607080.23549  23417777.7404   23417784.0644
  22845491.228   -12146618.41249  -9439921.92649  22845492.4584   22845497.0074
  23149110.707     6585445.33749   5143877.76449  23149112.9604   23149119.7814
  20621996.168    -4330300.44349  -3364643.43649  20621996.3884   20622001.4554
  19922675.728   -19191707.52749 -14935838.41349  19922675.8154   19922680.3844
  22345132.964   -10410453.12149  -8094452.64649  22345133.2714   22345138.5734
  23351695.062   -10272995.47549  -7991920.95349  23351695.3784   23351702.2414
 96  7 11  2 15 59.9980000  0  7 23 15  3 21  1 31 25
  23429521.635    12455821.32549   9655178.57449  23429524.5534   23429529.6654
  22824368.726   -12257619.11549  -9526415.94149  22824368.8354   22824375.5334
  23165003.150     6668956.61049   5208951.43649  23165004.4484   23165011.2414
  20626416.815    -4307071.01149  -3346542.58749  20626417.1034   20626421.7124
  19923288.885   -19188485.83849 -14933328.00349  19923289.0874   19923293.7074
  22353282.139   -10367628.88149  -8061083.14649  22353282.1654   22353287.4924
  23330735.981   -10383131.35349  -8077741.03149  23330737.9074   23330743.1214
 96  7 11  2 16 29.9980000  0  7 23 15  3 21  1 31 25
  23441288.749    12517649.77449   9703356.55649  23441290.1794   23441295.6944
  22803281.441   -12368430.30649  -9612762.27349  22803282.6414   22803288.5624
  23180929.326     6752642.02849   5274160.78749  23180928.0074   23180935.4944
  20630880.055    -4283614.93449  -3328265.13249  20630880.6804   20630885.3424
  19923991.179   -19184793.51649 -14930450.86749  19923991.7824   19923996.3984
  22361508.278   -10324400.95149  -8027399.06449  22361508.6694   22361513.2334
  23309796.826   -10493176.89449  -8163490.72349  23309796.5284   23309802.8554
 96  7 11  2 16 59.9980000  0  7 23 15  3 21  1 31 25
  23453075.112    12579587.67449   9751619.82849  23453076.5534   23453081.9574
  22782230.979   -12479056.57549  -9698964.53449  22782231.4084   22782237.3494
  23196879.197     6836465.70049   5339477.87149  23196880.4834   23196886.3474
  20635384.196    -4259943.32249  -3309819.72949  20635385.1124   20635389.7444
  19924779.474   -19180650.77949 -14927222.75449  19924779.8834   19924784.9304
  22369810.012   -10280774.76649  -7993404.66249  22369810.7334   22369816.4144
  23288868.918   -10603149.57649  -8249183.63749  23288868.7864   23288875.2614
 96  7 11  2 17 29.9980000  0  7 23 15  3 21  1 31 25
  23464883.882    12641634.54449   9799968.02049  23464883.4474   23464889.1804
  22761215.606   -12589493.76449  -9785019.45649  22761216.3924   22761221.7694
  23212854.957     6920418.79749   5404895.81549  23212855.4694   23212861.8034
  20639934.418    -4236036.41749  -3291190.98449  20639934.2784   20639939.1344
  19925653.795   -19176055.96449 -14923642.37649  19925654.6804   19925659.0654
  22378190.065   -10236740.13849  -7959091.99349  22378190.6244   22378195.2874
  23267955.424   -10713046.24949  -8334817.33249  23267957.0774   23267963.2914
 96  7 11  2 17 59.9980000  0  7 23 15  3 21  1 31 25
  23476710.325    12703786.81049   9848398.33149  23476711.0964   23476716.6354
  22740233.679   -12699745.23349  -9870929.63049  22740234.3974   22740241.3004
  23228852.406     7004488.14949   5470404.33249  23228853.9104   23228861.1634
  20644532.773    -4211870.15849  -3272360.13949  20644533.1684   20644537.6934
  19926610.493   -19171030.33349 -14919726.29349  19926610.9164   19926615.3194
  22386649.668   -10192283.07549  -7924450.15049  22386649.9334   22386655.8054
  23247058.666   -10822861.12749  -8420387.28549  23247059.3954   23247065.6944
 96  7 11  2 18 29.9980000  0  7 23 15  3 21  1 31 25
  23488562.100    12766061.18349   9896923.78549  23488560.9844   23488566.9184
  22719291.307   -12809800.31749  -9956686.80549  22719292.4894   22719298.7464
  23244874.527     7088670.81549   5536001.17349  23244873.6054   23244879.6704
  20649183.681    -4187430.17849  -3253316.00849  20649184.2104   20649188.5874
  19927648.184   -19165576.14649 -14915476.27749  19927648.7824   19927653.1404
  22395193.380   -10147384.97449  -7889464.65649  22395193.8074   22395199.8214
  23226177.971   -10932582.73549  -8505884.56849  23226180.4154   23226185.9764
 96  7 11  2 18 59.9980000  0  7 23 15  3 21  1 31 25
  23500432.364    12828437.42049   9945528.61949  23500431.3124   23500436.3964
  22698387.404   -12919658.06849 -10042290.21349  22698386.8834   22698393.0484
  23260912.063     7172958.55049   5601679.87949  23260912.4764   23260919.3374
  20653888.805    -4162704.66649  -3234049.38249  20653889.1494   20653893.7914
  19928767.663   -19159693.12849 -14910892.10149  19928768.2264   19928772.5124
  22403823.455   -10102036.51549  -7854128.21749  22403823.4534   22403828.7054
  23205323.837   -11042187.93149  -8591291.16349  23205322.7934   23205328.7504
 96  7 11  2 19 29.9980000  0  7 23 15  3 21  1 31 25
  23512320.576    12890907.96249   9994206.91049  23512318.8544   23512324.6304
  22677518.036   -13029320.94049 -10127741.76249  22677518.9974   22677525.0584
  23276973.869     7257353.93449   5667442.45949  23276973.8194   23276978.7734
  20658646.375    -4137704.19749  -3214568.50549  20658646.6314   20658651.0044
  19929970.115   -19153372.10449 -14905966.62049  19929970.9844   19929975.4514
  22412535.946   -10056250.61349  -7818450.91149  22412536.3284   22412541.9154
  23184488.448   -11151664.80549  -8676597.72449  23184490.4384   23184496.4714
 96  7 11  2 19 59.9980000  0  7 23 15  3 21  1 31 25
  23524224.453    12953482.55949  10042966.29649  23524226.0564   23524232.3444
  22656687.445   -13138785.50149 -10213038.78749  22656688.4434   22656694.3134
  23293052.628     7341860.88749   5733291.98049  23293052.6354   23293060.5024
  20663452.098    -4112451.88149  -3194891.38349  20663451.8914   20663456.5594
  19931256.367   -19146610.96949 -14900698.20149  19931257.8854   19931262.0504
  22421329.291   -10010040.68249  -7782443.18449  22421329.9604   22421335.0784
  23163681.419   -11261015.14149  -8761805.71449  23163681.3244   23163687.5254
 96  7 11  2 20 29.9980000  0  7 23 15  3 21  1 31 25
  23536149.838    13016146.14049  10091795.02749  23536150.9284   23536156.8124
  22635894.659   -13248051.51349 -10298181.10749  22635894.9854   22635901.5344
  23309156.619     7426485.25949   5799233.00049  23309157.2924   23309163.0494
  20668301.723    -4086964.57849  -3175031.15549  20668302.0614   20668306.7604
  19932629.158   -19139403.40249 -14895081.91349  19932629.4644   19932633.6384
  22430202.697    -9963414.62949  -7746111.22249  22430202.5084   22430207.6734
  23142895.101   -11370240.62149  -8846916.39149  23142895.8174   23142902.3244
 96  7 11  2 20 59.9980000  0  7 23 15  3 21  1 31 25
  23548093.224    13078904.78049  10140697.82149  23548092.7514   23548099.3734
  22615141.487   -13357111.65549 -10383163.00749  22615141.9594   22615148.3634
  23325283.902     7511241.66449   5865276.90649  23325287.0594   23325293.2834
  20673199.576    -4061225.60349  -3154974.81749  20673200.1074   20673204.6694
  19934088.094   -19131733.85349 -14889105.63949  19934088.7084   19934092.9784
  22439154.515    -9916369.84449  -7709452.96849  22439154.8394   22439160.2684
  23122133.048   -11479339.13049  -8931928.14349  23122134.9704   23122141.9504
 96  7 11  2 21 29.9980000  0  7 23 15  3 21  1 31 25
  23560056.850    13141771.35949  10189684.74449  23560055.9334   23560062.0974
  22594426.875   -13465971.42349 -10467988.77349  22594427.2784   22594433.2394
  23341438.682     7596130.99749   5931424.38049  23341439.8194   23341447.1894
  20678143.688    -4035243.12449  -3134728.74149  20678144.3324   20678148.7814
  19935635.131   -19123604.02549 -14882770.70549  19935635.7044   19935640.2914
  22448182.934    -9868924.93049  -7672482.91849  22448183.2944   22448188.6604
  23101393.952   -11588330.32349  -9016856.26249  23101395.4844   23101401.4034
 96  7 11  2 21 59.9980000  0  7 23 15  3 21  1 31 25
  23572038.520    13204731.72949  10238744.75249  23572037.5134   23572043.5204
  22573748.773   -13574628.31549 -10552656.45149  22573750.7004   22573756.5494
  23357614.706     7681142.54349   5997667.08549  23357617.6034   23357624.2044
  20683135.816    -4009007.05049  -3114285.05349  20683136.5214   20683141.3024
  19937269.572   -19115016.33749 -14876078.99949  19937270.2144   19937274.2724
  22457288.434    -9821074.61149  -7635196.96749  22457288.5194   22457293.9274
  23080674.055   -11697216.43849  -9101702.51049  23080674.7654   23080680.5084
 96  7 11  2 22 29.9980000  0  7 23 15  3 21  1 31 25
  23584033.682    13267784.03449  10287876.41149  23584035.8914   23584041.7304
  22553114.190   -13683067.94249 -10637154.82949  22553114.4184   22553120.4574
  23373816.346     7766272.51349   6064002.07549  23373817.5284   23373822.7394
  20688182.234    -3982492.38649  -3093624.28349  20688182.5514   20688187.2524
  19938995.421   -19105946.54949 -14869011.62749  19938996.0854   19939000.4394
  22466473.399    -9772806.56949  -7597585.52949  22466473.7214   22466479.2624
  23059977.979   -11805975.95449  -9186450.11049  23059979.0344   23059984.9944
 96  7 11  2 22 59.9980000  0  7 23 15  3 21  1 31 25
  23596052.357    13330925.70249  10337077.69449  23596052.1224   23596056.3394
  22532519.875   -13791292.05649 -10721485.27849  22532520.5564   22532526.6704
  23390036.139     7851501.82749   6130414.47349  23390036.1234   23390041.5844
  20693277.642    -3955710.35549  -3072755.17649  20693278.9274   20693283.4444
  19940810.529   -19096408.37949 -14861579.28549  19940810.9204   19940815.6174
  22475734.498    -9724140.52849  -7559663.94749  22475734.6064   22475739.9554
  23039303.139   -11914618.71349  -9271106.71649  23039304.4244   23039310.4294
 96  7 11  2 23 29.9980000  0  7 23 15  3 21  1 31 25
  23608079.954    13394137.21649  10386333.41849  23608079.0854   23608084.9314
  22511967.112   -13899293.76349 -10805642.42049  22511968.1684   22511972.9904
  23406269.817     7936825.03349   6196900.01249  23406271.9994   23406278.9544
  20698423.702    -3928668.86149  -3051683.89149  20698424.6584   20698429.2714
  19942713.186   -19086408.52749 -14853787.18549  19942713.6554   19942718.4554
  22485070.929    -9675077.11249  -7521432.73649  22485071.1284   22485076.6064
  23018653.244   -12023136.39949  -9355665.88849  23018653.8554   23018659.7294
 96  7 11  2 23 59.9980000  0  7 23 15  3 21  1 31 25
  23620120.411    13457389.36149  10435620.77849  23620117.5014   23620122.6504
  22491456.790   -14007076.91549 -10889629.26549  22491457.9134   22491463.5024
  23422521.958     8022222.83149   6263443.67749  23422522.7144   23422530.1674
  20703618.982    -3901369.03149  -3030411.30849  20703619.4934   20703624.5204
  19944700.613   -19075965.84849 -14845650.03249  19944701.0214   19944705.8454
  22494481.621    -9625620.47249  -7482895.11549  22494481.7014   22494488.2414
  22998026.244   -12131531.48849  -9440129.52249  22998027.8574   22998033.4364
 96  7 11  2 24 29.9980000  0  7 23 15  3 21  1 31 25
  23632162.434    13520702.49149  10484955.65449  23632164.7724   23632170.6244
  22470988.034   -14114636.46349 -10973441.86149  22470989.5074   22470995.4034
  23438787.198     8107703.55349   6330051.96949  23438789.7124   23438796.7404
  20708861.481    -3873820.71749  -3008945.09849  20708862.0464   20708866.8034
  19946769.557   -19065092.18149 -14837177.03949  19946769.9774   19946774.9404
  22503965.631    -9575784.60849  -7444061.99149  22503966.0754   22503971.5844
  22977422.844   -12239803.28649  -9524497.09349  22977423.2354   22977429.6234
 96  7 11  2 24 59.9980000  0  7 23 15  3 21  1 31 25
  23644225.513    13584082.69549  10534342.80849  23644225.7624   23644232.5254
  22450563.718   -14221980.26749 -11057086.36049  22450563.0314   22450568.7224
  23455072.382     8193268.45649   6396725.85549  23455071.8134   23455079.3984
  20714147.726    -3846042.17249  -2987299.48849  20714148.1534   20714152.9924
  19948915.273   -19053817.77049 -14828391.78049  19948915.4534   19948920.3294
  22513519.105    -9525578.78949  -7404940.60149  22513519.6354   22513525.2224
  22956838.997   -12347963.26049  -9608777.52549  22956841.0344   22956846.8614
 96  7 11  2 25 29.9980000  0  7 23 15  3 21  1 31 25
  23656305.565    13647550.47549  10583798.19949  23656302.4084   23656308.3684
  22430178.092   -14329097.52649 -11140554.31749  22430179.5184   22430184.4184
  23471371.653     8278931.52649   6463476.23549  23471373.8254   23471379.0414
  20719478.602    -3818028.44549  -2965470.61849  20719478.8644   20719483.5804
  19951138.987   -19042128.49549 -14819283.25549  19951139.8604   19951144.5674
  22523147.964    -9474981.31249  -7365514.01249  22523147.6064   22523153.4054
  22936283.194   -12455990.31949  -9692954.39349  22936284.1904   22936290.1374
 96  7 11  2 25 59.9980000  0  7 23 15  3 21  1 31 25
  23668401.478    13711143.44549  10633351.13949  23668405.3474   23668410.2714
  22409839.304   -14435983.90049 -11223842.36449  22409839.5994   22409845.8594
  23487690.545     8364691.09149   6530301.81349  23487691.8484   23487699.1644
  20724853.084    -3789783.56149  -2943461.63049  20724853.6254   20724858.4424
  19953442.410   -19030026.92049 -14809853.45249  19953442.6074   19953447.2764
  22532850.470    -9423992.69749  -7325782.64749  22532850.9484   22532856.7054
  22915752.620   -12563885.71349  -9777028.65549  22915752.7654   22915758.3964
 96  7 11  2 26 29.9980000  0  7 23 15  3 21  1 31 25
  23680532.496    13774869.31449  10683007.65449  23680531.2814   23680537.1224
  22389540.922   -14542650.21149 -11306958.93149  22389541.7074   22389547.7114
  23504026.042     8450532.05049   6597190.81149  23504027.2674   23504034.6764
  20730268.244    -3761328.97449  -2921289.23149  20730268.5354   20730273.2574
  19955820.676   -19017530.79549 -14800116.20349  19955820.6114   19955825.3354
  22542624.510    -9372627.86349  -7285758.11149  22542625.2084   22542630.2884
  22895244.448   -12671657.74249  -9861006.79249  22895244.6774   22895249.9044
 96  7 11  2 26 59.9980000  0  7 23 15  3 21  1 31 25
  23692682.896    13838724.66649  10732765.05349  23692682.3074   23692687.9094
  22369287.170   -14649083.49149 -11389893.93649  22369288.4554   22369293.2544
  23520377.867     8536455.48049   6664144.08949  23520378.6554   23520384.6954
  20735728.169    -3732635.30549  -2898930.53649  20735728.5604   20735733.7364
  19958278.378   -19004617.20949 -14790053.66649  19958278.0094   19958282.9304
  22552474.929    -9320871.31649  -7245428.35449  22552474.1874   22552480.5284
  22874761.123   -12779285.91849  -9944872.83149  22874763.7564   22874769.0044
 96  7 11  2 27 29.9980000  0  7 23 15  3 21  1 31 25
  23704854.368    13902702.24449  10782617.70549  23704856.9954   23704862.6044
  22349079.173   -14755278.03149 -11472642.89849  22349080.0674   22349085.2484
  23536744.124     8622456.02149   6731157.41349  23536743.8324   23536750.4744
  20741237.441    -3703681.05349  -2876368.78949  20741238.4904   20741243.1544
  19960817.397   -18991273.91049 -14779656.28349  19960817.4614   19960822.0514
  22562397.064    -9268726.33949  -7204795.93349  22562397.1874   22562402.4544
  22854312.366   -12886762.99849 -10028621.13849  22854310.8394   22854317.2814
 96  7 11  2 27 59.9980000  0  7 23 15  3 21  1 31 25
  23717052.280    13966784.57649  10832552.00249  23717051.7634   23717056.5324
  22328917.092   -14861233.22049 -11555205.35749  22328916.5974   22328922.8634
  23553120.922     8708519.76849   6798219.99149  23553121.9434   23553127.7014
  20746802.040    -3674446.22149  -2853588.40549  20746801.7444   20746806.3864
  19963437.757   -18977500.38649 -14768923.65949  19963438.2344   19963442.8064
  22572390.757    -9216208.20149  -7163872.73149  22572390.1584   22572396.3604
  22833886.894   -12994094.19449 -10112255.76949  22833886.5554   22833892.6584
 96  7 11  2 28 29.9980000  0  7 23 15  3 21  1 31 25
  23729258.865    14030938.79349  10882542.30049  23729260.0614   23729265.0864
  22308799.285   -14966951.37049 -11637583.11549  22308799.7104   22308804.9854
  23569505.928     8794641.18549   6865327.51949  23569509.3014   23569517.0914
  20752419.279    -3644923.08449  -2830583.37449  20752419.9244   20752424.6084
  19966142.065   -18963289.07249 -14757849.90249  19966142.7724   19966147.0394
  22582453.722    -9163326.82249  -7122666.48649  22582454.1334   22582460.0924
  22813491.111   -13101272.47849 -10195771.25549  22813491.5734   22813496.8834
 96  7 11  2 28 59.9980000  0  7 23 15  3 21  1 31 25
  23741482.834    14095163.40049  10932587.41549  23741482.2494   23741486.6064
  22288728.689   -15072424.86949 -11719770.23949  22288728.7664   22288734.1784
  23585908.495     8880832.58749   6932489.56649  23585911.5294   23585919.2004
  20758092.666    -3615110.91949  -2807353.12449  20758092.6944   20758097.3324
  19968933.832   -18948620.91049 -14746420.16249  19968934.1964   19968938.3884
  22592585.632    -9110081.67149  -7081176.77749  22592585.6844   22592591.8284
  22793123.527   -13208290.69749 -10279162.01949  22793125.5954   22793131.7334
 96  7 11  2 29 29.9980000  0  7 23 15  3 21  1 31 25
  23753717.890    14159470.76149  10982697.03149  23753719.1064   23753723.8914
  22268704.478   -15177652.44649 -11801765.73449  22268704.3514   22268710.0354
  23602325.491     8967090.14049   6999703.15149  23602325.8764   23602331.5294
  20763816.499    -3585030.92149  -2783914.17349  20763816.9454   20763821.7554
  19971810.124   -18933504.97349 -14734641.51149  19971810.5384   19971815.0074
  22602787.778    -9056471.25349  -7039402.43849  22602788.1744   22602793.3944
  22772789.746   -13315153.24949 -10362431.47749  22772790.9134   22772796.2874
 96  7 11  2 29 59.9980000  0  7 23 15  3 21  1 31 25
  23765973.233    14223864.69949  11032874.11249  23765973.2954   23765978.7414
  22248727.247   -15282633.39049 -11883569.04649  22248727.6554   22248732.6974
  23618749.774     9053406.04349   7066962.23149  23618751.0764   23618756.7404
  20769588.859    -3554698.71849  -2760278.69649  20769588.9764   20769593.4614
  19974768.313   -18917958.48949 -14722527.36649  19974768.7034   19974773.1994
  22613057.008    -9002505.54649  -6997351.26049  22613057.1604   22613063.3324
  22752483.754   -13421866.96549 -10445584.96349  22752483.7154   22752489.9224
 96  7 11  2 30 29.9980000  0  7 23 15  3 21  1 31 25
  23778245.837    14288360.50149  11083130.57949  23778245.8364   23778251.4094
  22228797.463   -15387362.57149 -11965176.19249  22228798.6924   22228803.6514
  23635187.455     9139779.56349   7134266.21949  23635187.9874   23635193.8834
  20775405.138    -3524132.59249  -2736460.94149  20775405.5654   20775410.3074
  19977805.792   -18901994.31149 -14710087.74949  19977806.7684   19977811.2034
  22623395.730    -8948175.64949  -6955016.29549  22623395.6404   22623401.0024
  22732205.266   -13528433.23449 -10528623.55749  22732205.6194   22732211.1394
 96  7 11  2 30 59.9980000  0  7 23 15  3 21  1 31 25
  23790535.012    14352956.28449  11133464.92049  23790538.1744   23790544.3264
  22208914.450   -15491849.99149 -12046594.95249  22208914.5264   22208919.8984
  23651628.498     9226186.24349   7201596.02449  23651629.8344   23651638.2634
  20781262.976    -3493350.63449  -2712475.00249  20781263.0334   20781268.0024
  19980916.330   -18885647.99049 -14697350.35549  19980917.0724   19980921.5754
  22633800.222    -8893497.61449  -6912410.05749  22633800.3554   22633806.2814
  22711951.267   -13634865.50049 -10611557.72249  22711952.0574   22711957.4424
 96  7 11  2 31 29.9980000  0  7 23 15  3 21  1 31 25
  23802845.865    14417647.66349  11183873.78549  23802848.3464   23802853.3764
  22189079.355   -15596087.75149 -12127819.15849  22189079.2134   22189084.2494
  23668074.355     9312605.56749   7268935.68549  23668074.5794   23668082.8274
  20787162.924    -3462345.14149  -2688314.88449  20787163.2104   20787167.8434
  19984096.185   -18868940.75449 -14684331.73149  19984096.5114   19984100.9524
  22644270.136    -8838476.11249  -6869536.18149  22644271.3804   22644276.1874
  22691724.066   -13741155.66749 -10694381.16849  22691725.3844   22691730.9854
 96  7 11  2 31 59.9980000  0  7 23 15  3 21  1 31 25
  23815173.957    14482418.35649  11234344.43549  23815174.5504   23815180.3654
  22169290.553   -15700076.22749 -12208849.12049  22169291.0544   22169296.0304
  23684519.682     9399035.10149   7336283.28749  23684523.0574   23684530.0924
  20793106.341    -3431112.14149  -2663977.48249  20793106.7454   20793111.5094
  19987343.310   -18851874.37849 -14671033.25249  19987344.0124   19987348.6164
  22654803.803    -8783131.02349  -6826410.15749  22654803.5014   22654808.4324
  22671527.286   -13847292.95449 -10777085.49149  22671528.1324   22671532.8284
 96  7 11  2 32 29.9980000  0  7 23 15  3 21  1 31 25
  23827512.662    14547261.76249  11284871.76149  23827513.1574   23827520.3354
  22149550.449   -15803808.90449 -12289679.76449  22149550.9654   22149556.7334
  23700973.257     9485488.48649   7403649.49949  23700973.9754   23700980.7554
  20799092.688    -3399653.21449  -2639464.03949  20799092.9734   20799097.8644
  19990663.771   -18834427.77949 -14657438.50049  19990664.0834   19990668.6994
  22665396.133    -8727457.07849  -6783027.89549  22665397.1464   22665402.3804
  22651364.271   -13953245.18449 -10859645.61049  22651366.1004   22651371.5284
 96  7 11  2 32 59.9980000  0  7 23 15  3 21  1 31 25
  23839867.317    14612184.87649  11335461.19249  23839867.2984   23839873.3854
  22129860.529   -15907279.78649 -12370306.41749  22129861.6314   22129866.6644
  23717432.541     9571981.59149   7471046.65849  23717432.5284   23717439.6534
  20805124.535    -3367958.38449  -2614766.77749  20805124.1794   20805129.0324
  19994058.826   -18816587.93449 -14643537.31949  19994059.1644   19994063.5454
  22676052.234    -8671469.15749  -6739400.95749  22676051.2574   22676056.7854
  22631242.780   -14058989.09449 -10942043.40749  22631243.1034   22631248.8374
 96  7 11  2 33 29.9980000  0  7 23 15  3 21  1 31 25
  23852238.925    14677187.22749  11386112.37649  23852236.6044   23852242.5564
  22110221.062   -16010489.05949 -12450729.22549  22110221.4384   22110225.8944
  23733901.962     9658526.64349   7538484.28249  23733901.4264   23733910.3394
  20811201.793    -3336024.31849  -2589883.09549  20811201.3424   20811206.2534
  19997530.883   -18798338.02349 -14629316.60949  19997532.0704   19997536.3354
  22686765.806    -8615165.84349  -6695528.27949  22686765.4654   22686771.1284
  22611158.124   -14164527.04249 -11024280.71349  22611160.6804   22611166.0494
 96  7 11  2 33 59.9980000  0  7 23 15  3 21  1 31 25
  23864625.142    14742278.95849  11436833.19349  23864622.8254   23864629.2834
  22090630.825   -16113433.91049 -12530945.98149  22090631.7344   22090636.7564
  23750383.397     9745143.89649   7605978.17349  23750385.8294   23750392.3134
  20817326.256    -3303835.81149  -2564801.15249  20817326.6994   20817331.5554
  20001086.177   -18779659.34649 -14614761.79249  20001086.3234   20001090.6284
  22697543.109    -8558537.53449  -6651402.35049  22697542.1044   22697547.3834
  22591115.918   -14269860.79749 -11106358.90149  22591115.3804   22591120.6494
 96  7 11  2 34 29.9980000  0  7 23 15  3 21  1 31 25
  23877026.736    14807475.74549  11487635.85649  23877029.7974   23877035.5324
  22071093.554   -16216108.01749 -12610951.76849  22071092.9884   22071098.7554
  23766880.756     9831826.14649   7673522.72449  23766879.5194   23766887.9524
  20823501.828    -3271379.58249  -2539510.59349  20823502.7154   20823507.5114
  20004719.963   -18760560.59349 -14599879.64249  20004720.7004   20004724.9264
  22708382.826    -8501568.93249  -6607011.24749  22708382.5124   22708388.7744
  22571106.730   -14375003.73049 -11188288.40749  22571107.9474   22571112.7314
 96  7 11  2 34 59.9980000  0  7 23 15  3 21  1 31 25
  23889456.351    14872774.14549  11538517.71749  23889455.2994   23889463.1204
  22051603.853   -16318521.97749 -12690754.82549  22051605.0034   22051609.9034
  23783379.648     9918537.15449   7741089.66249  23783380.2904   23783387.6454
  20829731.000    -3238647.05649  -2514004.73749  20829731.5414   20829736.4424
  20008429.883   -18741067.94849 -14584690.56849  20008430.1784   20008434.1874
  22719287.889    -8444272.29949  -6562364.53949  22719286.6014   22719291.9884
  22551125.948   -14480003.25049 -11270106.14849  22551126.8954   22551132.6984
 96  7 11  2 35 29.9980000  0  7 23 15  3 21  1 31 25
  23901899.527    14938165.35949  11589471.89649  23901899.9054   23901906.1744
  22032166.376   -16420664.36149 -12770346.27249  22032167.3524   22032173.1694
  23799883.724    10005266.45449   7808670.87149  23799885.5314   23799892.0514
  20836015.255    -3205626.17449  -2488274.19049  20836015.4774   20836020.0884
  20012214.154   -18721176.73449 -14569190.91749  20012215.2694   20012219.2614
  22730255.422    -8386629.07149  -6517447.75549  22730255.2924   22730261.4874
  22531170.758   -14584862.83149 -11351814.84549  22531172.5684   22531178.1504
 96  7 11  2 35 59.9980000  0  7 23 15  3 21  1 31 25
  23914359.848    15003642.99749  11640493.42349  23914359.1834   23914365.0104
  22012782.542   -16522530.45549 -12849722.43549  22012782.3814   22012788.3414
  23816387.443    10091993.60849   7876250.39449  23816386.9584   23816395.3664
  20842352.074    -3172320.90449  -2462322.04549  20842353.0854   20842357.6314
  20016074.323   -18700891.97449 -14553384.60849  20016075.1764   20016079.3714
  22741288.630    -8328648.44849  -6472268.08149  22741288.6134   22741293.8824
  22511247.332   -14689572.91649 -11433407.07049  22511246.8824   22511252.0124
 96  7 11  2 36 29.9980000  0  7 23 15  3 21  1 31 25
  23926834.146    15069200.97849  11691577.56349  23926834.5084   23926840.7634
  21993451.329   -16624116.70449 -12928880.51249  21993451.7264   21993457.4884
  23832888.422    10178700.09349   7943813.78549  23832889.1614   23832895.7514
  20848741.746    -3138747.28149  -2436160.78949  20848742.1754   20848746.7814
  20020008.843   -18680212.64049 -14537270.83849  20020010.2424   20020014.7224
  22752383.567    -8270339.29749  -6426832.39749  22752384.2934   22752389.7454
  22491353.049   -14794119.61449 -11514871.97949  22491352.3824   22491357.0754
 96  7 11  2 36 59.9980000  0  7 23 15  3 21  1 31 25
  23939322.161    15134828.86049  11742716.15249  23939323.1804   23939328.5374
  21974172.995   -16725420.20649 -13007818.28149  21974173.9094   21974179.3474
  23849380.787    10265387.58049   8011362.38849  23849384.4014   23849391.5434
  20855178.851    -3104918.46249  -2409800.68049  20855179.2894   20855183.7234
  20024022.155   -18659126.26249 -14520839.89049  20024022.9674   20024027.4364
  22763540.920    -8211712.68549  -6381149.34649  22763540.5554   22763545.5934
  22471489.354   -14898485.53349 -11596196.02149  22471491.9334   22471497.1104
 96  7 11  2 37 29.9980000  0  7 23 15  3 21  1 31 25
  23951821.843    15200520.99949  11793904.80649  23951823.9784   23951829.9134
  21954949.688   -16826444.12649 -13086538.18849  21954949.8344   21954955.3514
  23865875.520    10352052.14549   8078893.14949  23865876.3524   23865883.2884
  20861660.467    -3070856.56249  -2383258.94949  20861661.3294   20861665.6894
  20028111.038   -18637637.60049 -14504095.47449  20028112.2024   20028116.3744
  22774753.532    -8152778.21949  -6335226.41449  22774756.0134   22774762.1984
  22451671.053   -15002647.64549 -11677361.25949  22451671.0614   22451675.5294
 96  7 11  2 37 59.9980000  0  7 23 15  3 21  1 31 25
  23964339.523    15266294.14349  11845156.60349  23964339.8454   23964346.7664
  21935780.119   -16927179.74349 -13165033.44149  21935780.2664   21935786.1794
  23882364.070    10438706.65049   8146416.04949  23882366.5984   23882372.9714
  20868186.699    -3036566.12649  -2356539.13249  20868186.7264   20868190.9184
  20032279.216   -18615739.67449 -14487032.15449  20032279.1804   20032283.4264
  22786028.451    -8093536.73949  -6289064.24749  22786029.3114   22786034.6754
  22431890.221   -15106585.26249 -11758351.54849  22431892.1154   22431897.5264
 96  7 11  2 38 29.9980000  0  7 23 15  3 21  1 31 25
  23976871.062    15332156.31049  11896477.76849  23976872.5884   23976880.3204
  21916665.944   -17027626.00549 -13243303.23149  21916666.0844   21916671.0624
  23898856.362    10525364.86149   8213941.84249  23898856.0754   23898863.1924
  20874754.967    -3002047.28949  -2329641.34349  20874755.7124   20874759.7644
  20036521.651   -18593439.70849 -14469655.55649  20036522.5954   20036526.8084
  22797360.738    -8033990.53949  -6242664.63349  22797360.7104   22797365.4764
  22412154.603   -15210303.37049 -11839170.80649  22412154.9674   22412159.9094
 96  7 11  2 38 59.9980000  0  7 23 15  3 21  1 31 25
  23989421.769    15398107.68549  11947868.43849  23989424.0684   23989430.4414
  21897607.735   -17127777.16649 -13321343.06849  21897608.5544   21897613.8194
  23915347.959    10612036.69849   8281478.25749  23915350.2424   23915356.4654
  20881367.661    -2967297.75649  -2302563.79249  20881368.0044   20881372.3704
  20040838.251   -18570756.95749 -14451980.68249  20040839.0014   20040843.1304
  22808750.227    -7974143.62149  -6196030.70049  22808748.5194   22808755.1434
  22392457.942   -15313803.31749 -11919820.05449  22392459.6294   22392465.5824
 96  7 11  2 39 29.9980000  0  7 23 15  3 21  1 31 25
  24001989.536    15464131.68649  11999315.70449  24001987.8224   24001993.3774
  21878603.955   -17227643.53949 -13399160.99349  21878603.8784   21878609.1534
  23931841.923    10698709.21749   8349015.19149  23931843.2674   23931850.5284
  20888022.634    -2932326.71449  -2275313.64349  20888022.7104   20888027.0824
  20045221.601   -18547724.01849 -14434032.93949  20045221.9784   20045226.3194
  22820190.257    -7914014.43549  -6149176.81649  22820191.1084   22820195.9124
  22372801.369   -15417102.54649 -12000312.90649  22372802.8874   22372807.9194
 96  7 11  2 39 59.9980000  0  7 23 15  3 21  1 31 25
  24014564.003    15530232.07849  12050822.48349  24014566.6454   24014573.0894
  21859656.720   -17327209.99449 -13476745.20949  21859657.1474   21859662.6424
  23948336.532    10785400.29749   8416566.59149  23948340.0104   23948347.7784
  20894722.664    -2897115.69549  -2247876.49249  20894723.1844   20894727.5894
  20049670.683   -18524344.01749 -14415814.75549  20049670.9754   20049675.5694
  22831685.427    -7853605.52649  -6102104.96449  22831686.0574   22831691.4634
  22353181.406   -15520202.26149 -12080650.29549  22353182.9634   22353188.7074
 96  7 11  2 40 29.9980000  0  7 23 15  3 21  1 31 25
  24027160.797    15596404.07149  12102385.06549  24027158.7664   24027164.2194
  21840767.243   -17426475.80449 -13554095.16649  21840767.7654   21840773.1764
  23964836.174    10872093.21849   8484119.40749  23964837.6694   23964844.4884
  20901471.391    -2861652.42149  -2220242.78349  20901471.6214   20901476.1704
  20054182.317   -18500637.09349 -14397341.82749  20054182.4814   20054186.9004
  22843232.895    -7792924.68349  -6054821.22249  22843233.5094   22843238.8434
  22333598.626   -15623118.83349 -12160844.97149  22333598.7084   22333604.1774
 96  7 11  2 40 59.9980000  0  7 23 15  3 21  1 31 25
  24039764.179    15662651.59449  12154006.50349  24039764.9154   24039770.0094
  21821935.162   -17525436.21449 -13631207.15549  21821936.1344   21821941.0094
  23981326.715    10958771.65149   8551660.92049  23981331.6164   23981338.9834
  20908268.089    -2825931.88249  -2192408.60149  20908268.8294   20908273.6344
  20058754.127   -18476609.83449 -14378619.28749  20058754.5414   20058759.1434
  22854833.245    -7731969.58149  -6007323.77649  22854833.4464   22854838.6654
  22314049.320   -15725849.85949 -12240895.07949  22314049.7514   22314054.8664
 96  7 11  2 41 29.9980000  0  7 23 15  3 21  1 31 25
  24052385.896    15728983.86149  12205693.98949  24052387.5134   24052392.6314
  21803161.230   -17624097.68549 -13708086.20049  21803161.5074   21803166.3164
  23997819.337    11045418.61749   8619177.92649  23997820.2184   23997826.6704
  20915115.893    -2789953.40749  -2164373.43849  20915115.2304   20915120.2444
  20063389.533   -18452250.84449 -14359638.25449  20063389.8704   20063394.3024
  22866482.827    -7670744.39449  -5959615.86649  22866484.2904   22866489.4424
  22294535.538   -15828393.12049 -12320798.85649  22294536.8124   22294541.4754
 96  7 11  2 41 59.9980000  0  7 23 15  3 21  1 31 25
  24065032.075    15795422.97049  12257464.72349  24065029.7284   24065035.6364
  21784445.358   -17722446.62249 -13784721.71649  21784446.1814   21784451.6124
  24014306.737    11132049.48349   8686682.39049  24014305.0524   24014313.4644
  20922011.915    -2753714.07249  -2136135.00749  20922011.6114   20922016.1244
  20068093.010   -18427534.30349 -14340378.61249  20068093.4764   20068097.9344
  22878187.881    -7609234.66549  -5911686.25249  22878188.8664   22878194.6844
  22275061.493   -15930727.22049 -12400539.65049  22275062.6044   22275067.8794
 96  7 11  2 42 29.9980000  0  7 23 15  3 21  1 31 25
  24077690.408    15861971.95649  12309321.06549  24077693.8094   24077699.9924
  21765790.013   -17820483.61149 -13861114.15449  21765790.4034   21765795.6604
  24030784.368    11218652.02249   8754164.77049  24030785.5844   24030793.4444
  20928954.715    -2717220.80949  -2107698.70349  20928955.7324   20928960.5754
  20072865.707   -18402448.60249 -14320831.31149  20072866.8604   20072871.4574
  22889950.811    -7547429.60249  -5863526.48549  22889949.0404   22889955.5964
  22255629.967   -16032841.76849 -12480109.36749  22255630.8084   22255635.8994
 96  7 11  2 42 59.9980000  0  7 23 15  3 21  1 31 25
  24090374.854    15928626.90749  12361259.98149  24090377.7974   24090383.4344
  21747194.380   -17918204.48949 -13937260.28049  21747194.6044   21747200.1434
  24047260.498    11305223.79349   8821623.19149  24047259.4204   24047267.3284
  20935946.671    -2680480.60549  -2079069.97849  20935947.0304   20935952.2584
  20077714.323   -18376975.08849 -14300981.81849  20077714.5064   20077718.9004
  22901766.866    -7485327.19449  -5815135.03049  22901767.1714   22901773.4324
  22236245.336   -16134712.05249 -12559488.75249  22236245.5954   22236250.9354
 96  7 11  2 43 29.9980000  0  7 23 15  3 21  1 31 25
  24103077.558    15995375.50049  12413271.88349  24103080.7294   24103086.2614
  21728658.523   -18015611.35349 -14013161.71649  21728658.8154   21728664.1874
  24063723.595    11391763.53149   8889056.64849  24063726.8354   24063734.9584
  20942983.405    -2643499.92149  -2050253.86949  20942984.4734   20942989.3774
  20082637.220   -18351105.50849 -14280823.70049  20082637.4704   20082641.6464
  22913639.047    -7422933.98749  -5766516.98549  22913640.4004   22913646.1884
  22216906.521   -16236336.08349 -12638676.25649  22216907.1074   22216912.7464
 96  7 11  2 43 59.9980000  0  7 23 15  3 21  1 31 25
  24115801.456    16062217.09749  12465356.26049  24115799.4794   24115806.0174
  21710183.144   -18112694.77149 -14088811.12149  21710184.1464   21710189.6534
  24080188.928    11478270.46449   8956464.56249  24080189.4364   24080196.5254
  20950067.909    -2606272.77949  -2021245.71149  20950068.6804   20950073.3754
  20087635.727   -18324837.43349 -14260355.07349  20087635.8764   20087640.2894
  22925567.922    -7360249.74149  -5717672.16149  22925568.8754   22925574.4214
  22197614.203   -16337716.74949 -12717674.13349  22197615.0924   22197620.3584
 96  7 11  2 44 29.9980000  0  7 23 15  3 21  1 31 25
  24128537.826    16129142.57749  12517506.00349  24128534.7434   24128540.1874
  21691769.893   -18209460.60049 -14164213.06149  21691770.2934   21691775.6654
  24096638.435    11564715.92749   9023824.54249  24096639.5634   24096646.9744
  20957200.978    -2568795.73349  -1992042.83249  20957200.4404   20957204.8004
  20092708.893   -18298178.83849 -14239582.14549  20092708.9114   20092713.2534
  22937550.674    -7297284.44049  -5668608.31749  22937551.0364   22937556.4274
  22178367.711   -16438859.98449 -12796486.99249  22178368.2594   22178372.8874
 96  7 11  2 44 59.9980000  0  7 23 15  3 21  1 31 25
  24141290.533    16196171.38549  12569736.28049  24141290.6664   24141295.8234
  21673419.010   -18305894.12649 -14239356.04949  21673419.8344   21673425.1614
  24113079.562    11651117.28349   9091150.16449  24113081.3214   24113088.9514
  20964380.235    -2531059.72649  -1962638.15449  20964381.2824   20964385.8664
  20097858.147   -18271117.41649 -14218495.32549  20097858.4504   20097862.8184
  22949585.588    -7234037.42249  -5619324.96749  22949586.1434   22949591.8914
  22159167.262   -16539753.18049 -12875105.01749  22159168.0844   22159173.2984
 96  7 11  2 45 29.9980000  0  6 15  3 21  1 31 25
  21655130.521   -18402001.83449 -14314245.15949  21655131.2184   21655136.4534
  24129515.232    11737487.15749   9158451.24849  24129516.6084   24129523.7714
  20971608.996    -2493076.51949  -1933040.85749  20971608.9204   20971613.9614
  20103081.083   -18243669.80549 -14197107.57849  20103081.6074   20103086.1714
  22961673.754    -7170521.90149  -5569832.37749  22961673.2044   22961678.1594
  22140012.795   -16640413.76849 -12953541.78649  22140013.4104   22140018.4464
 96  7 11  2 45 59.9980000  0  6 15  3 21  1 31 25
  21636905.102   -18497776.08749 -14388874.43649  21636905.8304   21636910.7824
  24145947.471    11823827.10049   9225729.01449  24145947.3564   24145955.0644
  20978884.703    -2454842.04749  -1903247.76949  20978885.1794   20978890.1024
  20108378.071   -18215837.62049 -14175420.17049  20108377.9314   20108382.2294
  22973809.017    -7106745.17349  -5520136.26349  22973808.9444   22973814.5784
  22120903.456   -16740829.90449 -13031788.08449  22120904.9164   22120909.5554
 96  7 11  2 46 29.9980000  0  6 15  3 21  1 31 25
  21618744.458   -18593211.15249 -14463239.39949  21618744.8934   21618749.6554
  24162372.112    11910137.04759   9292983.42459  24162371.6864   24162379.2854
  20986208.223    -2416355.67749  -1873258.39749  20986208.7274   20986213.3494
  20113744.641   -18187632.14849 -14153441.88049  20113745.3864   20113749.6974
  22985994.891    -7042703.70049  -5470233.84449  22985995.8634   22986000.6734
  22101845.077   -16840990.07849 -13109834.92549  22101844.7774   22101849.8594
 96  7 11  2 46 59.9980000  0  6 15  3 21  1 31 25
  21600646.682   -18688317.75049 -14537348.41749  21600646.6144   21600651.7174
  24178787.783    11996401.90759   9360202.71159  24178787.0704   24178794.6044
  20993578.307    -2377627.85349  -1843080.88349  20993578.6764   20993583.4824
  20119176.470   -18159088.97349 -14131200.44649  20119176.5664   20119181.2474
  22998228.093    -6978419.48149  -5420142.28349  22998228.9024   22998234.9614
  22082829.853   -16940911.81649 -13187695.98649  22082830.6064   22082835.5094
 96  7 11  2 47 29.9980000  0  5 15 21  1 31 25
  21582612.179   -18783088.48449 -14611195.72649  21582612.5284   21582617.8754
  21000994.770    -2338650.90249  -1812709.24349  21000995.6614   21001000.3134
  20124670.900   -18130212.08749 -14108698.97449  20124671.8184   20124676.4644
  23010507.128    -6913900.03049  -5369867.40249  23010506.6384   23010512.0584
  22063861.811   -17040591.97049 -13265368.80049  22063862.0904   22063866.4904
 96  7 11  2 47 59.9980000  0  5 15 21  1 31 25
  21564642.682   -18877515.81249 -14684775.44749  21564643.6844   21564649.1474
  21008462.925    -2299410.15549  -1782132.04549  21008462.7044   21008467.6384
  20130231.647   -18100994.79249 -14085932.25449  20130231.5574   20130236.0904
  23022829.936    -6849136.49649  -5319402.33649  23022830.9494   23022835.5484
  22044940.251   -17140024.00449 -13342848.25649  22044941.0034   22044945.4724
 96  7 11  2 48 29.9980000  0  5 15 21  1 31 25
  21546739.827   -18971598.26149 -14758086.42249  21546739.9864   21546745.4874
  21015980.678    -2259902.73549  -1751347.05249  21015980.6564   21015985.6264
  20135854.387   -18071446.40249 -14062907.53949  20135854.8024   20135858.8424
  23035198.857    -6784129.16949  -5268747.31149  23035200.9284   23035207.0764
  22026065.108   -17239212.37049 -13420137.85549  22026066.1574   22026070.2244
 96  7 11  2 48 59.9980000  0  5 15 21  1 31 25
  21528901.957   -19065335.99849 -14831128.79949  21528902.6204   21528907.5204
  21023547.726    -2220134.77149  -1720359.03849  21023548.0244   21023553.1424
  20141539.272   -18041573.74549 -14039630.14649  20141539.1964   20141543.5684
  23047614.342    -6718895.76049  -5217916.11149  23047614.8754   23047620.4334
  22007235.916   -17338160.33449 -13497240.12249  22007236.5474   22007241.3714
 96  7 11  2 49 29.9980000  0  5 15 21  1 31 25
  21511134.163   -19158709.51249 -14903887.36049  21511134.1364   21511139.4584
  21031165.268    -2180103.37549  -1689165.74849  21031165.9974   21031171.0894
  20147291.479   -18011343.68849 -14016074.25449  20147291.6454   20147296.1214
  23060075.340    -6653415.56849  -5166892.62749  23060075.4454   23060080.0284
  21988456.083   -17436849.96949 -13574141.09049  21988456.5844   21988461.2924
 96  7 11  2 49 59.9980000  0  5 15 21  1 31 25
  21493430.265   -19251744.02449 -14976381.76449  21493430.5514   21493435.3614
  21038829.721    -2139828.21449  -1657782.51249  21038830.0274   21038835.2904
  20153104.541   -17980792.74349 -13992268.32149  20153105.4334   20153109.8194
  23072577.696    -6587712.92249  -5115695.77949  23072578.7714   23072583.7164
  21969721.527   -17535300.01049 -13650855.36549  21969722.3374   21969727.1574
 96  7 11  2 50 29.9980000  0  5 15 21  1 31 25
  21475792.655   -19344427.65949 -15048602.75849  21475793.3374   21475798.1144
  21046540.048    -2099309.31649  -1626209.35649  21046540.2564   21046545.7024
  20158979.409   -17949926.88849 -13968217.00049  20158978.9914   20158983.4444
  23085123.898    -6521792.21649  -5064329.02649  23085122.6794   23085127.0934
  21951036.284   -17633489.08049 -13727366.29249  21951037.8774   21951042.0284
 96  7 11  2 50 59.9980000  0  5 15 21  1 31 25
  21458224.463   -19436748.38749 -15120540.97649  21458224.9844   21458230.3784
  21054298.314    -2058544.10349  -1594444.26249  21054297.9144   21054302.7434
  20164915.771   -17918728.49749 -13943906.56249  20164915.9644   20164920.3074
  23097708.904    -6455644.10749  -5012785.08349  23097710.8074   23097714.4884
  21932404.055   -17731402.71049 -13803662.58649  21932405.3384   21932409.2304
 96  7 11  2 51 29.9980000  0  5 15 21  1 31 25
  21440723.363   -19528718.44249 -15192205.93249  21440723.9584   21440729.0544
  21062099.668    -2017545.53949  -1562497.33949  21062099.5584   21062104.4764
  20170915.803   -17887198.19849 -13919337.48849  20170915.6814   20170920.1744
  23110337.827    -6389277.46749  -4961070.85049  23110339.2074   23110343.7874
  21913822.610   -17829046.64049 -13879748.72749  21913824.1434   21913828.4674
 96  7 11  2 51 59.9980000  0  5 15 21  1 31 25
  21423290.186   -19620332.76649 -15263593.70349  21423290.0444   21423294.7144
  21069947.538    -1976303.84849  -1530360.96849  21069947.8204   21069952.7844
  20176976.850   -17855344.72749 -13894516.60249  20176977.2764   20176981.6234
  23123008.208    -6322696.93149  -4909189.95149  23123010.2494   23123013.9574
  21895296.995   -17926405.56049 -13955612.78649  21895297.1484   21895301.2494
 96  7 11  2 52 29.9980000  0  5 15 21  1 31 25
  21405927.138   -19711573.32049 -15334690.22449  21405927.8704   21405932.9504
  21077842.954    -1934816.22049  -1498032.96349  21077842.7664   21077847.5404
  20183104.148   -17823145.65349 -13869426.41449  20183104.6834   20183108.9994
  23135726.054    -6255873.74749  -4857119.98249  23135725.4494   23135730.4694
  21876823.705   -18023477.22249 -14031253.00049  21876825.0014   21876829.1834
 96  7 11  2 52 59.9980000  0  5 15 21  1 31 25
  21388634.671   -19802446.28249 -15405500.30949  21388635.0074   21388640.0584
  21085784.313    -1893082.83149  -1465513.45849  21085784.1814   21085789.2564
  20189297.068   -17790603.00849 -13844068.50649  20189297.3794   20189301.6004
  23148484.956    -6188811.72449  -4804863.89649  23148488.0794   23148492.9754
  21858404.715   -18120272.82649 -14106678.11049  21858405.1944   21858409.4974
 96  7 11  2 53 29.9980000  0  6 15 21 14  1 31 25
  21371412.922   -19892948.98849 -15476021.89149  21371412.9154   21371417.9824
  21093773.684    -1851095.25249  -1432795.88649  21093774.4784   21093779.4824
  24243282.017    -5706367.05959  -4430478.00559  24243279.5444   24243286.1164
  20195552.709   -17757728.27249 -13818451.83649  20195553.3464   20195557.6154
  23161292.665    -6121516.55349  -4752426.15149  23161292.1164   23161298.2114
  21840038.204   -18216791.57149 -14181887.48049  21840038.5534   21840042.8374
 96  7 11  2 53 59.9980000  0  6 15 21 14  1 31 25
  21354259.700   -19983083.31349 -15546256.41449  21354261.0114   21354265.7484
  21101811.483    -1808855.77649  -1399882.02649  21101812.2674   21101817.0124
  24224940.044    -5802735.33649  -4505570.06849  24224942.0924   24224946.4914
  20201867.940   -17724537.50749 -13792588.90649  20201869.0054   20201873.6974
  23174140.385    -6054002.10349  -4699817.53949  23174140.5624   23174145.4354
  21821722.086   -18313046.87649 -14256891.57949  21821721.8804   21821726.1584
 96  7 11  2 54 29.9980000  0  6 15 21 14  1 31 25
  21337177.886   -20072852.13749 -15616206.13449  21337178.5644   21337183.6024
  21109896.556    -1766366.79549  -1366773.74249  21109897.6364   21109902.7184
  24206592.099    -5899147.42159  -4580696.33249  24206595.7604   24206602.1574
  20208244.579   -17691032.41849 -13766481.04749  20208244.8234   20208249.6064
  23187026.296    -5986285.55349  -4647051.41549  23187026.1984   23187032.2354
  21803451.824   -18409047.10049 -14331696.89849  21803453.5874   21803457.8134
 96  7 11  2 54 59.9980000  0  6 15 21 14  1 31 25
  21320167.956   -20162241.16249 -15685859.91349  21320168.2634   21320173.5754
  21118032.700    -1723616.85449  -1333462.10349  21118032.8744   21118037.4394
  24188242.813    -5995594.91949  -4655850.12249  24188241.0994   24188248.2004
  20214681.109   -17657208.75749 -13740124.94649  20214681.5244   20214685.8534
  23199946.138    -5918388.58849  -4594144.72049  23199947.1074   23199952.5404
  21785236.872   -18504768.32149 -14406284.82149  21785238.4654   21785242.5664
 96  7 11  2 55 29.9980000  0  6 15 21 14  1 31 25
  21303230.186   -20251254.07749 -15755220.61449  21303229.6734   21303234.4984
  21126212.185    -1680624.49249  -1299961.58249  21126213.4074   21126218.7834
  24169878.966    -6092078.21849  -4731031.85449  24169881.6154   24169886.3834
  20221178.022   -17623067.29149 -13713521.20549  20221178.5064   20221182.5724
  23212900.108    -5850324.28549  -4541107.62749  23212898.9634   23212904.7494
  21767074.383   -18600221.82649 -14480664.13249  21767073.9374   21767078.6274
 96  7 11  2 55 59.9980000  0  6 15 21 14  1 31 25
  21286363.989   -20339881.79549 -15824281.16149  21286364.3254   21286369.3894
  21134440.209    -1637394.40749  -1266275.80649  21134440.2964   21134445.3044
  24151518.418    -6188578.38349  -4806226.75949  24151518.3514   24151524.1794
  20227737.107   -17588597.35749 -13686661.52549  20227737.9414   20227742.1934
  23225885.217    -5782080.67249  -4487930.85249  23225885.8934   23225891.1784
  21748963.191   -18695392.61749 -14554823.14749  21748963.9294   21748968.2584
 96  7 11  2 56 29.9980000  0  6 15 21 14  1 31 25
  21269571.177   -20428127.52449 -15893044.05649  21269571.7324   21269576.7224
  21142709.745    -1593934.79649  -1232411.18349  21142710.6084   21142715.1164
  24133155.099    -6285083.01549  -4881425.05449  24133152.8164   24133161.1754
  20234358.006   -17553808.40549 -13659553.25449  20234358.3284   20234362.2134
  23238902.371    -5713665.17949  -4434620.12349  23238903.4784   23238910.1254
  21730907.626   -18790269.56549 -14628753.19549  21730909.3634   21730913.4704
 96  7 11  2 56 59.9980000  0  6 15 21 14  1 31 25
  21252852.427   -20515983.41749 -15961503.18149  21252853.1964   21252858.4664
  21151022.645    -1550250.65349  -1198371.59849  21151023.2954   21151028.0914
  24114790.760    -6381581.23749  -4956618.39549  24114790.1254   24114795.8664
  20241038.229   -17518702.97149 -13632198.37549  20241038.4314   20241042.8834
  23251958.290    -5645069.65649  -4381169.11149  23251958.1694   23251963.5224
  21712912.609   -18884839.79449 -14702444.24249  21712912.8814   21712917.2604
 96  7 11  2 57 29.9980000  0  6 15 21 14  1 31 25
  21236209.882   -20603445.12049 -16029655.13949  21236209.8574   21236215.4274
  21159379.657    -1506336.19449  -1164152.56649  21159379.9484   21159384.7104
  24096427.708    -6478071.05649  -5031805.22449  24096428.7094   24096435.7194
  20247779.035   -17483278.04749 -13604594.53849  20247779.6844   20247783.9264
  23265047.676    -5576278.84449  -4327565.93849  23265047.7604   23265054.1464
  21694975.207   -18979096.27849 -14775890.80949  21694976.3844   21694980.8854
 96  7 11  2 57 59.9980000  0  6 15 21 14  1 31 25
  21219640.409   -20690514.44449 -16097501.35449  21219640.9974   21219646.2854
  21167782.782    -1462175.43849  -1129741.59749  21167783.2924   21167788.0064
  24078063.612    -6574570.75349  -5106999.68349  24078065.2014   24078072.0444
  20254578.135   -17447551.03549 -13576755.30949  20254578.2014   20254582.3804
  23278172.530    -5507305.56749  -4273820.56049  23278173.3424   23278179.4124
  21677100.253   -19073034.54249 -14849089.41649  21677100.8854   21677104.9334
 96  7 11  2 58 29.9980000  0  6 15 21 14  1 31 25
  21203146.198   -20777193.06249 -16165043.12049  21203146.4554   21203152.2534
  21176234.792    -1417758.66749  -1095131.13349  21176235.6144   21176240.2334
  24059696.219    -6671098.69249  -5182216.17549  24059697.3944   24059702.8844
  20261432.553   -17411527.87749 -13548685.32049  20261433.1774   20261437.1864
  23291328.013    -5438167.60449  -4219946.86549  23291329.2754   23291336.1674
  21659283.321   -19166662.63049 -14922046.32249  21659283.8214   21659288.5344
 96  7 11  2 58 59.9980000  0  6 15 21 14  1 31 25
  21186726.911   -20863475.79749 -16232276.40549  21186727.4724   21186733.1594
  21184737.163    -1373081.47649  -1060317.74649  21184737.7414   21184741.8584
  24041322.476    -6767660.49149  -5257459.08449  24041322.0734   24041327.4454
  20268345.469   -17375200.10049 -13520377.95949  20268345.9074   20268349.9904
  23304518.614    -5368860.90849  -4165941.68949  23304517.8574   23304523.9574
  21641521.843   -19259998.10049 -14994775.22149  21641522.3534   21641526.2944
 96  7 11  2 59 29.9980000  0  6 15 21 14  1 31 25
  21170383.539   -20949363.00749 -16299201.49749  21170383.7524   21170388.7804
  21193290.346    -1328136.27449  -1025295.53449  21193290.1844   21193295.2214
  24022939.940    -6864259.29949  -5332730.80649  24022939.7724   24022946.5584
  20275317.136   -17338568.05449 -13491833.51149  20275316.7694   20275321.1154
  23317738.938    -5299384.52249  -4111804.29649  23317739.6554   23317745.6094
  21623815.388   -19353041.24049 -15067276.32849  21623817.0444   21623821.5654
 96  7 11  2 59 59.9980000  0  6 15 21 14  1 31 25
  21154116.116   -21034849.65049 -16365814.45449  21154116.4284   21154121.5484
  21201895.742    -1282914.46149   -990057.75949  21201895.4754   21201900.6704
  24004552.204    -6960883.85849  -5408022.58149  24004552.8694   24004559.5044
  20282347.507   -17301621.68149 -13463044.13049  20282347.4124   20282351.8994
  23330994.193    -5229735.70449  -4057532.52149  23330992.8584   23330999.5804
  21606168.490   -19445786.60349 -15139545.40049  21606167.8564   21606172.9304
 96  7 11  3  0 29.9980000  0  6 15 21 14  1 31 25
  21137924.860   -21119937.22449 -16432116.45149  21137924.8134   21137929.9264
  21210549.932    -1237441.57749   -954624.37049  21210549.0614   21210553.2544
  23986160.380    -7057529.81549  -5483331.03249  23986160.0934   23986165.9354
  20289436.324   -17264365.15949 -13434013.07349  20289437.0854   20289441.5114
  23344278.127    -5159914.63849  -4003126.54649  23344279.9754   23344286.0924
  21588573.547   -19538239.60249 -15211586.64949  21588574.7394   21588579.5054
 96  7 11  3  0 59.9980000  0  6 15 21 14  1 31 25
  21121810.667   -21204616.16349 -16498100.02349  21121810.7614   21121815.7124
  21219249.424    -1191722.15749   -918998.85549  21219249.2244   21219253.2754
  23967767.577    -7154188.61349  -5558649.55649  23967767.1094   23967775.4234
  20296584.597   -17226800.64649 -13404742.03349  20296585.3564   20296589.8084
  23357598.405    -5089910.01949  -3948577.54449  23357600.3274   23357606.7964
  21571040.118   -19630385.93849 -15283388.95549  21571039.6444   21571044.6364
 96  7 11  3  1 29.9980000  0  6 15 21 14  1 31 25
  21105776.197   -21288877.12449 -16563757.91049  21105776.5864   21105781.6154
  21227997.347    -1145745.61749   -883172.97649  21227998.1724   21228002.8304
  23949371.683    -7250857.04249  -5633975.48449  23949372.3894   23949378.9864
  20303791.846   -17188927.43649 -13375230.44549  20303792.3024   20303797.1224
  23370958.032    -5019722.54749  -3893886.07349  23370958.1794   23370962.6094
  21553569.316   -19722196.84849 -15354929.88249  21553568.8514   21553573.6564
 96  7 11  3  1 59.9980000  0  6 15 21 14  1 31 25
  21089821.358   -21372719.57549 -16629089.66949  21089821.9094   21089826.8194
  21236794.748    -1099516.58649   -847150.35849  21236795.0184   21236800.2764
  23930972.912    -7347541.39749  -5709313.94149  23930972.8814   23930980.1244
  20311057.390   -17150748.95949 -13345480.99149  20311057.6724   20311062.0124
  23384346.299    -4949366.00749  -3839062.82449  23384346.0254   23384352.6704
  21536158.649   -19813682.79549 -15426217.58949  21536159.6194   21536164.5324
 96  7 11  3  2 29.9980000  0  6 15 21 14  1 31 25
  21073945.238   -21456147.32649 -16694098.30049  21073945.8074   21073951.2194
  21245635.938    -1053054.81049   -810946.39049  21245636.1514   21245641.4494
  23912568.916    -7444262.33149  -5784680.78749  23912568.8514   23912575.6674
  20318375.974   -17112288.71949 -13315511.96949  20318376.2664   20318380.8784
  23397764.727    -4878857.11049  -3784120.86549  23397763.1654   23397769.0874
  21518812.182   -19904842.85149 -15497251.36649  21518812.7934   21518817.0304
 96  7 11  3  2 59.9980000  0  6 15 21 14  1 31 25
  21058150.422   -21539154.74149 -16758779.39549  21058150.1774   21058155.5594
  21254523.301    -1006353.67949   -774555.90949  21254523.1704   21254528.3824
  23894153.883    -7541020.89649  -5860077.02449  23894154.9824   23894161.1094
  20325748.991   -17073540.77049 -13285318.76549  20325749.8054   20325754.1494
  23411210.236    -4808195.84249  -3729060.19249  23411210.2814   23411217.2364
  21501528.499   -19995660.89549 -15568018.63749  21501530.1474   21501534.7524
 96  7 11  3  3 29.9980000  0  6 15 21 14  1 31 25
  21042432.300   -21621747.25249 -16823137.17949  21042433.4904   21042438.7844
  21263454.720     -959419.10149   -737983.51249  21263454.6794   21263459.4994
  23875736.306    -7637816.16849  -5935501.84849  23875737.2504   23875742.5244
  20333177.715   -17034505.58249 -13254901.73449  20333177.9204   20333182.2514
  23424683.785    -4737395.75349  -3673891.33449  23424683.4024   23424689.3864
  21484312.440   -20086141.39849 -15638522.88749  21484312.0964   21484317.2054
 96  7 11  3  3 59.9980000  0  6 15 21 14  1 31 25
  21026796.170   -21703924.14349 -16887171.10549  21026795.6834   21026800.7944
  21272427.688     -912260.98349   -701236.93649  21272428.4224   21272433.5094
  23857308.117    -7734652.22649  -6010958.46749  23857309.0754   23857315.2424
  20340658.255   -16995192.83049 -13224268.42049  20340659.0484   20340663.2444
  23438180.891    -4666453.90749  -3618612.01649  23438183.0754   23438188.4524
  21467158.109   -20176285.06549 -15708764.66849  21467159.1074   21467163.6324
 96  7 11  3  4 29.9980000  0  6 15 21 14  1 31 25
  21011238.230   -21785674.09849 -16950872.36149  21011239.3354   21011243.9894
  21281446.661     -864869.48449   -664308.51049  21281446.9674   21281451.9434
  23838875.903    -7831514.95249  -6086435.84249  23838877.3614   23838883.8584
  20348192.683   -16955602.73649 -13193418.99649  20348192.9154   20348197.2074
  23451709.679    -4595366.01049  -3563218.91349  23451709.9274   23451715.4824
  21450069.609   -20266075.82949 -15778731.46149  21450072.1544   21450077.0034
 96  7 11  3  4 59.9980000  0  6 15 21 14  1 31 25
  20995762.684   -21867000.52149 -17014243.59449  20995763.2814   20995768.5704
  21290510.415     -817233.86249   -627189.86149  21290511.4784   21290516.6104
  23820439.915    -7928399.57049  -6161930.27449  23820439.6084   23820444.6784
  20355778.648   -16915734.08349 -13162352.51349  20355779.6094   20355783.8224
  23465263.375    -4524141.95049  -3507719.69749  23465262.7844   23465269.3064
  21433048.135   -20355539.78349 -15848443.59649  21433047.3924   21433052.1524
 96  7 11  3  5 29.9980000  0  6 15 21 14  1 31 25
  20980369.247   -21947894.88149 -17077278.15549  20980369.4434   20980374.5054
  21299625.747     -769336.34649   -589867.13749  21299626.7754   21299631.1374
  23802001.963    -8025295.92849  -6237433.91249  23802000.7994   23802007.4354
  20363419.544   -16875583.78749 -13131066.57149  20363419.9304   20363424.0214
  23478841.138    -4452791.21349  -3452121.76049  23478840.7754   23478847.1574
  21416082.861   -20444692.02849 -15917912.85049  21416082.2794   21416086.8324
 96  7 11  3  5 59.9980000  0  6 15 21 14  1 31 25
  20965055.066   -22028366.08949 -17139982.98449  20965056.4304   20965061.4064
  21308789.683     -721183.43849   -552345.41249  21308789.5924   21308794.4484
  23783556.239    -8122216.81549  -6312956.57749  23783558.1864   23783563.6584
  20371111.371   -16835161.60449 -13099568.76949  20371112.0114   20371116.0844
  23492438.615    -4381338.71249  -3396444.53349  23492438.1704   23492444.1504
  21399169.189   -20533559.09549 -15987159.87849  21399171.3454   21399176.1844
 96  7 11  3  6 29.9980000  0  6 15 21 14  1 31 25
  20949824.832   -22108407.94749 -17202353.25349  20949824.9484   20949830.0574
  21318002.225     -672767.25349   -514618.52649  21318002.8444   21318008.1774
  23765113.108    -8219142.90749  -6388483.42749  23765111.8014   23765118.7574
  20378858.060   -16794454.75649 -13067849.15149  20378858.4604   20378862.2704
  23506054.478    -4309792.26649  -3340694.12449  23506053.3424   23506058.7014
  21382313.878   -20622146.29049 -16056188.82749  21382313.6024   21382318.8524
 96  7 11  3  6 59.9980000  0  6 15 21 14  1 31 25
  20934675.403   -22188020.35049 -17264388.88549  20934675.0774   20934680.1024
  21327263.911     -624100.01449   -476696.02049  21327264.0914   21327269.0834
  23746666.924    -8316074.83149  -6464014.69049  23746668.2234   23746674.5604
  20386660.278   -16753455.56449 -13035901.73149  20386660.2354   20386664.3974
  23519686.081    -4238148.99049  -3284868.24849  23519685.3694   23519690.9834
  21365511.524   -20710439.40549 -16124988.62149  21365512.0494   21365517.0054
 96  7 11  3  7 29.9980000  0  6 15 21 14  1 31 25
  20919609.183   -22267190.12749 -17326079.61349  20919609.6124   20919614.7104
  21336571.628     -575187.24949   -438582.20449  21336572.0474   21336576.8294
  23728220.553    -8413006.45649  -6539545.80549  23728221.7234   23728228.3304
  20394518.376   -16712158.23649 -13003721.99649  20394518.9054   20394523.2564
  23533342.701    -4166388.31649  -3228950.89949  23533341.8594   23533348.0554
  21348773.817   -20798393.88149 -16193524.54149  21348774.9174   21348780.1354
 96  7 11  3  7 59.9980000  0  6 15 21 14  1 31 25
  20904628.013   -22345917.46149 -17387425.57649  20904628.3334   20904633.3974
  21345923.488     -526042.35849   -400287.49449  21345924.0314   21345928.7184
  23709776.324    -8509935.76949  -6615075.06049  23709776.3464   23709782.0644
  20402430.853   -16670576.37649 -12971320.54849  20402431.4484   20402436.0724
  23547021.031    -4094494.09649  -3172929.46549  23547023.6204   23547028.6974
  21332107.067   -20885976.86449 -16261770.98749  21332108.3964   21332113.4594
 96  7 11  3  8 29.9980000  0  6 15 21 14  1 31 25
  20889730.574   -22424200.71549 -17448425.50849  20889731.4614   20889736.9314
  21355317.434     -476679.59549   -361823.01949  21355317.4734   21355322.0184
  23691330.869    -8606866.08449  -6690605.16049  23691332.6594   23691336.1874
  20410395.391   -16628726.45149 -12938710.21749  20410395.5664   20410399.7424
  23560734.404    -4022458.34349  -3116797.76049  23560730.1474   23560735.7104
  21315516.139   -20973168.54349 -16329712.52249  21315516.4404   21315521.4144
 96  7 11  3  8 59.9980000  0  6 15 21 14  1 31 25
  20874917.268   -22502047.18749 -17509085.09149  20874917.7504   20874922.8904
  21364749.298     -427109.65249   -323197.09149  21364750.4294   21364755.3304
  23672880.162    -8703824.13549  -6766156.81549  23672881.1834   23672887.2504
  20418405.526   -16586630.96549 -12905908.54449  20418405.7444   20418410.0514
  23574461.615    -3950291.87449  -3060564.19749  23574463.9244   23574469.7414
  21298997.579   -21059970.94649 -16397350.72749  21298998.6434   21299003.3274
 96  7 11  3  9 29.9980000  0  6 15 21 14  1 31 25
  20860188.484   -22579448.85749 -17569398.07349  20860188.8884   20860193.9164
  21374226.176     -377313.96949   -284395.27449  21374225.9974   21374230.8784
  23654424.716    -8800800.09149  -6841722.41849  23654426.6644   23654432.5044
  20426462.160   -16544292.93749 -12872917.87549  20426462.3944   20426466.4034
  23588219.561    -3878002.17859  -3004234.60959  23588219.0544   23588225.6354
  21282550.501   -21146402.15849 -16464699.68949  21282551.3674   21282556.0514
 96  7 11  3  9 59.9980000  0  6 15 21 14  1 31 25
  20845545.379   -22656400.29549 -17629360.21849  20845545.4584   20845550.5694
  21383747.500     -327276.84249   -245405.32049  21383747.9674   21383752.8744
  23635968.545    -8897793.02759  -6917301.32349  23635969.3734   23635975.4064
  20434565.819   -16501709.61649 -12839736.06849  20434565.8844   20434570.1594
  23601994.958    -3805607.70159  -2947823.36349  23601995.8084   23602000.8694
  21266169.959   -21232483.29649 -16531775.87749  21266170.4714   21266175.1334
 96  7 11  3 10 29.9980000  0  6 15 21 14  1 31 25
  20830988.991   -22732892.98849 -17688964.90849  20830989.7094   20830994.4314
  21393317.236     -276986.54849   -206218.09549  21393317.5894   21393322.1124
  23617508.624    -8994804.32849  -6992894.45749  23617509.5604   23617514.9844
  20442719.484   -16458859.41649 -12806346.30449  20442719.7984   20442724.3184
  23615789.245    -3733128.343 9  -2891345.99659                  23615794.2604
  21249852.645   -21318233.56049 -16598594.23949  21249852.5924   21249857.4464
 96  7 11  3 10 59.9980000  0  6 15 21 14  1 31 25
  20816518.697   -22808935.92949 -17748219.14249  20816519.3334   20816524.2174
  21402935.751     -226441.63249   -166832.45649  21402936.0054   21402941.0924
  23599044.346    -9091835.15249  -7068502.83349  23599043.8814   23599051.5484
  20450922.556   -16415750.21449 -12772754.71849  20450923.1834   20450927.7844
  23629594.964    -3660574.29859  -2834810.39149  23629595.6244   23629600.1904
  21233595.794   -21403662.41149 -16665162.14349  21233596.2184   21233600.8534
 96  7 11  3 11 29.9980000  0  6 15 21 14  1 31 25
  20802132.216   -22884537.17749 -17807129.19649  20802132.5874   20802137.4204
  21412599.798     -175659.57949   -127262.03249  21412599.6044   21412604.7704
  23580575.452    -9188884.84349  -7144125.88749  23580577.9724   23580581.6264
  20459173.530   -16372392.68549 -12738969.63449  20459173.9464   20459178.5454
  23643413.584    -3587959.63059  -2778227.58349  23643413.2664   23643417.3024
  21217399.006   -21488770.83749 -16731480.37249  21217400.4564   21217405.2184
 96  7 11  3 11 59.9980000  0  6 15 21 14  1 31 25
  20787835.339   -22959666.60149 -17865671.59149  20787835.6504   20787840.8064
  21422310.916     -124626.01449    -87495.63649  21422310.8514   21422315.6784
  23562110.602    -9285931.26849  -7219746.41949  23562109.5934   23562115.4904
  20467475.104   -16328767.88449 -12704976.28949  20467475.5094   20467479.8074
  23657248.804    -3515248.17759  -2721569.35749  23657249.4464   23657256.6204
  21201275.242   -21573509.22349 -16797510.25549  21201275.0364   21201279.8144
 96  7 11  3 12 29.9980000  0  6 15 21 14  1 31 25
  20773628.362   -23034325.68949 -17923847.48849  20773628.5084   20773633.8164
  21432064.929      -73360.25049    -47548.29949  21432066.5404   21432071.2164
  23543643.284    -9382963.44449  -7295355.84449  23543644.8534   23543649.5294
  20475825.118   -16284888.88849 -12670784.86449  20475825.4854   20475829.8774
  23671107.874    -3442429.77449  -2664827.80449  23671107.2004   23671112.9264
  21185221.732   -21657866.77549 -16863243.38049  21185222.6674   21185227.2694
 96  7 11  3 12 59.9980000  0  6 15 21 14  1 31 25
  20759510.185   -23108515.73849 -17981657.90649  20759510.7464   20759515.6524
  21441865.813      -21862.82349     -7420.43949  21441865.9654   21441870.7884
  23525182.463    -9479980.51049  -7370953.46549  23525182.4624   23525188.7854
  20484218.362   -16240782.99549 -12636416.64349  20484218.6064   20484222.8054
  23684983.726    -3369498.25549  -2607998.10449  23684985.7354   23684991.4484
  21169244.317   -21741832.54149 -16928671.22749  21169244.7354   21169249.2284
 96  7 11  3 13 29.9980000  0  6 15 21 14  1 31 25
  20745481.102   -23182241.32149 -18039106.39649  20745481.3594   20745486.0404
  21451707.630       29859.49049     32882.66049  21451708.3614   21451712.9314
  23506718.882    -9577002.50949  -7446554.97549  23506720.5934   23506725.1534
  20492653.501   -16196452.74649 -12601873.59249  20492654.3654   20492658.4264
  23698881.613    -3296472.03349  -2551094.62149  23698881.6804   23698887.8214
  21153338.125   -21825418.94849 -16993803.45549  21153338.5624   21153342.8904
 96  7 11  3 13 59.9980000  0  6 15 21 14  1 31 25
  20731540.708   -23255496.51449 -18096188.34849  20731541.3924   20731546.2064
  21461595.359       81820.78449     73371.97049  21461596.1804   21461601.3814
  23488254.975    -9674034.91249  -7522164.55549  23488256.5894   23488262.0644
  20501132.731   -16151896.28649 -12567154.27549  20501133.0554   20501137.2294
  23712797.896    -3223354.25849  -2494119.77549  23712795.7814   23712801.6104
  21137503.779   -21908626.80249 -17058640.71549  21137504.5454   21137509.1124
 96  7 11  3 14 29.9980000  0  6 15 21 14  1 31 25
  20717690.999   -23328280.57349 -18152903.18449  20717691.2834   20717695.6414
  21471532.651      134034.29149    114057.81249  21471532.3754   21471537.1934
  23469786.161    -9771082.30749  -7597785.85449  23469789.0624   23469792.7804
  20509656.305   -16107102.23449 -12532249.82349  20509657.1804   20509661.3214
  23726723.515    -3150162.60449  -2437087.36849  23726723.5574   23726730.0804
  21121740.758   -21991465.63549 -17123190.42049  21121740.9464   21121745.3144
 96  7 11  3 14 59.9980000  0  6 15 21 14  1 31 25
  20703932.918   -23400577.72249 -18209238.61349  20703933.4244   20703938.3184
  21481521.224      186528.98949    154962.76249  21481521.4224   21481526.6254
  23451316.008    -9868146.75649  -7673420.43949  23451316.6464   23451322.0424
  20518230.577   -16062047.55449 -12497142.28749  20518230.7624   20518235.0384
  23740663.521    -3076901.69249  -2380000.99149  23740664.3484   23740670.5134
  21106049.971   -22073915.47249 -17187437.02049  21106051.3414   21106055.7074
 96  7 11  3 15 29.9980000  0  6 15 21 14  1 31 25
  20690267.656   -23472388.06049 -18265194.71449  20690268.2674   20690273.0464
  21491561.005      239289.04349    196074.47849  21491561.6534   21491566.6024
  23432843.508    -9965236.78949  -7749074.94249  23432842.2324   23432848.0624
  20526854.617   -16016726.66649 -12461827.31049  20526855.0764   20526859.2724
  23754617.583    -3003577.87449  -2322865.60949  23754617.8134   23754624.6924
  21090435.971   -22155971.51949 -17251376.76049  21090436.3634   21090440.5584
 96  7 11  3 15 59.9980000  0  6 15 21 14  1 31 25
  20676696.225   -23543706.46349 -18320767.49049  20676696.6164   20676701.4884
  21501654.085      292321.99749    237398.84449  21501653.4414   21501658.2674
  23414363.672   -10062330.56149  -7824732.41449  23414365.8564   23414370.1104
  20535529.291   -15971139.65949 -12426304.97049  20535530.0614   20535534.2334
  23768579.008    -2930199.83149  -2265687.96149  23768580.8404   23768587.2864
  21074896.337   -22237631.66649 -17315008.01749  21074896.8024   21074901.0074
 96  7 11  3 16 29.9980000  0  6 15 21 14  1 31 25
  20663215.853   -23614544.77749 -18375966.16649  20663216.5924   20663221.3354
  21511791.699      345605.48949    278918.44449  21511792.8734   21511798.1444
  23395887.904   -10159423.31849  -7900389.04849  23395889.2704   23395895.8304
  20544253.268   -15925294.56949 -12390581.52649  20544253.8814   20544258.1794
  23782553.802    -2856779.48549  -2208477.37349  23782553.6824   23782559.3984
  21059429.302   -22318907.84449 -17378340.07349  21059430.5704   21059434.7424
 96  7 11  3 16 59.9980000  0  6 15 21 14  1 31 25
  20649827.860   -23684900.82149 -18430789.05349  20649828.3104   20649833.1904
  21521977.348      399117.12049    320615.80549  21521976.0914   21521980.6434
  23377414.670   -10256508.60649  -7976039.88049  23377414.3834   23377419.9234
  20553023.722   -15879209.14849 -12354670.81949  20553023.7584   20553028.0314
  23796533.032    -2783315.35749  -2151232.66149  23796532.9944   23796538.9734
  21044037.087   -22399798.54649 -17441371.76049  21044037.4924   21044041.7884
 96  7 11  3 17 29.9980000  0  6 15 21 14  1 31 25
  20636534.635   -23754758.87049 -18485223.88349  20636534.7574   20636539.7044
  21532202.326      452863.99049    362496.47049  21532203.7214   21532209.0474
  23358945.052   -10353565.69249  -8051668.77249  23358945.3934   23358949.3844
  20561839.874   -15832874.78749 -12318566.12049  20561840.6444   20561845.1464
  23810522.507    -2709795.75849  -2093944.73049  23810522.8554   23810529.5164
  21028716.656   -22480308.35949 -17504106.64849  21028716.9134   21028721.3394
 96  7 11  3 17 59.9980000  0  6 15 21 14  1 31 25
  20623332.798   -23824132.52249 -18539281.26949  20623333.0934   20623338.3854
  21542473.794      506836.50349    404552.95349  21542474.6604   21542479.7954
  23340476.409   -10450609.45049  -8127287.24049  23340477.9584   23340483.8694
  20570701.873   -15786306.04249 -12282278.78849  20570702.5824   20570706.6514
  23824518.394    -2636242.93349  -2036630.91449  23824520.2014   23824525.5134
  21013463.158   -22560466.95949 -17566567.86349  21013463.2904   21013467.4974
 96  7 11  3 18 29.9980000  0  6 15 21 14  1 31 25
  20610224.717   -23893017.30949 -18592957.72349  20610225.0304   20610230.0004
  21552785.072      561017.05049    446771.54749  21552784.8894   21552789.4054
  23322008.853   -10547664.36849  -8202914.42149  23322009.0944   23322014.6754
  20579606.388   -15739516.48549 -12245819.39449  20579606.4854   20579610.5084
  23838525.860    -2562641.95749  -1979279.58049  23838526.1124   23838531.1004
  20998278.260   -22640258.76649 -17628743.27049  20998279.4384   20998283.7134
 96  7 11  3 18 59.9980000  0  6 15 21 14  1 31 25
  20597212.538   -23961394.50149 -18646238.64449  20597212.9734   20597218.2884
  21563139.964      615438.76149    489178.05649  21563140.7734   21563145.6094
  23303537.294   -10644736.90649  -8278555.34449  23303536.0704   23303542.8784
  20588554.632   -15692492.65249 -12209177.44649  20588554.8214   20588558.7144
  23852538.680    -2488986.44049  -1921885.74949  23852540.5244   23852547.6434
  20983170.396   -22719656.97749 -17690611.97949  20983170.3454   20983174.7124
 96  7 11  3 19 29.9980000  0  6 15 21 14  1 31 25
  20584295.583   -24029274.07849 -18699131.81749  20584295.8884   20584301.2544
  21573543.692      670110.21549    531779.17449  21573544.7194   21573549.4004
  23285057.320   -10741848.23249  -8354226.49149  23285057.7624   23285063.4814
  20597547.743   -15645234.49349 -12172352.91049  20597547.7074   20597551.8864
  23866568.199    -2415274.10949  -1864447.64049  23866568.4934   23866574.3774
  20968135.301   -22798661.38449 -17752173.82849  20968136.5394   20968140.6364
 96  7 11  3 19 59.9980000  0  6 15 21 14  1 31 25
  20571472.324   -24096660.56149 -18751640.75949  20571473.0004   20571477.8994
  21583993.235      725022.65849    574568.10049  21583993.7194   21583998.8664
  23266568.919   -10838999.51449  -8429928.77149  23266569.3614   23266573.3344
  20606584.704   -15597743.97449 -12135347.31149  20606584.9154   20606588.9334
  23880606.870    -2341502.05149  -1806962.97249  23880607.2634   23880614.3204
  20953180.980   -22877253.28149 -17813414.24349  20953180.8814   20953185.0504
 96  7 11  3 20 29.9980000  0  6 15 21 14  1 31 25
  20558744.102   -24163548.42449 -18803761.16649  20558744.5074   20558750.0094
  21594489.624      780177.48849    617545.87349  21594489.6224   21594494.1574
  23248075.491   -10936180.57849  -8505654.25849  23248077.1214   23248083.1844
  20615667.551   -15550011.89749 -12098153.48549  20615667.7294   20615672.1454
  23894657.975    -2267662.62349  -1749425.82949  23894658.9644   23894665.9534
  20938306.637   -22955413.37749 -17874318.19949  20938307.5344   20938311.6904
 96  7 11  3 20 59.9980000  0  6 15 21 14  1 31 25
  20546111.837   -24229933.15049 -18855489.52249  20546111.8654   20546117.3604
  21605033.005      835589.41749    660723.98349  21605034.1444   21605039.2504
  23229583.423   -11033368.03949  -8581384.74949  23229582.6094   23229588.0744
  20624798.775   -15502023.36249 -12060759.82349  20624799.7324   20624803.7744
  23908722.585    -2193757.93149  -1691837.83649  23908722.6014   23908729.1784
  20923516.267   -23033139.04549 -17934883.63249  20923516.8794   20923521.1064
 96  7 11  3 21 29.9980000  0  6 15 21 14  1 31 25
  20533574.985   -24295814.57149 -18906825.68849  20533574.8934   20533580.3604
  21615622.637      891239.26649    704087.48049  21615623.9934   21615628.6254
  23211092.080   -11130537.35649  -8657101.07449  23211091.9344   23211096.3954
  20633976.237   -15453796.54349 -12023180.48349  20633976.9654   20633981.2304
  23922798.806    -2119786.42149  -1634197.72849  23922799.2994   23922803.1044
  20908805.126   -23110446.26849 -17995123.00849  20908805.4984   20908809.8274
 96  7 11  3 21 59.9970000  0  6 15 21 14  1 31 25
  20521134.720   -24361186.65049 -18957764.96449  20521135.0074   20521140.7724
  21626258.732      947124.89249    747634.70149  21626258.1144   21626264.1994
  23192607.944   -11227666.66049  -8732786.21149  23192608.5344   23192613.7774
  20643197.144   -15405346.40649 -11985427.13049  20643196.8024   20643201.1544
  23936879.470    -2045782.90149  -1576532.71949  23936880.1764   23936886.3394
  20894173.010   -23187337.50449 -18055038.22749  20894173.7034   20894178.2274
 96  7 11  3 22 29.9970000  0  6 15 21 14  1 31 25
  20508791.384   -24426052.90549 -19008310.09449  20508791.4904   20508797.2964
  21636938.128     1003250.10649    791368.61749  21636939.1624   21636944.3144
  23174129.175   -11324771.63049  -8808452.39549  23174129.9764   23174136.5254
  20652454.400   -15356693.83449 -11947516.03749  20652454.9194   20652459.4484
  23950967.535    -1971757.54149  -1518850.67149  23950967.9704   23950974.3774
  20879619.297   -23263825.70549 -18114639.39649  20879618.5564   20879622.8454
 96  7 11  3 22 59.9970000  0  6 15 21 14  1 31 25
  20496545.677   -24490401.63349 -19058451.95349  20496546.4034   20496552.0234
  21647667.969     1059626.04149    835297.90749  21647666.7604   21647672.0774
  23155657.103   -11421841.74049  -8884091.41549  23155659.2164   23155663.9084
  20661748.647   -15307852.56849 -11909457.91049  20661749.1404   20661753.7444
  23965057.912    -1897717.85649  -1461157.47149  23965058.4384   23965063.2874
  20865139.602   -23339905.77049 -18173922.54349  20865140.8134   20865145.2364
 96  7 11  3 23 29.9970000  0  6 15 21 14  1 31 25
  20484397.558   -24554241.85649 -19108197.57849  20484398.0094   20484403.6714
  21658440.009     1116241.44649    879413.78949  21658440.3014   21658445.5664
  23137190.097   -11518892.36449  -8959715.25149  23137191.0174   23137196.1644
  20671074.256   -15258845.61349 -11871270.67149  20671074.8004   20671079.1834
  23979145.008    -1823686.01249  -1403470.35549  23979143.9654   23979151.0584
  20850737.660   -23415590.22549 -18232897.41749  20850738.7604   20850742.9374
 96  7 11  3 23 59.9970000  0  7 15 21 14  1 31 29 25
  20472347.081   -24617571.03749 -19157544.98149  20472346.8814   20472352.4404
  21669259.105     1173092.65349    923713.41949  21669258.7964   21669263.5374
  23118721.785   -11615938.29849  -9035335.45249  23118723.5844   23118727.7484
  20680434.921   -15209654.07849 -11832939.60449  20680435.6634   20680440.2044
  23993231.578    -1749660.69649  -1345788.35349  23993231.5004   23993238.2134
  24108388.948    -2531335.30559  -1953877.18859  24108390.3234   24108396.1374
  20836413.385   -23490862.72049 -18291551.28649  20836414.6954   20836418.6764
 96  7 11  3 24 29.9970000  0  7 15 21 14  1 31 29 25
  20460393.738   -24680379.54649 -19206486.67049  20460394.9544   20460400.1694
  21680120.683     1230175.47749    968193.51449  21680121.5454   21680126.5634
  23100254.810   -11712984.54349  -9110955.86849  23100254.7744   23100261.6834
  20689833.987   -15160263.70949 -11794453.60549  20689834.4994   20689839.0564
  24007321.053    -1675617.32649  -1288092.24849  24007321.1314   24007328.2514
  24089316.352    -2631566.76849  -2031979.57449  24089316.5614   24089322.0414
  20822170.777   -23565714.52849 -18349877.34549  20822170.9774   20822175.0034
 96  7 11  3 24 59.9970000  0  7 15 21 14  1 31 29 25
  20448541.827   -24742664.23649 -19255020.19149  20448542.5974   20448547.7654
  21691029.459     1287495.17049   1012858.20849  21691029.0374   21691034.5114
  23081788.949   -11810026.85449  -9186573.25849  23081789.3584   23081794.6604
  20699275.081   -15110651.88049 -11755795.03949  20699275.2564   20699280.0124
  24021413.467    -1601558.58049  -1230384.19049  24021414.5974   24021419.8674
  24070263.806    -2731681.00249  -2109990.55749  24070264.5164   24070270.3934
  20808006.332   -23640144.65349 -18407874.82349  20808007.3394   20808011.2914
 96  7 11  3 25 29.9970000  0  7 15 21 14  1 31 29 25
  20436788.949   -24804427.03049 -19303147.03449  20436789.2714   20436794.8294
  21701978.701     1345039.25849   1057697.74649  21701979.4654   21701984.9014
  23063319.984   -11907073.72749  -9262194.17049  23063322.0754   23063327.5634
  20708760.832   -15060802.17749 -11716951.11549  20708761.4714   20708766.2044
  24035508.441    -1527491.80949  -1172669.84049  24035508.2354   24035513.5254
  24051235.972    -2831671.79949  -2187905.38249  24051237.2294   24051243.8434
  20793922.404   -23714157.04949 -18465546.79949  20793923.5214   20793927.2104
 96  7 11  3 25 59.9970000  0  7 15 21 14  1 31 29 25
  20425137.615   -24865656.86149 -19350858.58649  20425137.7824   20425142.9004
  21712973.306     1402811.29949   1102714.90649  21712973.1054   21712977.9124
  23044852.299   -12004129.48449  -9337822.02049  23044852.6854   23044857.8534
  20718296.457   -15010694.04949 -11677905.82549  20718296.8464   20718301.1654
  24049606.770    -1453406.98949  -1114941.44549  24049607.0304   24049613.6124
  24032235.429    -2931533.09649  -2265719.29949  24032234.0854   24032239.7864
  20779920.521   -23787738.24149 -18522882.76149  20779921.0974   20779924.9374
 96  7 11  3 26 29.9970000  0  7 15 21 14  1 31 29 25
  20413584.223   -24926368.87549 -19398166.63949  20413584.7124   20413589.8964
  21724007.435     1460801.16149   1147901.79949  21724007.7524   21724013.7654
  23026376.696   -12101217.68849  -9413475.14649  23026377.7544   23026383.1114
  20727873.956   -14960358.54249 -11638683.35249  20727874.8884   20727879.7164
  24063702.832    -1379326.93759  -1057216.72559  24063703.8034   24063710.2014
  24013253.245    -3031276.83149  -2343441.62349  24013253.8674   24013260.2504
  20765995.864   -23860910.79349 -18579900.31949  20765997.0634   20766000.9334
 96  7 11  3 26 59.9970000  0  6 15 21 14  1 29 25
  20402130.979   -24986555.83449 -19445065.56949  20402131.3444   20402136.6374
  21735086.655     1519020.99549   1193267.86449  21735087.0054   21735092.0054
  23007897.669   -12198325.24549  -9489143.35449  23007898.5944   23007903.6454
  20737495.000   -14909801.83549 -11599288.51649  20737495.9434   20737500.2134
  23994300.455    -3130879.76649  -2421054.23249  23994300.3874   23994305.8414
  20752151.096   -23933667.45749 -18636593.79549  20752151.6554   20752155.5954
 96  7 11  3 27 29.9970000  0  6 15 21 14  1 29 25
  20390777.557   -25046221.42249 -19491558.23349  20390777.5704   20390782.8904
  21746208.200     1577464.17149   1238807.98049  21746208.1124   21746213.3544
  22989417.480   -12295445.81849  -9564821.70049  22989418.0544   22989423.5704
  20747153.375   -14859052.10049 -11559743.27649  20747153.0714   20747157.5154
  23975369.916    -3230344.97049  -2498559.50549  23975371.5224   23975377.1404
  20738385.481   -24006011.00649 -18692965.37049  20738385.4454   20738389.1394
 96  7 11  3 27 59.9970000  0  6 15 21 14  1 29 25
  20379525.355   -25105351.59349 -19537633.68849  20379525.4574   20379530.8564
  21757375.225     1636152.98249   1284539.50049  21757376.2204   21757381.7934
  22970938.870   -12392549.28249  -9640486.72749  22970939.3904   22970943.8874
  20756843.847   -14808124.03049 -11520059.07249  20756844.5534   20756848.7294
  23956471.027    -3329670.30249  -2575955.82849  23956472.0904   23956475.6274
  20724701.148   -24077920.78849 -18748998.94449  20724701.4334   20724705.3164
 96  7 11  3 28 29.9970000  0  6 15 21 14  1 29 25
  20368376.246   -25163940.17049 -19583287.12649  20368376.3704   20368381.8854
  21768594.732     1695104.32449   1330475.59949  21768594.8444   21768599.8584
  22952469.111   -12489605.01649  -9716114.53249  22952469.6364   22952474.6284
  20766567.388   -14757027.29749 -11480243.43349  20766567.9234   20766571.9094
  23937594.852    -3428860.15449  -2653246.54849  23937594.6594   23937602.1894
  20711101.028   -24149389.58649 -18804688.87949  20711101.3794   20711105.4034
 96  7 11  3 28 59.9970000  0  6 15 21 14  1 29 25
  20357327.834   -25221994.27049 -19628524.08949  20357328.8684   20357334.1254
  21779862.748     1754318.62749   1376616.60249  21779863.0204   21779868.3254
  22934010.226   -12586606.01649  -9791699.71649  22934011.0144   22934017.2834
  20776321.378   -14705773.22349 -11440305.17549  20776321.2354   20776325.3814
  23918743.238    -3527928.71449  -2730442.76549  23918743.8994   23918750.5944
  20697582.866   -24220422.81349 -18860039.42149  20697584.0164   20697588.1754
 96  7 11  3 29 29.9970000  0  6 15 21 14  1 29 25
  20346382.674   -25279515.30449 -19673345.67749  20346383.2614   20346388.1334
  21791181.835     1813796.71749   1422963.15749  21791180.7054   21791185.5024
  22915559.844   -12683560.49049  -9867248.62949  22915560.5234   22915568.0944
  20786103.836   -14654361.71749 -11400244.26249  20786104.2524   20786109.0074
  23899907.775    -3626907.49249  -2807569.01549  23899907.8294   23899913.9984
  20684148.300   -24291025.54949 -18915054.51949  20684148.4424   20684152.8154
 96  7 11  3 29 59.9970000  0  6 15 21 14  1 29 25
  20335538.920   -25336497.93849 -19717747.72849  20335539.8254   20335544.9394
  21802550.053     1873537.66249   1469514.52249  21802549.8544   21802554.1264
  22897115.280   -12780483.63249  -9942773.13349  22897116.4684   22897122.1744
  20795920.514   -14602773.88849 -11360045.94749  20795921.1244   20795925.7584
  23881089.902    -3725798.87149  -2884627.18049  23881090.3994   23881095.7854
  20670795.838   -24361193.44749 -18969730.79149  20670796.0514   20670800.4254
 96  7 11  3 30 29.9970000  0  6 15 21 14  1 29 25
  20324800.294   -25392932.37449 -19761722.61149  20324800.6334   20324805.5714
  21813965.083     1933535.19449   1516265.81849  21813966.1684   21813971.2104
  22878676.610   -12877382.30649 -10018278.56849  22878677.1664   22878683.2514
  20805775.908   -14550982.87049 -11319689.30949  20805776.5724   20805781.2724
  23862289.715    -3824592.97949  -2961609.52949  23862290.0244   23862296.6074
  20657525.350   -24430927.49849 -19024068.97749  20657526.1824   20657530.2974
 96  7 11  3 30 59.9970000  0  6 15 21 14  1 29 25
  20314163.329   -25448829.61549 -19805278.90449  20314163.7424   20314168.5854
  21825427.252     1993762.42749   1563196.13049  21825427.6994   21825432.1164
  22860236.313   -12974289.17449 -10093790.38249  22860236.9934   22860242.6874
  20815668.772   -14498999.36349 -11279182.68249  20815668.9724   20815673.3174
  23843507.633    -3923290.03049  -3038516.25549  23843508.4234   23843515.0464
  20644334.291   -24500247.41849 -19078084.47449  20644335.0644   20644339.0404
 96  7 11  3 31 29.9970000  0  6 15 21 14  1 29 25
  20303631.762   -25504173.28449 -19848403.84149  20303632.2624   20303637.1364
  21836930.046     2054207.47149   1610296.14449  21836929.7624   21836934.8344
  22841796.220   -13071192.91149 -10169299.77449  22841797.4224   22841802.3724
  20825602.575   -14446797.14949 -11238505.63449  20825602.7714   20825607.1544
  23824750.091    -4021863.94249  -3115327.04549  23824750.5924   23824755.8954
  20631224.321   -24569139.81749 -19131766.84549  20631225.4784   20631229.4004
 96  7 11  3 31 59.9970000  0  6 15 21 14  1 29 25
  20293207.345   -25558956.78849 -19891092.29149  20293207.4744   20293212.2614
  21848470.470     2114855.36449   1657554.24449  21848470.9654   21848475.4334
  22823359.338   -13168084.47449 -10244799.63249  22823357.9984   22823364.6054
  20835579.268   -14394366.51649 -11197650.59649  20835579.9834   20835584.2074
  23806019.440    -4120291.29749  -3192023.62949  23806020.3874   23806026.7484
  20618199.062   -24637592.67049 -19185106.69649  20618199.2974   20618203.3974
 96  7 11  3 32 29.9970000  0  6 15 21 14  1 29 25
  20282888.983   -25613177.57049 -19933342.25349  20282889.3054   20282894.1344
  21860050.043     2175699.95849   1704965.60449  21860049.1964   21860053.5064
  22804925.553   -13264950.73449 -10320279.79449  22804925.0554   22804932.4524
  20845598.895   -14341715.79049 -11156624.05549  20845599.0144   20845603.6074
  23787318.724    -4218566.75749  -3268601.85949  23787319.3574   23787325.3064
  20605257.426   -24705595.13649 -19238095.60949  20605258.5254   20605262.6094
 96  7 11  3 32 59.9970000  0  6 15 21 14  1 29 25
  20272676.824   -25666843.18549 -19975159.60349  20272677.1204   20272682.2564
  21871663.150     2236737.19249   1752527.06449  21871663.5654   21871669.2754
  22786495.921   -13361795.94749 -10395743.56749  22786496.6344   22786502.5224
  20855654.664   -14288871.72349 -11115446.86449  20855654.8604   20855659.4484
  23768644.171    -4316703.38549  -3345071.90049  23768643.7184   23768650.7474
  20592403.610   -24773143.68149 -19290730.80249  20592404.3034   20592408.4794
 96  7 11  3 33 29.9970000  0  6 15 21 14  1 29 25
  20262572.057   -25719941.40749 -20016534.83949  20262572.7384   20262578.1414
  21883318.077     2297984.67649   1800252.36549  21883319.0054   21883323.9944
  22768072.611   -13458601.59049 -10471176.48949  22768074.4084   22768079.9734
  20865747.411   -14235832.66349 -11074117.72649  20865747.8154   20865752.3624
  23749994.832    -4414702.11649  -3421434.51149  23749996.4134   23750001.3554
  20579640.188   -24840213.47249 -19342992.95549  20579641.3004   20579645.6144
 96  7 11  3 33 59.9970000  0  6 15 21 14  1 29 25
  20252575.371   -25772475.20649 -20057470.26649  20252575.9584   20252581.0954
  21895017.363     2359464.24749   1848158.50449  21895018.1654   21895023.2154
  22749657.952   -13555375.61349 -10546584.78949  22749659.7234   22749664.9294
  20875874.072   -14182617.56949 -11032651.42149  20875874.3304   20875878.7394
  23731369.628    -4512580.59449  -3497703.39749  23731369.9324   23731375.5914
  20566971.825   -24906789.88749 -19394870.65049  20566972.3824   20566976.4064
 96  7 11  3 34 29.9970000  0  6 15 21 14  1 29 25
  20242685.038   -25824452.00849 -20097971.66849  20242685.1754   20242690.3704
  21906762.513     2421182.93349   1896250.97849  21906762.9254   21906767.9894
  22731247.474   -13652130.59849 -10621978.25449  22731248.5524   22731253.7674
  20886030.496   -14129243.40249 -10991061.16449  20886031.2094   20886035.8804
  23712764.373    -4610350.80249  -3573887.95049  23712765.4024   23712769.8844
  20554394.302   -24972885.16549 -19446373.43849  20554394.8294   20554399.1444
 96  7 11  3 34 59.9970000  0  6 15 21 14  1 29 25
  20232902.490   -25875853.56849 -20138024.82849  20232903.8044   20232909.0464
  21918558.210     2483171.88349   1944554.04449  21918559.7344   21918564.0014
  22712842.266   -13748854.04249 -10697347.15449  22712842.7544   22712848.5594
  20896221.281   -14075691.77049 -10949332.62449  20896221.6244   20896226.3534
  23694182.483    -4708000.15249  -3649978.31949  23694182.9424   23694189.3584
  20541908.754   -25038493.47849 -19497496.76049  20541910.0204   20541914.2044
 96  7 11  3 35 29.9970000  0  6 15 21 14  1 29 25
  20223231.359   -25926683.89149 -20177632.87049  20223231.1974   20223236.0354
  21930404.380     2545422.60649   1993061.08649  21930405.4634   21930409.7584
  22694441.522   -13845550.15249 -10772694.74649  22694441.2314   22694446.8284
  20906447.012   -14021950.78949 -10907456.53949  20906448.3954   20906452.8064
  23675622.369    -4805527.47149  -3725973.57849  23675624.3034   23675628.6994
  20529516.671   -25103619.15249 -19548244.01249  20529516.7524   20529521.1604
 96  7 11  3 35 59.9970000  0  6 15 21 14  1 29 25
  20213667.341   -25976936.11649 -20216790.43949  20213668.1944   20213673.5684
  21942300.765     2607933.69249   2041771.03349  21942300.9934   21942305.4484
  22676048.114   -13942207.93749 -10848012.46249  22676048.7174   22676053.3554
  20916714.154   -13968001.80349 -10865418.37249  20916714.3604   20916718.8974
  23657088.543    -4902922.77849  -3801866.00949  23657088.7104   23657095.8204
  20517214.902   -25168262.57449 -19598615.48449  20517215.4924   20517220.0824
 96  7 11  3 36 29.9970000  0  6 15 21 14  1 29 25
  20204215.678   -26026606.14749 -20255494.35849  20204216.3624   20204221.6724
  21954245.121     2670699.39749   2090679.36649  21954243.9504   21954249.1054
  22657662.305   -14038823.95949 -10923297.65049  22657662.6344   22657668.4894
  20927019.697   -13913848.17049 -10823220.74149  20927019.5184   20927023.8794
  23638582.642    -5000174.17549  -3877646.26849  23638583.2184   23638590.7654
  20505003.628   -25232435.62049 -19648620.43649  20505003.7734   20505007.9784
 96  7 11  3 36 59.9970000  0  6 15 21 14  1 29 25
  20194873.409   -26075702.14849 -20293750.97949  20194873.7794   20194879.1104
  21966235.069     2733711.73749   2139779.87749  21966234.9784   21966239.8204
  22639283.473   -14135403.77449 -10998554.62049  22639283.6334   22639289.8404
  20937360.393   -13859506.81949 -10780876.83649  20937360.6284   20937364.5424
  23620100.926    -5097294.69449  -3953324.55949  23620103.0594   23620108.4174
  20492878.952   -25296143.19649 -19698262.67049  20492880.5214   20492884.8414
 96  7 11  3 37 29.9970000  0  6 15 21 14  1 29 25
  20185640.334   -26124221.09249 -20331557.94949  20185641.0144   20185646.1254
  21978272.405     2796970.72749   2189072.58349  21978272.2174   21978278.1484
  22620912.310   -14231943.36149 -11073780.23849  22620913.0054   22620917.1524
  20947732.972   -13804995.42049 -10738400.42949  20947733.6714   20947737.9154
  23601646.784    -5194271.55849  -4028890.92449  23601647.2764   23601654.5464
  20480848.473   -25359370.63549 -19747530.77449  20480848.5654   20480853.0094
 96  7 11  3 37 59.9970000  0  6 15 21 14  1 29 25
  20176518.779   -26172154.69349 -20368908.80749  20176519.5964   20176524.7464
  21990360.826     2860497.41449   2238573.87049  21990361.7734   21990366.7894
  22602550.344   -14328440.09549 -11148972.46849  22602550.3894   22602555.6774
  20958136.172   -13750328.14449 -10695802.56049  20958136.4594   20958140.8834
  23583222.382    -5291086.31749  -4104330.94749  23583224.7454   23583231.4304
  20468907.700   -25422116.69349 -19796423.78249  20468908.5264   20468912.9394
 96  7 11  3 38 29.9970000  0  6 15 21 14  1 29 25
  20167509.583   -26219500.71449 -20405801.80849  20167509.8134   20167514.9144
  22002499.999     2924294.03849   2288285.50649  22002501.8754   22002507.5994
  22584194.217   -14424900.71749 -11224136.58049  22584194.8754   22584199.9634
  20968568.321   -13695507.73449 -10653085.36349  20968568.6124   20968572.9294
  23564829.894    -5387740.44549  -4179645.81649  23564833.1534   23564837.0664
  20457058.572   -25484384.15849 -19844943.85649  20457059.4604   20457063.8064
 96  7 11  3 38 59.9970000  0  6 15 21 14  1 29 25
  20158612.045   -26266256.26349 -20442234.69849  20158612.8394   20158617.7454
  22014689.366     2988341.54149   2338192.61849  22014689.3624   22014694.7874
  22565846.464   -14521319.27549 -11299267.90249  22565846.5594   22565851.2974
  20979031.241   -13640523.46549 -10610240.48649  20979031.5784   20979035.9954
  23546467.662    -5484242.41449  -4254842.11449  23546469.0384   23546473.4594
  20445301.685   -25546165.01949 -19893084.76949  20445302.9254   20445307.0564
 96  7 11  3 39 29.9970000  0  6 15 21 14  1 29 25
  20149826.496   -26312425.19049 -20478210.48249  20149827.1784   20149832.1954
  22026920.915     3052618.43449   2388278.47549  22026920.9324   22026926.0734
  22547506.844   -14617696.99049 -11374367.39349  22547506.5474   22547512.1184
  20989527.582   -13585366.59249 -10567261.11149  20989527.9734   20989531.9394
  23528134.150    -5580590.72549  -4329918.67349  23528134.2684   23528139.1164
  20433636.868   -25607467.80049 -19940853.14149  20433637.2534   20433641.6994
 96  7 11  3 39 59.9970000  0  6 15 21 14  1 29 25
  20141151.872   -26358011.70349 -20513732.44049  20141152.3234   20141157.2734
  22039191.397     3117105.41549   2438528.04449  22039192.7204   22039197.8854
  22529171.392   -14714044.66049 -11449443.47149  22529172.3514   22529177.8594
  21000059.877   -13530017.02349 -10524131.58349  21000060.5884   21000064.4864
  23509821.241    -5676807.18149  -4404892.49249  23509824.2544   23509830.0064
  20422062.125   -25668298.13149 -19988253.37149  20422061.8604   20422066.1124
 96  7 11  3 40 29.9970000  0  6 15 21 14  1 29 25
  20132588.190   -26403010.29749 -20548796.27549  20132589.2704   20132594.3354
  22051501.450     3181792.95849   2488933.90849  22051502.6234   22051507.5864
  22510845.116   -14810351.84749 -11524488.02549  22510846.3934   22510850.8714
  21010630.118   -13474470.67249 -10480848.71749  21010630.7204   21010634.7214
  23491537.042    -5772902.13349  -4479771.62449  23491537.9194   23491544.2474
  20410575.733   -25728649.12049 -20035280.08449  20410577.4284   20410581.7804
 96  7 11  3 40 59.9970000  0  6 15 21 14  1 29 25
  20124139.318   -26447412.66549 -20583395.51949  20124139.6984   20124144.7624
  22063852.044     3246699.64149   2539510.51749  22063854.3344   22063859.2944
  22492528.063   -14906609.98349 -11599494.34049  22492528.8374   22492533.1564
  21021237.226   -13418730.66749 -10437414.95149  21021237.4974   21021241.7054
  23473278.831    -5868854.86149  -4554539.91549  23473279.1514   23473284.9384
  20399185.729   -25788509.87849 -20081924.80549  20399186.3904   20399190.3934
 96  7 11  3 41 29.9970000  0  6 15 21 14  1 29 25
  20115800.851   -26491229.90649 -20617538.82349  20115801.5014   20115806.7624
  22076251.481     3311848.77249   2590276.05049  22076250.9894   22076256.5464
  22474216.264   -15002841.10049 -11674479.60249  22474215.7054   22474221.3444
  21031877.761   -13362812.55049 -10393842.39449  21031878.2914   21031882.1464
  23455046.692    -5964659.91649  -4629193.14649  23455047.3964   23455052.9544
  20387882.848   -25847903.68849 -20128205.67049  20387884.1424   20387888.2534
 96  7 11  3 41 59.9970000  0  6 15 21 14  1 29 25
  20107577.042   -26534448.49849 -20651215.64549  20107577.3064   20107582.1444
  22088697.959     3377267.08749   2641251.33449  22088699.6564   22088704.6644
  22455912.333   -15099031.45549 -11749433.11449  22455911.7574   22455917.3194
  21042551.014   -13306722.19149 -10350135.61749  21042552.0904   21042556.0744
  23436847.122    -6060303.17349  -4703720.30449  23436847.7384   23436853.0084
  20376672.570   -25906817.89949 -20174112.80849  20376672.9774   20376677.1534
 96  7 11  3 42 29.9970000  0  6 15 21 14  1 29 25
  20099466.351   -26577068.72949 -20684426.20949  20099466.9904   20099472.1134
  22101198.984     3442957.38749   2692438.54749  22101200.4404   22101205.4904
  22437616.581   -15195168.88849 -11824345.36249  22437617.3244   22437622.7374
  21053254.981   -13250475.05349 -10306306.67949  21053255.4494   21053259.9724
  23418682.112    -6155761.72549  -4778103.55849  23418682.7994   23418688.5594
  20365547.549   -25965274.06249 -20219663.03249  20365549.1194   20365553.2234
 96  7 11  3 42 59.9970000  0  6 15 21 14  1 29 25
  20091470.125   -26619091.47249 -20717171.20149  20091470.1344   20091475.2894
  22113752.096     3508908.52249   2743829.01649  22113751.0604   22113755.5574
  22419332.687   -15291250.05149 -11899213.78549  22419333.4254   22419338.8734
  21063990.320   -13194064.18749 -10262350.16449  21063990.1564   21063994.1454
  23400551.925    -6251034.49049  -4852342.01549  23400551.8384   23400558.0254
  20354511.827   -26023269.39449 -20264854.16249  20354513.0684   20354517.1574
 96  7 11  3 43 29.9970000  0  6 15 21 14  1 29 25
  20083585.311   -26660525.94249 -20749457.79749  20083585.7274   20083590.4764
  22126344.078     3575090.55349   2795399.43549  22126344.2484   22126349.1244
  22401059.713   -15387278.45349 -11974041.08849  22401059.6354   22401065.1374
  21074752.484   -13137502.13849 -10218275.84049  21074753.6804   21074757.4764
  23382452.784    -6346144.98449  -4926454.04349  23382453.0314   23382459.1614
  20343564.179   -26080796.36449 -20309680.34249  20343565.9474   20343570.0914
 96  7 11  3 43 59.9970000  0  6 15 21 14  1 29 25
  20075815.927   -26701355.23149 -20781272.82149  20075816.0184   20075821.2594
  22138978.556     3641486.32349   2847136.38949  22138979.4824   22138984.8114
  22382802.316   -15483218.50349 -12048799.53549  22382803.6804   22382809.1274
  21085546.555   -13080782.61849 -10174078.80449  21085546.5774   21085551.0394
  23364383.965    -6441094.52149  -5000440.63549  23364385.4404   23364390.9144
  20332712.756   -26137824.84549 -20354118.08149  20332713.9234   20332718.0564
 96  7 11  3 44 29.9970000  0  6 15 21 14  1 29 25
  20068161.770   -26741576.33349 -20812613.94049  20068162.5044   20068167.6444
  22151653.516     3708089.78949   2899035.20149  22151653.6944   22151657.9694
  22364563.451   -15579068.94649 -12123488.16349  22364563.6634   22364568.9104
  21096371.169   -13023897.42449 -10129752.68449  21096371.7264   21096375.8754
  23346343.878    -6535901.96349  -5074316.52749  23346344.4144   23346350.0184
  20321958.527   -26194334.52649 -20398151.56549  20321960.1764   20321964.2914
 96  7 11  3 44 59.9970000  0  6 15 21 14  1 29 25
  20060624.842   -26781187.99049 -20843480.16149  20060624.7464   20060629.6384
  22164367.404     3774907.24049   2951100.74949  22164368.1464   22164373.7124
  22346339.550   -15674837.44149 -12198112.93949  22346339.6424   22346344.5564
  21107226.758   -12966851.56349 -10085301.36349  21107227.1564   21107231.3414
  23328325.454    -6630590.91549  -5148100.08249  23328325.2414   23328330.9794
  20311309.969   -26250295.52549 -20441757.51049  20311311.2834   20311315.2194
 96  7 11  3 45 29.9970000  0  6 15 21 14  1 29 25
  20053202.251   -26820191.75949 -20873872.69849  20053202.4084   20053207.6604
  22177126.570     3841953.55249   3003344.63049  22177127.6024   22177131.5064
  22328128.150   -15770534.41949 -12272681.97349  22328128.9614   22328133.9224
  21118108.950   -12909666.55449 -10040741.61849  21118109.1134   21118113.2054
  23310328.506    -6725165.33449  -5221794.39649  23310328.4854   23310333.6084
  20300763.435   -26305721.99149 -20484946.93249  20300763.8434   20300768.0434
 96  7 11  3 45 59.9970000  0  6 15 21 14  1 29 25
  20045891.958   -26858605.62049 -20903805.56949  20045892.3674   20045897.6074
  22189928.194     3909225.69549   3055764.47849  22189928.1234   22189933.9634
  22309926.916   -15866184.51049 -12347214.47749  22309926.5224   22309932.1614
  21129014.586   -12852357.60949  -9996085.29949  21129014.5234   21129018.7814
  23292349.601    -6819637.06549  -5295408.68249  23292351.2684   23292355.9534
  20290311.702   -26360647.29649 -20527745.84149  20290311.9004   20290316.0404
 96  7 11  3 46 29.9970000  0  6 15 21 14  1 29 25
  20038697.004   -26896413.67049 -20933266.38249  20038697.7504   20038702.8754
  22202779.815     3976764.30949   3108391.95949  22202780.1814   22202784.7564
  22291732.947   -15961792.66949 -12421714.30549  22291733.8224   22291739.5994
  21139947.789   -12794899.96349  -9951313.11049  21139948.4414   21139952.5944
  23274398.761    -6913976.12949  -5368919.58649  23274398.8014   23274404.1484
  20279958.073   -26415056.38349 -20570142.49949  20279958.1934   20279962.4314
 96  7 11  3 46 59.9970000  0  6 15 21 14  1 29 25
  20031618.530   -26933615.03949 -20962254.45549  20031618.5984   20031623.5884
  22215684.918     4044575.92749   3161232.16649  22215684.9944   22215689.7594
  22273546.584   -16057360.91649 -12496183.03849  22273547.3964   22273553.4824
  21150909.935   -12737296.12349  -9906427.00249  21150909.9364   21150914.4954
  23256474.559    -7008161.11749  -5442310.44049  23256476.5074   23256481.9304
  20269698.683   -26468967.26349 -20612150.94349  20269699.2404   20269703.5254
 96  7 11  3 47 29.9970000  0  6 15 21 14  1 29 25
  20024655.389   -26970204.16649 -20990765.46149  20024655.7614   20024661.1204
  22228641.054     4112656.14249   3214281.67649  22228639.7704   22228644.7564
  22255369.438   -16152879.24549 -12570612.86949  22255370.4014   22255376.8054
  21161900.646   -12679535.53349  -9861418.75449  21161901.5504   21161906.0094
  23238585.317    -7102176.01149  -5515568.76049  23238586.0394   23238591.4624
  20259533.590   -26522384.73149 -20653774.91549  20259534.3284   20259538.6564
 96  7 11  3 47 59.9970000  0  6 15 21 14  1 29 25
  20017807.233   -27006190.22749 -21018806.54549  20017807.8834   20017813.0484
  22241640.549     4180979.26849   3267520.46249  22241642.0614   22241646.0124
  22237202.882   -16248351.50849 -12645006.80449  22237202.4824   22237209.4534
  21172923.473   -12621608.88249  -9816281.10549  21172924.6094   21172928.6014
  23220724.925    -7196025.30349  -5588698.04449  23220726.2344   23220731.3334
  20249464.158   -26575297.62949 -20695005.71949  20249465.3304   20249469.4954
 96  7 11  3 48 29.9970000  0  6 15 21 14  1 29 25
  20011077.133   -27041557.49249 -21046365.45149  20011077.7854   20011083.1784
  22254686.933     4249539.62149   3320944.09849  22254687.8754   22254692.9674
  22219047.882   -16343752.17849 -12719344.95649  22219049.2614   22219054.4064
  21183979.711   -12563512.07949  -9771010.87249  21183980.0024   21183984.4504
  23202899.749    -7289702.65949  -5661693.32149  23202900.3214   23202906.3174
  20239494.567   -26627691.84049 -20735832.33349  20239495.1934   20239499.1084
 96  7 11  3 48 59.9970000  0  6 15 21 14  1 29 25
  20004464.981   -27076305.96649 -21073442.17949  20004465.4694   20004470.4064
  22267774.671     4318311.40149   3374532.48549  22267774.8724   22267780.4734
  22200908.351   -16439080.06849 -12793626.38949  22200908.7354   22200914.8434
  21195064.011   -12505265.75549  -9725624.12749  21195064.0424   21195068.2324
  23185102.235    -7383228.35549  -5734570.45149  23185102.7694   23185108.4944
  20229622.151   -26679571.03149 -20776257.64449  20229622.9714   20229627.0964
 96  7 11  3 49 29.9970000  0  6 15 21 14  1 29 25
  19997972.308   -27110429.85649 -21100032.22249  19997971.9064   19997976.7894
  22280900.267     4387287.25649   3428279.90949  22280899.9574   22280905.0624
  22182782.046   -16534328.33449 -12867845.81249  22182783.4184   22182788.8684
  21206175.624   -12446871.30949  -9680121.96049  21206176.0794   21206180.3444
  23167336.680    -7476603.67249  -5807330.39949  23167334.1824   23167339.9574
  20219848.598   -26730934.29149 -20816280.94449  20219848.7314   20219852.9194
 96  7 11  3 49 59.9970000  0  6 15 21 14  1 29 25
  19991594.844   -27143939.54949 -21126143.66349  19991595.1924   19991600.2944
  22294062.350     4456465.05249   3482184.66049  22294063.4224   22294068.6844
  22164670.995   -16629511.23049 -12942014.28449  22164670.7904   22164676.1624
  21217311.065   -12388350.13849  -9634521.04149  21217312.2424   21217316.6284
  23149590.726    -7569837.38949  -5879980.01849  23149591.4814   23149597.2244
  20210167.395   -26781803.12049 -20855918.96049  20210168.7454   20210173.0014
